<?xml version="1.0" encoding="UTF-8" standalone="no" ?>
<gpx xmlns="http://www.topografix.com/GPX/1/1" xmlns:xsi="http://www.w3.org/2001/XMLSchema-instance" xsi:schemaLocation="http://www.topografix.com/GPX/1/1 http://www.topografix.com/GPX/1/1/gpx.xsd" version="1.1" creator="VisuGPX - https://www.visugpx.com">
  <metadata>
    <name>tour du grand Barry</name>
    <desc><![CDATA[

]]></desc>
  </metadata>
  <trk>
    <name><![CDATA[tour du grand Barry]]></name>
    <trkseg>
      <trkpt lat="44.69627" lon="5.19416">
        <ele>257.5</ele>
        <time>2016-03-26T08:48:24Z</time>
      </trkpt>
      <trkpt lat="44.69638" lon="5.19438">
        <ele>257.9</ele>
        <time>2016-03-26T08:48:29Z</time>
      </trkpt>
      <trkpt lat="44.69649" lon="5.19463">
        <ele>257.4</ele>
        <time>2016-03-26T08:48:35Z</time>
      </trkpt>
      <trkpt lat="44.69655" lon="5.19488">
        <ele>257.5</ele>
        <time>2016-03-26T08:48:41Z</time>
      </trkpt>
      <trkpt lat="44.69662" lon="5.19513">
        <ele>257.7</ele>
        <time>2016-03-26T08:48:50Z</time>
      </trkpt>
      <trkpt lat="44.69659" lon="5.19541">
        <ele>257.9</ele>
        <time>2016-03-26T08:48:58Z</time>
      </trkpt>
      <trkpt lat="44.69656" lon="5.19571">
        <ele>257.9</ele>
        <time>2016-03-26T08:49:04Z</time>
      </trkpt>
      <trkpt lat="44.69649" lon="5.19598">
        <ele>257.6</ele>
        <time>2016-03-26T08:49:10Z</time>
      </trkpt>
      <trkpt lat="44.69644" lon="5.19624">
        <ele>257.6</ele>
        <time>2016-03-26T08:49:16Z</time>
      </trkpt>
      <trkpt lat="44.69645" lon="5.1965">
        <ele>257.8</ele>
        <time>2016-03-26T08:49:21Z</time>
      </trkpt>
      <trkpt lat="44.69652" lon="5.19677">
        <ele>258</ele>
        <time>2016-03-26T08:49:27Z</time>
      </trkpt>
      <trkpt lat="44.69662" lon="5.19699">
        <ele>258.7</ele>
        <time>2016-03-26T08:49:33Z</time>
      </trkpt>
      <trkpt lat="44.69679" lon="5.19712">
        <ele>260</ele>
        <time>2016-03-26T08:49:42Z</time>
      </trkpt>
      <trkpt lat="44.69699" lon="5.19712">
        <ele>262.2</ele>
        <time>2016-03-26T08:52:43Z</time>
      </trkpt>
      <trkpt lat="44.69717" lon="5.19702">
        <ele>263.2</ele>
        <time>2016-03-26T08:52:51Z</time>
      </trkpt>
      <trkpt lat="44.69736" lon="5.19699">
        <ele>264.9</ele>
        <time>2016-03-26T08:52:58Z</time>
      </trkpt>
      <trkpt lat="44.69757" lon="5.197">
        <ele>266.6</ele>
        <time>2016-03-26T08:53:05Z</time>
      </trkpt>
      <trkpt lat="44.69778" lon="5.19699">
        <ele>267.4</ele>
        <time>2016-03-26T08:53:11Z</time>
      </trkpt>
      <trkpt lat="44.69798" lon="5.19695">
        <ele>269</ele>
        <time>2016-03-26T08:53:17Z</time>
      </trkpt>
      <trkpt lat="44.69816" lon="5.19698">
        <ele>271</ele>
        <time>2016-03-26T08:53:24Z</time>
      </trkpt>
      <trkpt lat="44.69835" lon="5.19704">
        <ele>273.3</ele>
        <time>2016-03-26T08:53:33Z</time>
      </trkpt>
      <trkpt lat="44.69851" lon="5.19717">
        <ele>273.4</ele>
        <time>2016-03-26T08:53:40Z</time>
      </trkpt>
      <trkpt lat="44.69868" lon="5.19727">
        <ele>273.4</ele>
        <time>2016-03-26T08:53:48Z</time>
      </trkpt>
      <trkpt lat="44.69888" lon="5.19726">
        <ele>273.5</ele>
        <time>2016-03-26T08:53:56Z</time>
      </trkpt>
      <trkpt lat="44.69906" lon="5.19721">
        <ele>273.7</ele>
        <time>2016-03-26T08:54:03Z</time>
      </trkpt>
      <trkpt lat="44.69926" lon="5.19723">
        <ele>273.9</ele>
        <time>2016-03-26T08:54:11Z</time>
      </trkpt>
      <trkpt lat="44.69941" lon="5.19741">
        <ele>274.2</ele>
        <time>2016-03-26T08:54:19Z</time>
      </trkpt>
      <trkpt lat="44.69952" lon="5.1976">
        <ele>274.5</ele>
        <time>2016-03-26T08:54:27Z</time>
      </trkpt>
      <trkpt lat="44.69966" lon="5.19779">
        <ele>275.1</ele>
        <time>2016-03-26T08:54:37Z</time>
      </trkpt>
      <trkpt lat="44.69983" lon="5.19792">
        <ele>276.5</ele>
        <time>2016-03-26T08:54:48Z</time>
      </trkpt>
      <trkpt lat="44.70001" lon="5.19792">
        <ele>277.8</ele>
        <time>2016-03-26T08:54:56Z</time>
      </trkpt>
      <trkpt lat="44.70019" lon="5.19792">
        <ele>278.9</ele>
        <time>2016-03-26T08:55:03Z</time>
      </trkpt>
      <trkpt lat="44.70037" lon="5.19792">
        <ele>280.1</ele>
        <time>2016-03-26T08:55:10Z</time>
      </trkpt>
      <trkpt lat="44.70057" lon="5.19791">
        <ele>281</ele>
        <time>2016-03-26T08:55:19Z</time>
      </trkpt>
      <trkpt lat="44.70076" lon="5.19785">
        <ele>281.9</ele>
        <time>2016-03-26T08:55:26Z</time>
      </trkpt>
      <trkpt lat="44.70095" lon="5.19782">
        <ele>283.3</ele>
        <time>2016-03-26T08:55:34Z</time>
      </trkpt>
      <trkpt lat="44.70114" lon="5.1978">
        <ele>284.4</ele>
        <time>2016-03-26T08:55:41Z</time>
      </trkpt>
      <trkpt lat="44.70134" lon="5.1978">
        <ele>285.8</ele>
        <time>2016-03-26T08:55:49Z</time>
      </trkpt>
      <trkpt lat="44.70152" lon="5.19785">
        <ele>286.8</ele>
        <time>2016-03-26T08:55:56Z</time>
      </trkpt>
      <trkpt lat="44.7017" lon="5.19793">
        <ele>287.8</ele>
        <time>2016-03-26T08:56:04Z</time>
      </trkpt>
      <trkpt lat="44.70189" lon="5.19801">
        <ele>288.4</ele>
        <time>2016-03-26T08:56:11Z</time>
      </trkpt>
      <trkpt lat="44.7021" lon="5.198">
        <ele>289.2</ele>
        <time>2016-03-26T08:56:18Z</time>
      </trkpt>
      <trkpt lat="44.70229" lon="5.19796">
        <ele>289.9</ele>
        <time>2016-03-26T08:56:25Z</time>
      </trkpt>
      <trkpt lat="44.70248" lon="5.19791">
        <ele>290.5</ele>
        <time>2016-03-26T08:56:32Z</time>
      </trkpt>
      <trkpt lat="44.70268" lon="5.1979">
        <ele>291.5</ele>
        <time>2016-03-26T08:56:41Z</time>
      </trkpt>
      <trkpt lat="44.70289" lon="5.19795">
        <ele>292.2</ele>
        <time>2016-03-26T08:56:48Z</time>
      </trkpt>
      <trkpt lat="44.70306" lon="5.19799">
        <ele>293</ele>
        <time>2016-03-26T08:56:55Z</time>
      </trkpt>
      <trkpt lat="44.70325" lon="5.19804">
        <ele>293.8</ele>
        <time>2016-03-26T08:57:01Z</time>
      </trkpt>
      <trkpt lat="44.70343" lon="5.19808">
        <ele>294.3</ele>
        <time>2016-03-26T08:57:08Z</time>
      </trkpt>
      <trkpt lat="44.70364" lon="5.19809">
        <ele>294.7</ele>
        <time>2016-03-26T08:57:15Z</time>
      </trkpt>
      <trkpt lat="44.70382" lon="5.19812">
        <ele>295.2</ele>
        <time>2016-03-26T08:57:23Z</time>
      </trkpt>
      <trkpt lat="44.70401" lon="5.19814">
        <ele>295.8</ele>
        <time>2016-03-26T08:57:31Z</time>
      </trkpt>
      <trkpt lat="44.70421" lon="5.19819">
        <ele>296.9</ele>
        <time>2016-03-26T08:57:40Z</time>
      </trkpt>
      <trkpt lat="44.7044" lon="5.19821">
        <ele>297.8</ele>
        <time>2016-03-26T08:57:49Z</time>
      </trkpt>
      <trkpt lat="44.70457" lon="5.1981">
        <ele>299</ele>
        <time>2016-03-26T08:57:58Z</time>
      </trkpt>
      <trkpt lat="44.70472" lon="5.19795">
        <ele>300.6</ele>
        <time>2016-03-26T08:58:07Z</time>
      </trkpt>
      <trkpt lat="44.70488" lon="5.1978">
        <ele>302.9</ele>
        <time>2016-03-26T08:58:17Z</time>
      </trkpt>
      <trkpt lat="44.70504" lon="5.19765">
        <ele>304.6</ele>
        <time>2016-03-26T08:58:28Z</time>
      </trkpt>
      <trkpt lat="44.70521" lon="5.19753">
        <ele>305.5</ele>
        <time>2016-03-26T08:58:38Z</time>
      </trkpt>
      <trkpt lat="44.70535" lon="5.19735">
        <ele>306.8</ele>
        <time>2016-03-26T08:58:49Z</time>
      </trkpt>
      <trkpt lat="44.70544" lon="5.1971">
        <ele>309</ele>
        <time>2016-03-26T08:59:00Z</time>
      </trkpt>
      <trkpt lat="44.70556" lon="5.19689">
        <ele>311.5</ele>
        <time>2016-03-26T08:59:12Z</time>
      </trkpt>
      <trkpt lat="44.70572" lon="5.19672">
        <ele>313.4</ele>
        <time>2016-03-26T08:59:22Z</time>
      </trkpt>
      <trkpt lat="44.70589" lon="5.19664">
        <ele>315.2</ele>
        <time>2016-03-26T08:59:31Z</time>
      </trkpt>
      <trkpt lat="44.70607" lon="5.1966">
        <ele>318</ele>
        <time>2016-03-26T08:59:42Z</time>
      </trkpt>
      <trkpt lat="44.70626" lon="5.19659">
        <ele>321.6</ele>
        <time>2016-03-26T08:59:54Z</time>
      </trkpt>
      <trkpt lat="44.70644" lon="5.19664">
        <ele>325.8</ele>
        <time>2016-03-26T09:00:07Z</time>
      </trkpt>
      <trkpt lat="44.70662" lon="5.19674">
        <ele>328.1</ele>
        <time>2016-03-26T09:00:20Z</time>
      </trkpt>
      <trkpt lat="44.70679" lon="5.19687">
        <ele>329.5</ele>
        <time>2016-03-26T09:00:30Z</time>
      </trkpt>
      <trkpt lat="44.70697" lon="5.19697">
        <ele>331.6</ele>
        <time>2016-03-26T09:00:42Z</time>
      </trkpt>
      <trkpt lat="44.70714" lon="5.19711">
        <ele>333.9</ele>
        <time>2016-03-26T09:00:53Z</time>
      </trkpt>
      <trkpt lat="44.70732" lon="5.19718">
        <ele>336</ele>
        <time>2016-03-26T09:01:03Z</time>
      </trkpt>
      <trkpt lat="44.70749" lon="5.19731">
        <ele>338</ele>
        <time>2016-03-26T09:01:12Z</time>
      </trkpt>
      <trkpt lat="44.70768" lon="5.19739">
        <ele>339.7</ele>
        <time>2016-03-26T09:01:21Z</time>
      </trkpt>
      <trkpt lat="44.70788" lon="5.19738">
        <ele>341</ele>
        <time>2016-03-26T09:01:28Z</time>
      </trkpt>
      <trkpt lat="44.70807" lon="5.19743">
        <ele>342</ele>
        <time>2016-03-26T09:01:35Z</time>
      </trkpt>
      <trkpt lat="44.70823" lon="5.19754">
        <ele>342.5</ele>
        <time>2016-03-26T09:01:43Z</time>
      </trkpt>
      <trkpt lat="44.70841" lon="5.19769">
        <ele>343</ele>
        <time>2016-03-26T09:01:51Z</time>
      </trkpt>
      <trkpt lat="44.70861" lon="5.19773">
        <ele>343</ele>
        <time>2016-03-26T09:01:58Z</time>
      </trkpt>
      <trkpt lat="44.7088" lon="5.19769">
        <ele>343.2</ele>
        <time>2016-03-26T09:02:06Z</time>
      </trkpt>
      <trkpt lat="44.70899" lon="5.19767">
        <ele>343.7</ele>
        <time>2016-03-26T09:02:15Z</time>
      </trkpt>
      <trkpt lat="44.70917" lon="5.19772">
        <ele>344.6</ele>
        <time>2016-03-26T09:02:22Z</time>
      </trkpt>
      <trkpt lat="44.70934" lon="5.19778">
        <ele>344.8</ele>
        <time>2016-03-26T09:02:29Z</time>
      </trkpt>
      <trkpt lat="44.70955" lon="5.19776">
        <ele>345.2</ele>
        <time>2016-03-26T09:02:36Z</time>
      </trkpt>
      <trkpt lat="44.70971" lon="5.19761">
        <ele>345.6</ele>
        <time>2016-03-26T09:02:45Z</time>
      </trkpt>
      <trkpt lat="44.70981" lon="5.19737">
        <ele>346.5</ele>
        <time>2016-03-26T09:02:55Z</time>
      </trkpt>
      <trkpt lat="44.70999" lon="5.1973">
        <ele>351.7</ele>
        <time>2016-03-26T09:04:07Z</time>
      </trkpt>
      <trkpt lat="44.71011" lon="5.19751">
        <ele>351.2</ele>
        <time>2016-03-26T09:04:15Z</time>
      </trkpt>
      <trkpt lat="44.71022" lon="5.19771">
        <ele>350.8</ele>
        <time>2016-03-26T09:04:22Z</time>
      </trkpt>
      <trkpt lat="44.71035" lon="5.19792">
        <ele>351</ele>
        <time>2016-03-26T09:04:30Z</time>
      </trkpt>
      <trkpt lat="44.71049" lon="5.19811">
        <ele>351.6</ele>
        <time>2016-03-26T09:04:37Z</time>
      </trkpt>
      <trkpt lat="44.71063" lon="5.19828">
        <ele>352.3</ele>
        <time>2016-03-26T09:04:44Z</time>
      </trkpt>
      <trkpt lat="44.71083" lon="5.19837">
        <ele>353.2</ele>
        <time>2016-03-26T09:04:53Z</time>
      </trkpt>
      <trkpt lat="44.71101" lon="5.19842">
        <ele>354.2</ele>
        <time>2016-03-26T09:04:59Z</time>
      </trkpt>
      <trkpt lat="44.71121" lon="5.19849">
        <ele>355.5</ele>
        <time>2016-03-26T09:05:06Z</time>
      </trkpt>
      <trkpt lat="44.71138" lon="5.19857">
        <ele>357.1</ele>
        <time>2016-03-26T09:05:14Z</time>
      </trkpt>
      <trkpt lat="44.71155" lon="5.19867">
        <ele>359.1</ele>
        <time>2016-03-26T09:05:22Z</time>
      </trkpt>
      <trkpt lat="44.71174" lon="5.1988">
        <ele>360.2</ele>
        <time>2016-03-26T09:05:29Z</time>
      </trkpt>
      <trkpt lat="44.71195" lon="5.19881">
        <ele>360.9</ele>
        <time>2016-03-26T09:05:36Z</time>
      </trkpt>
      <trkpt lat="44.71212" lon="5.19876">
        <ele>361.4</ele>
        <time>2016-03-26T09:05:42Z</time>
      </trkpt>
      <trkpt lat="44.71229" lon="5.19865">
        <ele>362</ele>
        <time>2016-03-26T09:05:49Z</time>
      </trkpt>
      <trkpt lat="44.71246" lon="5.19856">
        <ele>363</ele>
        <time>2016-03-26T09:05:56Z</time>
      </trkpt>
      <trkpt lat="44.71266" lon="5.19852">
        <ele>364.3</ele>
        <time>2016-03-26T09:06:03Z</time>
      </trkpt>
      <trkpt lat="44.71286" lon="5.19855">
        <ele>365.1</ele>
        <time>2016-03-26T09:06:11Z</time>
      </trkpt>
      <trkpt lat="44.71305" lon="5.19849">
        <ele>366.3</ele>
        <time>2016-03-26T09:06:18Z</time>
      </trkpt>
      <trkpt lat="44.71323" lon="5.19845">
        <ele>368.2</ele>
        <time>2016-03-26T09:06:25Z</time>
      </trkpt>
      <trkpt lat="44.71344" lon="5.19852">
        <ele>369.1</ele>
        <time>2016-03-26T09:06:32Z</time>
      </trkpt>
      <trkpt lat="44.71361" lon="5.1986">
        <ele>369.3</ele>
        <time>2016-03-26T09:06:38Z</time>
      </trkpt>
      <trkpt lat="44.71377" lon="5.19873">
        <ele>369.4</ele>
        <time>2016-03-26T09:06:43Z</time>
      </trkpt>
      <trkpt lat="44.71394" lon="5.19886">
        <ele>369.3</ele>
        <time>2016-03-26T09:06:49Z</time>
      </trkpt>
      <trkpt lat="44.71411" lon="5.19906">
        <ele>369.4</ele>
        <time>2016-03-26T09:06:55Z</time>
      </trkpt>
      <trkpt lat="44.71423" lon="5.19926">
        <ele>369.2</ele>
        <time>2016-03-26T09:07:00Z</time>
      </trkpt>
      <trkpt lat="44.71435" lon="5.19945">
        <ele>369</ele>
        <time>2016-03-26T09:07:05Z</time>
      </trkpt>
      <trkpt lat="44.7145" lon="5.1996">
        <ele>368.9</ele>
        <time>2016-03-26T09:07:11Z</time>
      </trkpt>
      <trkpt lat="44.71468" lon="5.19969">
        <ele>369.4</ele>
        <time>2016-03-26T09:07:17Z</time>
      </trkpt>
      <trkpt lat="44.71487" lon="5.19968">
        <ele>370.5</ele>
        <time>2016-03-26T09:07:22Z</time>
      </trkpt>
      <trkpt lat="44.71506" lon="5.19961">
        <ele>371.8</ele>
        <time>2016-03-26T09:07:27Z</time>
      </trkpt>
      <trkpt lat="44.71526" lon="5.19952">
        <ele>373.3</ele>
        <time>2016-03-26T09:07:33Z</time>
      </trkpt>
      <trkpt lat="44.71545" lon="5.19954">
        <ele>374.5</ele>
        <time>2016-03-26T09:07:40Z</time>
      </trkpt>
      <trkpt lat="44.71557" lon="5.19977">
        <ele>374.6</ele>
        <time>2016-03-26T09:07:48Z</time>
      </trkpt>
      <trkpt lat="44.71562" lon="5.20004">
        <ele>374.3</ele>
        <time>2016-03-26T09:07:56Z</time>
      </trkpt>
      <trkpt lat="44.71564" lon="5.20031">
        <ele>374.5</ele>
        <time>2016-03-26T09:08:04Z</time>
      </trkpt>
      <trkpt lat="44.71565" lon="5.20058">
        <ele>374.9</ele>
        <time>2016-03-26T09:08:11Z</time>
      </trkpt>
      <trkpt lat="44.71567" lon="5.20085">
        <ele>375.4</ele>
        <time>2016-03-26T09:08:18Z</time>
      </trkpt>
      <trkpt lat="44.71568" lon="5.20113">
        <ele>376</ele>
        <time>2016-03-26T09:08:25Z</time>
      </trkpt>
      <trkpt lat="44.71565" lon="5.20139">
        <ele>376.5</ele>
        <time>2016-03-26T09:08:32Z</time>
      </trkpt>
      <trkpt lat="44.71566" lon="5.20168">
        <ele>376.3</ele>
        <time>2016-03-26T09:08:40Z</time>
      </trkpt>
      <trkpt lat="44.71569" lon="5.20196">
        <ele>376.6</ele>
        <time>2016-03-26T09:08:47Z</time>
      </trkpt>
      <trkpt lat="44.7158" lon="5.20217">
        <ele>377.9</ele>
        <time>2016-03-26T09:08:56Z</time>
      </trkpt>
      <trkpt lat="44.71596" lon="5.20231">
        <ele>379.8</ele>
        <time>2016-03-26T09:09:05Z</time>
      </trkpt>
      <trkpt lat="44.71612" lon="5.20243">
        <ele>382.1</ele>
        <time>2016-03-26T09:09:13Z</time>
      </trkpt>
      <trkpt lat="44.71629" lon="5.2025">
        <ele>384.4</ele>
        <time>2016-03-26T09:09:20Z</time>
      </trkpt>
      <trkpt lat="44.7165" lon="5.20253">
        <ele>386.6</ele>
        <time>2016-03-26T09:09:27Z</time>
      </trkpt>
      <trkpt lat="44.7167" lon="5.2025">
        <ele>388.7</ele>
        <time>2016-03-26T09:09:33Z</time>
      </trkpt>
      <trkpt lat="44.71689" lon="5.20246">
        <ele>391.4</ele>
        <time>2016-03-26T09:09:41Z</time>
      </trkpt>
      <trkpt lat="44.71708" lon="5.20242">
        <ele>394.8</ele>
        <time>2016-03-26T09:09:50Z</time>
      </trkpt>
      <trkpt lat="44.71725" lon="5.20234">
        <ele>397.3</ele>
        <time>2016-03-26T09:10:01Z</time>
      </trkpt>
      <trkpt lat="44.71742" lon="5.20227">
        <ele>398.2</ele>
        <time>2016-03-26T09:10:11Z</time>
      </trkpt>
      <trkpt lat="44.71759" lon="5.20214">
        <ele>399</ele>
        <time>2016-03-26T09:10:23Z</time>
      </trkpt>
      <trkpt lat="44.71775" lon="5.202">
        <ele>399.3</ele>
        <time>2016-03-26T09:10:34Z</time>
      </trkpt>
      <trkpt lat="44.71792" lon="5.2021">
        <ele>399.7</ele>
        <time>2016-03-26T09:10:47Z</time>
      </trkpt>
      <trkpt lat="44.71807" lon="5.20228">
        <ele>401</ele>
        <time>2016-03-26T09:10:59Z</time>
      </trkpt>
      <trkpt lat="44.71822" lon="5.20242">
        <ele>402.6</ele>
        <time>2016-03-26T09:11:09Z</time>
      </trkpt>
      <trkpt lat="44.7184" lon="5.20246">
        <ele>404.1</ele>
        <time>2016-03-26T09:11:19Z</time>
      </trkpt>
      <trkpt lat="44.71859" lon="5.20244">
        <ele>406.1</ele>
        <time>2016-03-26T09:11:28Z</time>
      </trkpt>
      <trkpt lat="44.71878" lon="5.20247">
        <ele>410</ele>
        <time>2016-03-26T09:11:40Z</time>
      </trkpt>
      <trkpt lat="44.71898" lon="5.20252">
        <ele>412.5</ele>
        <time>2016-03-26T09:11:50Z</time>
      </trkpt>
      <trkpt lat="44.71913" lon="5.20268">
        <ele>413.2</ele>
        <time>2016-03-26T09:11:57Z</time>
      </trkpt>
      <trkpt lat="44.71929" lon="5.20281">
        <ele>413.3</ele>
        <time>2016-03-26T09:12:05Z</time>
      </trkpt>
      <trkpt lat="44.71948" lon="5.20276">
        <ele>413.2</ele>
        <time>2016-03-26T09:12:13Z</time>
      </trkpt>
      <trkpt lat="44.71961" lon="5.20257">
        <ele>412.3</ele>
        <time>2016-03-26T09:12:21Z</time>
      </trkpt>
      <trkpt lat="44.71975" lon="5.20238">
        <ele>411.5</ele>
        <time>2016-03-26T09:12:29Z</time>
      </trkpt>
      <trkpt lat="44.71994" lon="5.2023">
        <ele>411.4</ele>
        <time>2016-03-26T09:12:35Z</time>
      </trkpt>
      <trkpt lat="44.72012" lon="5.20239">
        <ele>411.6</ele>
        <time>2016-03-26T09:12:43Z</time>
      </trkpt>
      <trkpt lat="44.72028" lon="5.20256">
        <ele>411.9</ele>
        <time>2016-03-26T09:12:50Z</time>
      </trkpt>
      <trkpt lat="44.72044" lon="5.20274">
        <ele>412.1</ele>
        <time>2016-03-26T09:12:56Z</time>
      </trkpt>
      <trkpt lat="44.72061" lon="5.2029">
        <ele>412.9</ele>
        <time>2016-03-26T09:13:01Z</time>
      </trkpt>
      <trkpt lat="44.72078" lon="5.20303">
        <ele>412.9</ele>
        <time>2016-03-26T09:13:06Z</time>
      </trkpt>
      <trkpt lat="44.72092" lon="5.20318">
        <ele>412.8</ele>
        <time>2016-03-26T09:13:11Z</time>
      </trkpt>
      <trkpt lat="44.72107" lon="5.2034">
        <ele>411.8</ele>
        <time>2016-03-26T09:13:17Z</time>
      </trkpt>
      <trkpt lat="44.72126" lon="5.20342">
        <ele>409.9</ele>
        <time>2016-03-26T09:13:27Z</time>
      </trkpt>
      <trkpt lat="44.72139" lon="5.20324">
        <ele>409.5</ele>
        <time>2016-03-26T09:13:32Z</time>
      </trkpt>
      <trkpt lat="44.72156" lon="5.20314">
        <ele>408.5</ele>
        <time>2016-03-26T09:13:36Z</time>
      </trkpt>
      <trkpt lat="44.72177" lon="5.20307">
        <ele>408.2</ele>
        <time>2016-03-26T09:13:41Z</time>
      </trkpt>
      <trkpt lat="44.72195" lon="5.20299">
        <ele>407.7</ele>
        <time>2016-03-26T09:13:47Z</time>
      </trkpt>
      <trkpt lat="44.72213" lon="5.20287">
        <ele>407.2</ele>
        <time>2016-03-26T09:13:53Z</time>
      </trkpt>
      <trkpt lat="44.72232" lon="5.20276">
        <ele>407</ele>
        <time>2016-03-26T09:13:58Z</time>
      </trkpt>
      <trkpt lat="44.72252" lon="5.20279">
        <ele>407.5</ele>
        <time>2016-03-26T09:14:03Z</time>
      </trkpt>
      <trkpt lat="44.72269" lon="5.2029">
        <ele>407.5</ele>
        <time>2016-03-26T09:14:07Z</time>
      </trkpt>
      <trkpt lat="44.72286" lon="5.20303">
        <ele>407.3</ele>
        <time>2016-03-26T09:14:10Z</time>
      </trkpt>
      <trkpt lat="44.72305" lon="5.20316">
        <ele>404.9</ele>
        <time>2016-03-26T09:14:13Z</time>
      </trkpt>
      <trkpt lat="44.72326" lon="5.20331">
        <ele>403.4</ele>
        <time>2016-03-26T09:14:16Z</time>
      </trkpt>
      <trkpt lat="44.72349" lon="5.20341">
        <ele>403</ele>
        <time>2016-03-26T09:14:19Z</time>
      </trkpt>
      <trkpt lat="44.72374" lon="5.20338">
        <ele>402.5</ele>
        <time>2016-03-26T09:14:22Z</time>
      </trkpt>
      <trkpt lat="44.72399" lon="5.20323">
        <ele>399.8</ele>
        <time>2016-03-26T09:14:25Z</time>
      </trkpt>
      <trkpt lat="44.72414" lon="5.20308">
        <ele>397.5</ele>
        <time>2016-03-26T09:14:27Z</time>
      </trkpt>
      <trkpt lat="44.72429" lon="5.20291">
        <ele>395.4</ele>
        <time>2016-03-26T09:14:29Z</time>
      </trkpt>
      <trkpt lat="44.72449" lon="5.20282">
        <ele>393.2</ele>
        <time>2016-03-26T09:14:32Z</time>
      </trkpt>
      <trkpt lat="44.72451" lon="5.20312">
        <ele>389.1</ele>
        <time>2016-03-26T09:14:37Z</time>
      </trkpt>
      <trkpt lat="44.72443" lon="5.20344">
        <ele>388.1</ele>
        <time>2016-03-26T09:14:41Z</time>
      </trkpt>
      <trkpt lat="44.72443" lon="5.20371">
        <ele>386.7</ele>
        <time>2016-03-26T09:14:44Z</time>
      </trkpt>
      <trkpt lat="44.72454" lon="5.20397">
        <ele>384.8</ele>
        <time>2016-03-26T09:14:47Z</time>
      </trkpt>
      <trkpt lat="44.72475" lon="5.20415">
        <ele>383.3</ele>
        <time>2016-03-26T09:14:50Z</time>
      </trkpt>
      <trkpt lat="44.72494" lon="5.20428">
        <ele>383.3</ele>
        <time>2016-03-26T09:14:53Z</time>
      </trkpt>
      <trkpt lat="44.72512" lon="5.20446">
        <ele>382.9</ele>
        <time>2016-03-26T09:14:57Z</time>
      </trkpt>
      <trkpt lat="44.72521" lon="5.20469">
        <ele>382.5</ele>
        <time>2016-03-26T09:15:01Z</time>
      </trkpt>
      <trkpt lat="44.72521" lon="5.20496">
        <ele>382.6</ele>
        <time>2016-03-26T09:15:07Z</time>
      </trkpt>
      <trkpt lat="44.72534" lon="5.20516">
        <ele>383.1</ele>
        <time>2016-03-26T09:15:15Z</time>
      </trkpt>
      <trkpt lat="44.72543" lon="5.20541">
        <ele>383.8</ele>
        <time>2016-03-26T09:15:22Z</time>
      </trkpt>
      <trkpt lat="44.72544" lon="5.2057">
        <ele>383.9</ele>
        <time>2016-03-26T09:15:28Z</time>
      </trkpt>
      <trkpt lat="44.72549" lon="5.20597">
        <ele>383.8</ele>
        <time>2016-03-26T09:15:34Z</time>
      </trkpt>
      <trkpt lat="44.72557" lon="5.2062">
        <ele>383.5</ele>
        <time>2016-03-26T09:15:40Z</time>
      </trkpt>
      <trkpt lat="44.72576" lon="5.20629">
        <ele>383.1</ele>
        <time>2016-03-26T09:15:46Z</time>
      </trkpt>
      <trkpt lat="44.72596" lon="5.20628">
        <ele>383.6</ele>
        <time>2016-03-26T09:15:51Z</time>
      </trkpt>
      <trkpt lat="44.72616" lon="5.20622">
        <ele>384.4</ele>
        <time>2016-03-26T09:15:57Z</time>
      </trkpt>
      <trkpt lat="44.72636" lon="5.20618">
        <ele>384.9</ele>
        <time>2016-03-26T09:16:03Z</time>
      </trkpt>
      <trkpt lat="44.72655" lon="5.20617">
        <ele>385.2</ele>
        <time>2016-03-26T09:16:09Z</time>
      </trkpt>
      <trkpt lat="44.72676" lon="5.20619">
        <ele>386.2</ele>
        <time>2016-03-26T09:16:16Z</time>
      </trkpt>
      <trkpt lat="44.72695" lon="5.20623">
        <ele>387</ele>
        <time>2016-03-26T09:16:23Z</time>
      </trkpt>
      <trkpt lat="44.72715" lon="5.2063">
        <ele>387.9</ele>
        <time>2016-03-26T09:16:30Z</time>
      </trkpt>
      <trkpt lat="44.72731" lon="5.20642">
        <ele>389</ele>
        <time>2016-03-26T09:16:39Z</time>
      </trkpt>
      <trkpt lat="44.72748" lon="5.20656">
        <ele>389.9</ele>
        <time>2016-03-26T09:16:47Z</time>
      </trkpt>
      <trkpt lat="44.7276" lon="5.20677">
        <ele>391.5</ele>
        <time>2016-03-26T09:16:57Z</time>
      </trkpt>
      <trkpt lat="44.72767" lon="5.20702">
        <ele>393.3</ele>
        <time>2016-03-26T09:17:07Z</time>
      </trkpt>
      <trkpt lat="44.72773" lon="5.20727">
        <ele>394.6</ele>
        <time>2016-03-26T09:17:16Z</time>
      </trkpt>
      <trkpt lat="44.72778" lon="5.20754">
        <ele>396.1</ele>
        <time>2016-03-26T09:17:26Z</time>
      </trkpt>
      <trkpt lat="44.72784" lon="5.20778">
        <ele>397.3</ele>
        <time>2016-03-26T09:17:36Z</time>
      </trkpt>
      <trkpt lat="44.72796" lon="5.20797">
        <ele>398.8</ele>
        <time>2016-03-26T09:17:45Z</time>
      </trkpt>
      <trkpt lat="44.72814" lon="5.20804">
        <ele>400.3</ele>
        <time>2016-03-26T09:17:55Z</time>
      </trkpt>
      <trkpt lat="44.72833" lon="5.20801">
        <ele>401.8</ele>
        <time>2016-03-26T09:18:03Z</time>
      </trkpt>
      <trkpt lat="44.72852" lon="5.20803">
        <ele>403.2</ele>
        <time>2016-03-26T09:18:12Z</time>
      </trkpt>
      <trkpt lat="44.7287" lon="5.20808">
        <ele>404</ele>
        <time>2016-03-26T09:18:18Z</time>
      </trkpt>
      <trkpt lat="44.7289" lon="5.20817">
        <ele>405.2</ele>
        <time>2016-03-26T09:18:24Z</time>
      </trkpt>
      <trkpt lat="44.72907" lon="5.20825">
        <ele>406.3</ele>
        <time>2016-03-26T09:18:29Z</time>
      </trkpt>
      <trkpt lat="44.7293" lon="5.20824">
        <ele>409.8</ele>
        <time>2016-03-26T09:18:33Z</time>
      </trkpt>
      <trkpt lat="44.72953" lon="5.2082">
        <ele>410.2</ele>
        <time>2016-03-26T09:18:37Z</time>
      </trkpt>
      <trkpt lat="44.72976" lon="5.20815">
        <ele>410.3</ele>
        <time>2016-03-26T09:18:41Z</time>
      </trkpt>
      <trkpt lat="44.72998" lon="5.20819">
        <ele>409.2</ele>
        <time>2016-03-26T09:18:44Z</time>
      </trkpt>
      <trkpt lat="44.73017" lon="5.2082">
        <ele>408.5</ele>
        <time>2016-03-26T09:18:47Z</time>
      </trkpt>
      <trkpt lat="44.73041" lon="5.20818">
        <ele>406.1</ele>
        <time>2016-03-26T09:18:51Z</time>
      </trkpt>
      <trkpt lat="44.7306" lon="5.20819">
        <ele>404.9</ele>
        <time>2016-03-26T09:18:55Z</time>
      </trkpt>
      <trkpt lat="44.73079" lon="5.20822">
        <ele>404.5</ele>
        <time>2016-03-26T09:18:59Z</time>
      </trkpt>
      <trkpt lat="44.73098" lon="5.20827">
        <ele>404.6</ele>
        <time>2016-03-26T09:19:05Z</time>
      </trkpt>
      <trkpt lat="44.73115" lon="5.20835">
        <ele>404.8</ele>
        <time>2016-03-26T09:19:10Z</time>
      </trkpt>
      <trkpt lat="44.73134" lon="5.20844">
        <ele>404.2</ele>
        <time>2016-03-26T09:19:15Z</time>
      </trkpt>
      <trkpt lat="44.73153" lon="5.20855">
        <ele>403.8</ele>
        <time>2016-03-26T09:19:21Z</time>
      </trkpt>
      <trkpt lat="44.73171" lon="5.20862">
        <ele>403.6</ele>
        <time>2016-03-26T09:19:26Z</time>
      </trkpt>
      <trkpt lat="44.73189" lon="5.2087">
        <ele>403.7</ele>
        <time>2016-03-26T09:19:31Z</time>
      </trkpt>
      <trkpt lat="44.7321" lon="5.20871">
        <ele>404</ele>
        <time>2016-03-26T09:19:37Z</time>
      </trkpt>
      <trkpt lat="44.73228" lon="5.20869">
        <ele>405.4</ele>
        <time>2016-03-26T09:19:42Z</time>
      </trkpt>
      <trkpt lat="44.73247" lon="5.20864">
        <ele>406</ele>
        <time>2016-03-26T09:19:48Z</time>
      </trkpt>
      <trkpt lat="44.73266" lon="5.2086">
        <ele>406.5</ele>
        <time>2016-03-26T09:19:53Z</time>
      </trkpt>
      <trkpt lat="44.73285" lon="5.20857">
        <ele>407.2</ele>
        <time>2016-03-26T09:19:58Z</time>
      </trkpt>
      <trkpt lat="44.73304" lon="5.20858">
        <ele>407.6</ele>
        <time>2016-03-26T09:20:03Z</time>
      </trkpt>
      <trkpt lat="44.73322" lon="5.20862">
        <ele>406.7</ele>
        <time>2016-03-26T09:24:13Z</time>
      </trkpt>
      <trkpt lat="44.7334" lon="5.20859">
        <ele>407.1</ele>
        <time>2016-03-26T09:24:20Z</time>
      </trkpt>
      <trkpt lat="44.7336" lon="5.20857">
        <ele>407.8</ele>
        <time>2016-03-26T09:24:26Z</time>
      </trkpt>
      <trkpt lat="44.73381" lon="5.20859">
        <ele>408.1</ele>
        <time>2016-03-26T09:24:32Z</time>
      </trkpt>
      <trkpt lat="44.734" lon="5.20864">
        <ele>408.2</ele>
        <time>2016-03-26T09:24:37Z</time>
      </trkpt>
      <trkpt lat="44.73417" lon="5.20869">
        <ele>408.2</ele>
        <time>2016-03-26T09:24:42Z</time>
      </trkpt>
      <trkpt lat="44.73438" lon="5.20874">
        <ele>408.2</ele>
        <time>2016-03-26T09:24:48Z</time>
      </trkpt>
      <trkpt lat="44.73458" lon="5.20881">
        <ele>408.7</ele>
        <time>2016-03-26T09:24:55Z</time>
      </trkpt>
      <trkpt lat="44.73476" lon="5.20886">
        <ele>409.1</ele>
        <time>2016-03-26T09:25:01Z</time>
      </trkpt>
      <trkpt lat="44.73495" lon="5.20893">
        <ele>409.6</ele>
        <time>2016-03-26T09:25:07Z</time>
      </trkpt>
      <trkpt lat="44.73515" lon="5.20901">
        <ele>409.9</ele>
        <time>2016-03-26T09:25:13Z</time>
      </trkpt>
      <trkpt lat="44.73534" lon="5.20906">
        <ele>410.2</ele>
        <time>2016-03-26T09:25:19Z</time>
      </trkpt>
      <trkpt lat="44.73554" lon="5.20909">
        <ele>410.7</ele>
        <time>2016-03-26T09:25:26Z</time>
      </trkpt>
      <trkpt lat="44.73536" lon="5.20904">
        <ele>412.3</ele>
        <time>2016-03-26T09:25:46Z</time>
      </trkpt>
      <trkpt lat="44.73554" lon="5.20908">
        <ele>413</ele>
        <time>2016-03-26T09:27:05Z</time>
      </trkpt>
      <trkpt lat="44.73574" lon="5.20913">
        <ele>413.6</ele>
        <time>2016-03-26T09:27:12Z</time>
      </trkpt>
      <trkpt lat="44.73593" lon="5.20921">
        <ele>414.1</ele>
        <time>2016-03-26T09:27:20Z</time>
      </trkpt>
      <trkpt lat="44.73611" lon="5.20928">
        <ele>414.6</ele>
        <time>2016-03-26T09:27:26Z</time>
      </trkpt>
      <trkpt lat="44.7363" lon="5.20936">
        <ele>415.2</ele>
        <time>2016-03-26T09:27:33Z</time>
      </trkpt>
      <trkpt lat="44.73649" lon="5.20943">
        <ele>415.7</ele>
        <time>2016-03-26T09:27:40Z</time>
      </trkpt>
      <trkpt lat="44.73668" lon="5.20946">
        <ele>416.1</ele>
        <time>2016-03-26T09:27:46Z</time>
      </trkpt>
      <trkpt lat="44.73687" lon="5.20939">
        <ele>416.7</ele>
        <time>2016-03-26T09:27:54Z</time>
      </trkpt>
      <trkpt lat="44.73705" lon="5.20929">
        <ele>417.4</ele>
        <time>2016-03-26T09:28:02Z</time>
      </trkpt>
      <trkpt lat="44.73723" lon="5.20919">
        <ele>417.8</ele>
        <time>2016-03-26T09:28:10Z</time>
      </trkpt>
      <trkpt lat="44.73742" lon="5.20912">
        <ele>418.4</ele>
        <time>2016-03-26T09:28:19Z</time>
      </trkpt>
      <trkpt lat="44.73762" lon="5.20916">
        <ele>419.3</ele>
        <time>2016-03-26T09:28:28Z</time>
      </trkpt>
      <trkpt lat="44.7378" lon="5.20925">
        <ele>420.3</ele>
        <time>2016-03-26T09:28:37Z</time>
      </trkpt>
      <trkpt lat="44.73797" lon="5.20938">
        <ele>421.7</ele>
        <time>2016-03-26T09:28:48Z</time>
      </trkpt>
      <trkpt lat="44.73811" lon="5.20954">
        <ele>423</ele>
        <time>2016-03-26T09:28:57Z</time>
      </trkpt>
      <trkpt lat="44.73827" lon="5.2097">
        <ele>424.9</ele>
        <time>2016-03-26T09:29:06Z</time>
      </trkpt>
      <trkpt lat="44.73842" lon="5.20984">
        <ele>426.8</ele>
        <time>2016-03-26T09:29:16Z</time>
      </trkpt>
      <trkpt lat="44.73858" lon="5.20998">
        <ele>427.9</ele>
        <time>2016-03-26T09:29:26Z</time>
      </trkpt>
      <trkpt lat="44.73873" lon="5.21013">
        <ele>428.8</ele>
        <time>2016-03-26T09:29:36Z</time>
      </trkpt>
      <trkpt lat="44.73887" lon="5.21031">
        <ele>430.9</ele>
        <time>2016-03-26T09:29:46Z</time>
      </trkpt>
      <trkpt lat="44.73903" lon="5.21045">
        <ele>433.1</ele>
        <time>2016-03-26T09:29:57Z</time>
      </trkpt>
      <trkpt lat="44.73919" lon="5.21057">
        <ele>435.2</ele>
        <time>2016-03-26T09:30:08Z</time>
      </trkpt>
      <trkpt lat="44.73938" lon="5.21057">
        <ele>437.6</ele>
        <time>2016-03-26T09:30:19Z</time>
      </trkpt>
      <trkpt lat="44.73957" lon="5.21055">
        <ele>440.5</ele>
        <time>2016-03-26T09:30:31Z</time>
      </trkpt>
      <trkpt lat="44.73976" lon="5.21052">
        <ele>442.9</ele>
        <time>2016-03-26T09:30:42Z</time>
      </trkpt>
      <trkpt lat="44.73995" lon="5.21047">
        <ele>445.4</ele>
        <time>2016-03-26T09:30:54Z</time>
      </trkpt>
      <trkpt lat="44.74013" lon="5.21037">
        <ele>447.5</ele>
        <time>2016-03-26T09:31:05Z</time>
      </trkpt>
      <trkpt lat="44.74024" lon="5.21059">
        <ele>450.5</ele>
        <time>2016-03-26T09:31:21Z</time>
      </trkpt>
      <trkpt lat="44.74024" lon="5.21087">
        <ele>453.5</ele>
        <time>2016-03-26T09:31:32Z</time>
      </trkpt>
      <trkpt lat="44.74028" lon="5.21113">
        <ele>456.4</ele>
        <time>2016-03-26T09:31:44Z</time>
      </trkpt>
      <trkpt lat="44.74043" lon="5.21131">
        <ele>458.4</ele>
        <time>2016-03-26T09:31:55Z</time>
      </trkpt>
      <trkpt lat="44.7406" lon="5.21142">
        <ele>460.1</ele>
        <time>2016-03-26T09:32:06Z</time>
      </trkpt>
      <trkpt lat="44.74078" lon="5.21148">
        <ele>461.9</ele>
        <time>2016-03-26T09:32:18Z</time>
      </trkpt>
      <trkpt lat="44.74097" lon="5.21148">
        <ele>464.3</ele>
        <time>2016-03-26T09:32:30Z</time>
      </trkpt>
      <trkpt lat="44.74115" lon="5.21139">
        <ele>466.8</ele>
        <time>2016-03-26T09:32:43Z</time>
      </trkpt>
      <trkpt lat="44.74133" lon="5.21137">
        <ele>468.8</ele>
        <time>2016-03-26T09:32:55Z</time>
      </trkpt>
      <trkpt lat="44.74152" lon="5.21132">
        <ele>471.5</ele>
        <time>2016-03-26T09:33:07Z</time>
      </trkpt>
      <trkpt lat="44.74171" lon="5.2113">
        <ele>474.2</ele>
        <time>2016-03-26T09:33:19Z</time>
      </trkpt>
      <trkpt lat="44.74189" lon="5.2112">
        <ele>476.5</ele>
        <time>2016-03-26T09:33:30Z</time>
      </trkpt>
      <trkpt lat="44.74205" lon="5.21107">
        <ele>479.4</ele>
        <time>2016-03-26T09:33:43Z</time>
      </trkpt>
      <trkpt lat="44.74223" lon="5.21107">
        <ele>482</ele>
        <time>2016-03-26T09:33:54Z</time>
      </trkpt>
      <trkpt lat="44.74242" lon="5.21104">
        <ele>484.3</ele>
        <time>2016-03-26T09:34:06Z</time>
      </trkpt>
      <trkpt lat="44.74262" lon="5.21101">
        <ele>486.6</ele>
        <time>2016-03-26T09:34:17Z</time>
      </trkpt>
      <trkpt lat="44.7428" lon="5.21103">
        <ele>489.1</ele>
        <time>2016-03-26T09:34:28Z</time>
      </trkpt>
      <trkpt lat="44.74277" lon="5.21128">
        <ele>491.8</ele>
        <time>2016-03-26T09:34:41Z</time>
      </trkpt>
      <trkpt lat="44.74262" lon="5.21147">
        <ele>494.5</ele>
        <time>2016-03-26T09:34:53Z</time>
      </trkpt>
      <trkpt lat="44.74251" lon="5.21167">
        <ele>496.3</ele>
        <time>2016-03-26T09:35:03Z</time>
      </trkpt>
      <trkpt lat="44.74251" lon="5.21192">
        <ele>498.4</ele>
        <time>2016-03-26T09:35:13Z</time>
      </trkpt>
      <trkpt lat="44.74263" lon="5.21215">
        <ele>499.8</ele>
        <time>2016-03-26T09:35:23Z</time>
      </trkpt>
      <trkpt lat="44.74279" lon="5.21228">
        <ele>500.7</ele>
        <time>2016-03-26T09:35:31Z</time>
      </trkpt>
      <trkpt lat="44.74297" lon="5.21237">
        <ele>501.9</ele>
        <time>2016-03-26T09:35:40Z</time>
      </trkpt>
      <trkpt lat="44.74314" lon="5.21251">
        <ele>502.8</ele>
        <time>2016-03-26T09:35:49Z</time>
      </trkpt>
      <trkpt lat="44.74331" lon="5.21269">
        <ele>503.7</ele>
        <time>2016-03-26T09:35:57Z</time>
      </trkpt>
      <trkpt lat="44.74345" lon="5.21289">
        <ele>505.3</ele>
        <time>2016-03-26T09:36:06Z</time>
      </trkpt>
      <trkpt lat="44.74352" lon="5.21313">
        <ele>506.3</ele>
        <time>2016-03-26T09:36:12Z</time>
      </trkpt>
      <trkpt lat="44.74352" lon="5.21338">
        <ele>507.1</ele>
        <time>2016-03-26T09:36:18Z</time>
      </trkpt>
      <trkpt lat="44.74358" lon="5.21363">
        <ele>507.5</ele>
        <time>2016-03-26T09:36:24Z</time>
      </trkpt>
      <trkpt lat="44.74369" lon="5.21384">
        <ele>507.6</ele>
        <time>2016-03-26T09:36:30Z</time>
      </trkpt>
      <trkpt lat="44.74381" lon="5.2141">
        <ele>508.1</ele>
        <time>2016-03-26T09:36:36Z</time>
      </trkpt>
      <trkpt lat="44.74392" lon="5.21435">
        <ele>509.8</ele>
        <time>2016-03-26T09:36:42Z</time>
      </trkpt>
      <trkpt lat="44.74403" lon="5.21461">
        <ele>511.8</ele>
        <time>2016-03-26T09:36:47Z</time>
      </trkpt>
      <trkpt lat="44.7442" lon="5.21478">
        <ele>511.5</ele>
        <time>2016-03-26T09:36:53Z</time>
      </trkpt>
      <trkpt lat="44.74441" lon="5.21477">
        <ele>509.5</ele>
        <time>2016-03-26T09:36:58Z</time>
      </trkpt>
      <trkpt lat="44.74462" lon="5.21464">
        <ele>508</ele>
        <time>2016-03-26T09:37:02Z</time>
      </trkpt>
      <trkpt lat="44.74483" lon="5.21454">
        <ele>506.8</ele>
        <time>2016-03-26T09:37:05Z</time>
      </trkpt>
      <trkpt lat="44.74506" lon="5.21442">
        <ele>504.8</ele>
        <time>2016-03-26T09:37:08Z</time>
      </trkpt>
      <trkpt lat="44.74529" lon="5.21424">
        <ele>502.3</ele>
        <time>2016-03-26T09:37:11Z</time>
      </trkpt>
      <trkpt lat="44.74543" lon="5.21408">
        <ele>501</ele>
        <time>2016-03-26T09:37:13Z</time>
      </trkpt>
      <trkpt lat="44.74559" lon="5.21379">
        <ele>499.1</ele>
        <time>2016-03-26T09:37:16Z</time>
      </trkpt>
      <trkpt lat="44.7458" lon="5.21375">
        <ele>497.2</ele>
        <time>2016-03-26T09:37:19Z</time>
      </trkpt>
      <trkpt lat="44.746" lon="5.21373">
        <ele>495.5</ele>
        <time>2016-03-26T09:37:22Z</time>
      </trkpt>
      <trkpt lat="44.74623" lon="5.21367">
        <ele>494.4</ele>
        <time>2016-03-26T09:37:25Z</time>
      </trkpt>
      <trkpt lat="44.74646" lon="5.21376">
        <ele>493.6</ele>
        <time>2016-03-26T09:37:28Z</time>
      </trkpt>
      <trkpt lat="44.74668" lon="5.21389">
        <ele>492.7</ele>
        <time>2016-03-26T09:37:31Z</time>
      </trkpt>
      <trkpt lat="44.74686" lon="5.21407">
        <ele>492.4</ele>
        <time>2016-03-26T09:37:34Z</time>
      </trkpt>
      <trkpt lat="44.74703" lon="5.21431">
        <ele>491.8</ele>
        <time>2016-03-26T09:37:37Z</time>
      </trkpt>
      <trkpt lat="44.74723" lon="5.21456">
        <ele>489.5</ele>
        <time>2016-03-26T09:37:40Z</time>
      </trkpt>
      <trkpt lat="44.74736" lon="5.21474">
        <ele>487.9</ele>
        <time>2016-03-26T09:37:42Z</time>
      </trkpt>
      <trkpt lat="44.74751" lon="5.21492">
        <ele>486.3</ele>
        <time>2016-03-26T09:37:44Z</time>
      </trkpt>
      <trkpt lat="44.74762" lon="5.21515">
        <ele>484.8</ele>
        <time>2016-03-26T09:37:46Z</time>
      </trkpt>
      <trkpt lat="44.74771" lon="5.21538">
        <ele>483.4</ele>
        <time>2016-03-26T09:37:48Z</time>
      </trkpt>
      <trkpt lat="44.7479" lon="5.21555">
        <ele>481.7</ele>
        <time>2016-03-26T09:37:51Z</time>
      </trkpt>
      <trkpt lat="44.74812" lon="5.21553">
        <ele>479.2</ele>
        <time>2016-03-26T09:37:54Z</time>
      </trkpt>
      <trkpt lat="44.7483" lon="5.21546">
        <ele>477.6</ele>
        <time>2016-03-26T09:37:56Z</time>
      </trkpt>
      <trkpt lat="44.74855" lon="5.2154">
        <ele>476.2</ele>
        <time>2016-03-26T09:37:59Z</time>
      </trkpt>
      <trkpt lat="44.74878" lon="5.21536">
        <ele>475.1</ele>
        <time>2016-03-26T09:38:02Z</time>
      </trkpt>
      <trkpt lat="44.74897" lon="5.21546">
        <ele>474.7</ele>
        <time>2016-03-26T09:38:06Z</time>
      </trkpt>
      <trkpt lat="44.74895" lon="5.21572">
        <ele>475.4</ele>
        <time>2016-03-26T09:38:17Z</time>
      </trkpt>
      <trkpt lat="44.74883" lon="5.21593">
        <ele>477.5</ele>
        <time>2016-03-26T09:38:30Z</time>
      </trkpt>
      <trkpt lat="44.74873" lon="5.21616">
        <ele>479.6</ele>
        <time>2016-03-26T09:38:43Z</time>
      </trkpt>
      <trkpt lat="44.74868" lon="5.21642">
        <ele>481.9</ele>
        <time>2016-03-26T09:38:56Z</time>
      </trkpt>
      <trkpt lat="44.74877" lon="5.2167">
        <ele>488.4</ele>
        <time>2016-03-26T09:40:51Z</time>
      </trkpt>
      <trkpt lat="44.74894" lon="5.2168">
        <ele>489</ele>
        <time>2016-03-26T09:41:01Z</time>
      </trkpt>
      <trkpt lat="44.7491" lon="5.2169">
        <ele>489.3</ele>
        <time>2016-03-26T09:41:11Z</time>
      </trkpt>
      <trkpt lat="44.74929" lon="5.21703">
        <ele>489.7</ele>
        <time>2016-03-26T09:41:19Z</time>
      </trkpt>
      <trkpt lat="44.74947" lon="5.21712">
        <ele>489.6</ele>
        <time>2016-03-26T09:41:26Z</time>
      </trkpt>
      <trkpt lat="44.74965" lon="5.21721">
        <ele>489.5</ele>
        <time>2016-03-26T09:41:33Z</time>
      </trkpt>
      <trkpt lat="44.74981" lon="5.21735">
        <ele>489.8</ele>
        <time>2016-03-26T09:41:38Z</time>
      </trkpt>
      <trkpt lat="44.74995" lon="5.21754">
        <ele>489.9</ele>
        <time>2016-03-26T09:41:45Z</time>
      </trkpt>
      <trkpt lat="44.7501" lon="5.21772">
        <ele>489.6</ele>
        <time>2016-03-26T09:41:52Z</time>
      </trkpt>
      <trkpt lat="44.75029" lon="5.21782">
        <ele>489.5</ele>
        <time>2016-03-26T09:41:59Z</time>
      </trkpt>
      <trkpt lat="44.75048" lon="5.21784">
        <ele>489.7</ele>
        <time>2016-03-26T09:42:06Z</time>
      </trkpt>
      <trkpt lat="44.75065" lon="5.21795">
        <ele>490.2</ele>
        <time>2016-03-26T09:42:13Z</time>
      </trkpt>
      <trkpt lat="44.75082" lon="5.21804">
        <ele>490.9</ele>
        <time>2016-03-26T09:42:20Z</time>
      </trkpt>
      <trkpt lat="44.75101" lon="5.21812">
        <ele>491.3</ele>
        <time>2016-03-26T09:42:28Z</time>
      </trkpt>
      <trkpt lat="44.7512" lon="5.21817">
        <ele>492</ele>
        <time>2016-03-26T09:42:35Z</time>
      </trkpt>
      <trkpt lat="44.75138" lon="5.21824">
        <ele>492.8</ele>
        <time>2016-03-26T09:42:42Z</time>
      </trkpt>
      <trkpt lat="44.75156" lon="5.21832">
        <ele>494</ele>
        <time>2016-03-26T09:42:50Z</time>
      </trkpt>
      <trkpt lat="44.75175" lon="5.21839">
        <ele>494.6</ele>
        <time>2016-03-26T09:42:56Z</time>
      </trkpt>
      <trkpt lat="44.75195" lon="5.21841">
        <ele>495.1</ele>
        <time>2016-03-26T09:43:03Z</time>
      </trkpt>
      <trkpt lat="44.75215" lon="5.21845">
        <ele>495.7</ele>
        <time>2016-03-26T09:43:09Z</time>
      </trkpt>
      <trkpt lat="44.75232" lon="5.21856">
        <ele>496.5</ele>
        <time>2016-03-26T09:43:17Z</time>
      </trkpt>
      <trkpt lat="44.75249" lon="5.2187">
        <ele>497.2</ele>
        <time>2016-03-26T09:43:24Z</time>
      </trkpt>
      <trkpt lat="44.75267" lon="5.21879">
        <ele>497.9</ele>
        <time>2016-03-26T09:43:31Z</time>
      </trkpt>
      <trkpt lat="44.75286" lon="5.21884">
        <ele>498.1</ele>
        <time>2016-03-26T09:43:37Z</time>
      </trkpt>
      <trkpt lat="44.75305" lon="5.21889">
        <ele>498.1</ele>
        <time>2016-03-26T09:43:44Z</time>
      </trkpt>
      <trkpt lat="44.75323" lon="5.21895">
        <ele>498</ele>
        <time>2016-03-26T09:43:50Z</time>
      </trkpt>
      <trkpt lat="44.75344" lon="5.21884">
        <ele>500</ele>
        <time>2016-03-26T09:43:56Z</time>
      </trkpt>
      <trkpt lat="44.75362" lon="5.21886">
        <ele>501.2</ele>
        <time>2016-03-26T09:44:00Z</time>
      </trkpt>
      <trkpt lat="44.75382" lon="5.21894">
        <ele>501.3</ele>
        <time>2016-03-26T09:44:06Z</time>
      </trkpt>
      <trkpt lat="44.75403" lon="5.21893">
        <ele>501.3</ele>
        <time>2016-03-26T09:44:12Z</time>
      </trkpt>
      <trkpt lat="44.7542" lon="5.21886">
        <ele>501.2</ele>
        <time>2016-03-26T09:44:17Z</time>
      </trkpt>
      <trkpt lat="44.75439" lon="5.2188">
        <ele>501.1</ele>
        <time>2016-03-26T09:44:23Z</time>
      </trkpt>
      <trkpt lat="44.75458" lon="5.21874">
        <ele>501.6</ele>
        <time>2016-03-26T09:44:28Z</time>
      </trkpt>
      <trkpt lat="44.75477" lon="5.21868">
        <ele>502</ele>
        <time>2016-03-26T09:44:33Z</time>
      </trkpt>
      <trkpt lat="44.75498" lon="5.21858">
        <ele>502</ele>
        <time>2016-03-26T09:44:38Z</time>
      </trkpt>
      <trkpt lat="44.75516" lon="5.21846">
        <ele>501.3</ele>
        <time>2016-03-26T09:44:43Z</time>
      </trkpt>
      <trkpt lat="44.75535" lon="5.21837">
        <ele>500.5</ele>
        <time>2016-03-26T09:44:48Z</time>
      </trkpt>
      <trkpt lat="44.75554" lon="5.21836">
        <ele>500.8</ele>
        <time>2016-03-26T09:44:53Z</time>
      </trkpt>
      <trkpt lat="44.75575" lon="5.21831">
        <ele>501.6</ele>
        <time>2016-03-26T09:44:58Z</time>
      </trkpt>
      <trkpt lat="44.75594" lon="5.21829">
        <ele>500.4</ele>
        <time>2016-03-26T09:45:02Z</time>
      </trkpt>
      <trkpt lat="44.75615" lon="5.21829">
        <ele>501.6</ele>
        <time>2016-03-26T09:45:07Z</time>
      </trkpt>
      <trkpt lat="44.75634" lon="5.21825">
        <ele>502.5</ele>
        <time>2016-03-26T09:45:12Z</time>
      </trkpt>
      <trkpt lat="44.75654" lon="5.21825">
        <ele>502.3</ele>
        <time>2016-03-26T09:45:17Z</time>
      </trkpt>
      <trkpt lat="44.75675" lon="5.21823">
        <ele>502.4</ele>
        <time>2016-03-26T09:45:22Z</time>
      </trkpt>
      <trkpt lat="44.75696" lon="5.21821">
        <ele>501.6</ele>
        <time>2016-03-26T09:45:27Z</time>
      </trkpt>
      <trkpt lat="44.75717" lon="5.21822">
        <ele>501.6</ele>
        <time>2016-03-26T09:45:32Z</time>
      </trkpt>
      <trkpt lat="44.75735" lon="5.21821">
        <ele>501.6</ele>
        <time>2016-03-26T09:45:36Z</time>
      </trkpt>
      <trkpt lat="44.75757" lon="5.21818">
        <ele>501.6</ele>
        <time>2016-03-26T09:45:41Z</time>
      </trkpt>
      <trkpt lat="44.75777" lon="5.21815">
        <ele>501.9</ele>
        <time>2016-03-26T09:45:46Z</time>
      </trkpt>
      <trkpt lat="44.75798" lon="5.21814">
        <ele>503.2</ele>
        <time>2016-03-26T09:45:51Z</time>
      </trkpt>
      <trkpt lat="44.7582" lon="5.21816">
        <ele>503.7</ele>
        <time>2016-03-26T09:45:56Z</time>
      </trkpt>
      <trkpt lat="44.75841" lon="5.21816">
        <ele>504.4</ele>
        <time>2016-03-26T09:46:01Z</time>
      </trkpt>
      <trkpt lat="44.75861" lon="5.21822">
        <ele>503.4</ele>
        <time>2016-03-26T09:46:06Z</time>
      </trkpt>
      <trkpt lat="44.75879" lon="5.21828">
        <ele>504</ele>
        <time>2016-03-26T09:46:12Z</time>
      </trkpt>
      <trkpt lat="44.75898" lon="5.21826">
        <ele>508.3</ele>
        <time>2016-03-26T09:47:50Z</time>
      </trkpt>
      <trkpt lat="44.75916" lon="5.21837">
        <ele>508.9</ele>
        <time>2016-03-26T09:48:00Z</time>
      </trkpt>
      <trkpt lat="44.75933" lon="5.2185">
        <ele>509.5</ele>
        <time>2016-03-26T09:48:09Z</time>
      </trkpt>
      <trkpt lat="44.75949" lon="5.21865">
        <ele>509.7</ele>
        <time>2016-03-26T09:48:18Z</time>
      </trkpt>
      <trkpt lat="44.75963" lon="5.21881">
        <ele>510.2</ele>
        <time>2016-03-26T09:48:26Z</time>
      </trkpt>
      <trkpt lat="44.75978" lon="5.21897">
        <ele>511</ele>
        <time>2016-03-26T09:48:34Z</time>
      </trkpt>
      <trkpt lat="44.75994" lon="5.2191">
        <ele>511.5</ele>
        <time>2016-03-26T09:48:42Z</time>
      </trkpt>
      <trkpt lat="44.76009" lon="5.21925">
        <ele>511.8</ele>
        <time>2016-03-26T09:48:49Z</time>
      </trkpt>
      <trkpt lat="44.76025" lon="5.2194">
        <ele>512.1</ele>
        <time>2016-03-26T09:48:56Z</time>
      </trkpt>
      <trkpt lat="44.7604" lon="5.21955">
        <ele>512.5</ele>
        <time>2016-03-26T09:49:03Z</time>
      </trkpt>
      <trkpt lat="44.7606" lon="5.21961">
        <ele>512.8</ele>
        <time>2016-03-26T09:49:09Z</time>
      </trkpt>
      <trkpt lat="44.7608" lon="5.21963">
        <ele>513.6</ele>
        <time>2016-03-26T09:49:16Z</time>
      </trkpt>
      <trkpt lat="44.76101" lon="5.21968">
        <ele>514.2</ele>
        <time>2016-03-26T09:49:22Z</time>
      </trkpt>
      <trkpt lat="44.7612" lon="5.21974">
        <ele>514.3</ele>
        <time>2016-03-26T09:49:28Z</time>
      </trkpt>
      <trkpt lat="44.76139" lon="5.21983">
        <ele>514.9</ele>
        <time>2016-03-26T09:49:35Z</time>
      </trkpt>
      <trkpt lat="44.76157" lon="5.21986">
        <ele>515.5</ele>
        <time>2016-03-26T09:49:41Z</time>
      </trkpt>
      <trkpt lat="44.76175" lon="5.21991">
        <ele>516.4</ele>
        <time>2016-03-26T09:49:47Z</time>
      </trkpt>
      <trkpt lat="44.76195" lon="5.21995">
        <ele>517.5</ele>
        <time>2016-03-26T09:49:53Z</time>
      </trkpt>
      <trkpt lat="44.76216" lon="5.21993">
        <ele>519</ele>
        <time>2016-03-26T09:50:00Z</time>
      </trkpt>
      <trkpt lat="44.76237" lon="5.21992">
        <ele>520.2</ele>
        <time>2016-03-26T09:50:06Z</time>
      </trkpt>
      <trkpt lat="44.76255" lon="5.21994">
        <ele>521.1</ele>
        <time>2016-03-26T09:50:11Z</time>
      </trkpt>
      <trkpt lat="44.76276" lon="5.21994">
        <ele>522</ele>
        <time>2016-03-26T09:50:17Z</time>
      </trkpt>
      <trkpt lat="44.76295" lon="5.21989">
        <ele>523</ele>
        <time>2016-03-26T09:50:23Z</time>
      </trkpt>
      <trkpt lat="44.76317" lon="5.21985">
        <ele>524.9</ele>
        <time>2016-03-26T09:50:29Z</time>
      </trkpt>
      <trkpt lat="44.76336" lon="5.21986">
        <ele>526.3</ele>
        <time>2016-03-26T09:50:34Z</time>
      </trkpt>
      <trkpt lat="44.76354" lon="5.21992">
        <ele>526.6</ele>
        <time>2016-03-26T09:50:39Z</time>
      </trkpt>
      <trkpt lat="44.76371" lon="5.22005">
        <ele>526.3</ele>
        <time>2016-03-26T09:50:44Z</time>
      </trkpt>
      <trkpt lat="44.76387" lon="5.22019">
        <ele>526.4</ele>
        <time>2016-03-26T09:50:50Z</time>
      </trkpt>
      <trkpt lat="44.76404" lon="5.22032">
        <ele>526.5</ele>
        <time>2016-03-26T09:50:57Z</time>
      </trkpt>
      <trkpt lat="44.76421" lon="5.22047">
        <ele>526.5</ele>
        <time>2016-03-26T09:51:05Z</time>
      </trkpt>
      <trkpt lat="44.76436" lon="5.22067">
        <ele>526.4</ele>
        <time>2016-03-26T09:51:14Z</time>
      </trkpt>
      <trkpt lat="44.76451" lon="5.22085">
        <ele>526.6</ele>
        <time>2016-03-26T09:51:22Z</time>
      </trkpt>
      <trkpt lat="44.76469" lon="5.22091">
        <ele>526.8</ele>
        <time>2016-03-26T09:51:29Z</time>
      </trkpt>
      <trkpt lat="44.76487" lon="5.22099">
        <ele>527.2</ele>
        <time>2016-03-26T09:51:38Z</time>
      </trkpt>
      <trkpt lat="44.76505" lon="5.22108">
        <ele>527.7</ele>
        <time>2016-03-26T09:51:45Z</time>
      </trkpt>
      <trkpt lat="44.76522" lon="5.22115">
        <ele>528.2</ele>
        <time>2016-03-26T09:51:52Z</time>
      </trkpt>
      <trkpt lat="44.76541" lon="5.22122">
        <ele>529.1</ele>
        <time>2016-03-26T09:52:00Z</time>
      </trkpt>
      <trkpt lat="44.76559" lon="5.22129">
        <ele>529.8</ele>
        <time>2016-03-26T09:52:06Z</time>
      </trkpt>
      <trkpt lat="44.76577" lon="5.22133">
        <ele>530.8</ele>
        <time>2016-03-26T09:52:13Z</time>
      </trkpt>
      <trkpt lat="44.76594" lon="5.22139">
        <ele>532.1</ele>
        <time>2016-03-26T09:52:20Z</time>
      </trkpt>
      <trkpt lat="44.76612" lon="5.22145">
        <ele>533.8</ele>
        <time>2016-03-26T09:52:27Z</time>
      </trkpt>
      <trkpt lat="44.76633" lon="5.22146">
        <ele>535.5</ele>
        <time>2016-03-26T09:52:34Z</time>
      </trkpt>
      <trkpt lat="44.76652" lon="5.22143">
        <ele>537.2</ele>
        <time>2016-03-26T09:52:41Z</time>
      </trkpt>
      <trkpt lat="44.76673" lon="5.22141">
        <ele>538.5</ele>
        <time>2016-03-26T09:52:48Z</time>
      </trkpt>
      <trkpt lat="44.76692" lon="5.22142">
        <ele>539</ele>
        <time>2016-03-26T09:52:54Z</time>
      </trkpt>
      <trkpt lat="44.76711" lon="5.22143">
        <ele>539.4</ele>
        <time>2016-03-26T09:53:00Z</time>
      </trkpt>
      <trkpt lat="44.76729" lon="5.22143">
        <ele>540</ele>
        <time>2016-03-26T09:53:06Z</time>
      </trkpt>
      <trkpt lat="44.76747" lon="5.22129">
        <ele>541.3</ele>
        <time>2016-03-26T09:53:13Z</time>
      </trkpt>
      <trkpt lat="44.7676" lon="5.22107">
        <ele>542.2</ele>
        <time>2016-03-26T09:53:19Z</time>
      </trkpt>
      <trkpt lat="44.76773" lon="5.22087">
        <ele>542.8</ele>
        <time>2016-03-26T09:53:24Z</time>
      </trkpt>
      <trkpt lat="44.76788" lon="5.2207">
        <ele>543.7</ele>
        <time>2016-03-26T09:53:30Z</time>
      </trkpt>
      <trkpt lat="44.76805" lon="5.22062">
        <ele>544.7</ele>
        <time>2016-03-26T09:53:36Z</time>
      </trkpt>
      <trkpt lat="44.76825" lon="5.22065">
        <ele>546.1</ele>
        <time>2016-03-26T09:53:42Z</time>
      </trkpt>
      <trkpt lat="44.76844" lon="5.22062">
        <ele>547.9</ele>
        <time>2016-03-26T09:53:50Z</time>
      </trkpt>
      <trkpt lat="44.76859" lon="5.22047">
        <ele>550.2</ele>
        <time>2016-03-26T09:54:01Z</time>
      </trkpt>
      <trkpt lat="44.76872" lon="5.22029">
        <ele>554.1</ele>
        <time>2016-03-26T09:54:13Z</time>
      </trkpt>
      <trkpt lat="44.76889" lon="5.22014">
        <ele>556.5</ele>
        <time>2016-03-26T09:54:25Z</time>
      </trkpt>
      <trkpt lat="44.76904" lon="5.22">
        <ele>558.5</ele>
        <time>2016-03-26T09:54:38Z</time>
      </trkpt>
      <trkpt lat="44.76919" lon="5.21986">
        <ele>560.7</ele>
        <time>2016-03-26T09:54:52Z</time>
      </trkpt>
      <trkpt lat="44.76936" lon="5.21974">
        <ele>563.1</ele>
        <time>2016-03-26T09:55:06Z</time>
      </trkpt>
      <trkpt lat="44.76953" lon="5.21966">
        <ele>566.1</ele>
        <time>2016-03-26T09:55:23Z</time>
      </trkpt>
      <trkpt lat="44.7697" lon="5.21957">
        <ele>569</ele>
        <time>2016-03-26T09:55:38Z</time>
      </trkpt>
      <trkpt lat="44.76988" lon="5.21948">
        <ele>571.6</ele>
        <time>2016-03-26T09:55:54Z</time>
      </trkpt>
      <trkpt lat="44.77001" lon="5.21931">
        <ele>574.9</ele>
        <time>2016-03-26T09:56:07Z</time>
      </trkpt>
      <trkpt lat="44.77016" lon="5.21916">
        <ele>577.7</ele>
        <time>2016-03-26T09:56:23Z</time>
      </trkpt>
      <trkpt lat="44.77034" lon="5.21908">
        <ele>580.4</ele>
        <time>2016-03-26T09:56:38Z</time>
      </trkpt>
      <trkpt lat="44.77054" lon="5.21908">
        <ele>582</ele>
        <time>2016-03-26T09:56:53Z</time>
      </trkpt>
      <trkpt lat="44.77072" lon="5.2191">
        <ele>584.2</ele>
        <time>2016-03-26T09:57:09Z</time>
      </trkpt>
      <trkpt lat="44.77089" lon="5.21905">
        <ele>586.6</ele>
        <time>2016-03-26T09:57:22Z</time>
      </trkpt>
      <trkpt lat="44.77109" lon="5.21908">
        <ele>588.2</ele>
        <time>2016-03-26T09:57:36Z</time>
      </trkpt>
      <trkpt lat="44.77127" lon="5.2191">
        <ele>590.8</ele>
        <time>2016-03-26T09:57:52Z</time>
      </trkpt>
      <trkpt lat="44.77146" lon="5.21913">
        <ele>594.2</ele>
        <time>2016-03-26T09:58:07Z</time>
      </trkpt>
      <trkpt lat="44.77164" lon="5.2191">
        <ele>596.9</ele>
        <time>2016-03-26T09:58:19Z</time>
      </trkpt>
      <trkpt lat="44.7718" lon="5.21894">
        <ele>599.5</ele>
        <time>2016-03-26T09:58:31Z</time>
      </trkpt>
      <trkpt lat="44.77197" lon="5.21882">
        <ele>602</ele>
        <time>2016-03-26T09:58:45Z</time>
      </trkpt>
      <trkpt lat="44.77211" lon="5.21864">
        <ele>604</ele>
        <time>2016-03-26T09:58:56Z</time>
      </trkpt>
      <trkpt lat="44.77221" lon="5.21842">
        <ele>606.1</ele>
        <time>2016-03-26T09:59:08Z</time>
      </trkpt>
      <trkpt lat="44.77239" lon="5.21829">
        <ele>607.9</ele>
        <time>2016-03-26T09:59:20Z</time>
      </trkpt>
      <trkpt lat="44.77254" lon="5.21815">
        <ele>609.6</ele>
        <time>2016-03-26T09:59:32Z</time>
      </trkpt>
      <trkpt lat="44.77269" lon="5.21796">
        <ele>612.1</ele>
        <time>2016-03-26T09:59:45Z</time>
      </trkpt>
      <trkpt lat="44.77284" lon="5.21779">
        <ele>615.4</ele>
        <time>2016-03-26T09:59:59Z</time>
      </trkpt>
      <trkpt lat="44.773" lon="5.21768">
        <ele>617.8</ele>
        <time>2016-03-26T10:00:11Z</time>
      </trkpt>
      <trkpt lat="44.77318" lon="5.21768">
        <ele>619.9</ele>
        <time>2016-03-26T10:00:25Z</time>
      </trkpt>
      <trkpt lat="44.77337" lon="5.21776">
        <ele>622</ele>
        <time>2016-03-26T10:00:39Z</time>
      </trkpt>
      <trkpt lat="44.77356" lon="5.21779">
        <ele>624.6</ele>
        <time>2016-03-26T10:00:54Z</time>
      </trkpt>
      <trkpt lat="44.77373" lon="5.21788">
        <ele>627.2</ele>
        <time>2016-03-26T10:01:08Z</time>
      </trkpt>
      <trkpt lat="44.7739" lon="5.21796">
        <ele>630.2</ele>
        <time>2016-03-26T10:01:22Z</time>
      </trkpt>
      <trkpt lat="44.77408" lon="5.21801">
        <ele>632.3</ele>
        <time>2016-03-26T10:01:34Z</time>
      </trkpt>
      <trkpt lat="44.77427" lon="5.21801">
        <ele>634.6</ele>
        <time>2016-03-26T10:01:48Z</time>
      </trkpt>
      <trkpt lat="44.77445" lon="5.21811">
        <ele>636.8</ele>
        <time>2016-03-26T10:02:01Z</time>
      </trkpt>
      <trkpt lat="44.77463" lon="5.21811">
        <ele>639.7</ele>
        <time>2016-03-26T10:02:15Z</time>
      </trkpt>
      <trkpt lat="44.77481" lon="5.218">
        <ele>641.1</ele>
        <time>2016-03-26T10:02:25Z</time>
      </trkpt>
      <trkpt lat="44.775" lon="5.21799">
        <ele>642.8</ele>
        <time>2016-03-26T10:02:40Z</time>
      </trkpt>
      <trkpt lat="44.77518" lon="5.2181">
        <ele>645.2</ele>
        <time>2016-03-26T10:02:54Z</time>
      </trkpt>
      <trkpt lat="44.77534" lon="5.21821">
        <ele>647.4</ele>
        <time>2016-03-26T10:03:07Z</time>
      </trkpt>
      <trkpt lat="44.77552" lon="5.21828">
        <ele>650.3</ele>
        <time>2016-03-26T10:03:21Z</time>
      </trkpt>
      <trkpt lat="44.7757" lon="5.21829">
        <ele>661.4</ele>
        <time>2016-03-26T10:17:55Z</time>
      </trkpt>
      <trkpt lat="44.77589" lon="5.21825">
        <ele>662.6</ele>
        <time>2016-03-26T10:18:11Z</time>
      </trkpt>
      <trkpt lat="44.77607" lon="5.21823">
        <ele>663.2</ele>
        <time>2016-03-26T10:18:25Z</time>
      </trkpt>
      <trkpt lat="44.77625" lon="5.21819">
        <ele>664.5</ele>
        <time>2016-03-26T10:18:42Z</time>
      </trkpt>
      <trkpt lat="44.77644" lon="5.2182">
        <ele>666</ele>
        <time>2016-03-26T10:18:58Z</time>
      </trkpt>
      <trkpt lat="44.77663" lon="5.21823">
        <ele>668</ele>
        <time>2016-03-26T10:19:12Z</time>
      </trkpt>
      <trkpt lat="44.77677" lon="5.21839">
        <ele>669.7</ele>
        <time>2016-03-26T10:19:27Z</time>
      </trkpt>
      <trkpt lat="44.77694" lon="5.21849">
        <ele>670.5</ele>
        <time>2016-03-26T10:19:38Z</time>
      </trkpt>
      <trkpt lat="44.77712" lon="5.21842">
        <ele>672.1</ele>
        <time>2016-03-26T10:19:51Z</time>
      </trkpt>
      <trkpt lat="44.77722" lon="5.21817">
        <ele>674.3</ele>
        <time>2016-03-26T10:20:03Z</time>
      </trkpt>
      <trkpt lat="44.77726" lon="5.21792">
        <ele>676.7</ele>
        <time>2016-03-26T10:20:15Z</time>
      </trkpt>
      <trkpt lat="44.77716" lon="5.2177">
        <ele>678.6</ele>
        <time>2016-03-26T10:20:24Z</time>
      </trkpt>
      <trkpt lat="44.77713" lon="5.21743">
        <ele>680</ele>
        <time>2016-03-26T10:20:34Z</time>
      </trkpt>
      <trkpt lat="44.7771" lon="5.21718">
        <ele>681.2</ele>
        <time>2016-03-26T10:20:44Z</time>
      </trkpt>
      <trkpt lat="44.77697" lon="5.217">
        <ele>682.3</ele>
        <time>2016-03-26T10:20:54Z</time>
      </trkpt>
      <trkpt lat="44.77682" lon="5.21682">
        <ele>683.3</ele>
        <time>2016-03-26T10:21:04Z</time>
      </trkpt>
      <trkpt lat="44.77677" lon="5.21657">
        <ele>684.2</ele>
        <time>2016-03-26T10:21:15Z</time>
      </trkpt>
      <trkpt lat="44.77696" lon="5.21657">
        <ele>685.8</ele>
        <time>2016-03-26T10:21:26Z</time>
      </trkpt>
      <trkpt lat="44.77716" lon="5.21658">
        <ele>687.1</ele>
        <time>2016-03-26T10:21:36Z</time>
      </trkpt>
      <trkpt lat="44.77734" lon="5.2166">
        <ele>688.8</ele>
        <time>2016-03-26T10:21:47Z</time>
      </trkpt>
      <trkpt lat="44.77752" lon="5.21661">
        <ele>689.8</ele>
        <time>2016-03-26T10:21:57Z</time>
      </trkpt>
      <trkpt lat="44.77771" lon="5.21657">
        <ele>690.6</ele>
        <time>2016-03-26T10:22:07Z</time>
      </trkpt>
      <trkpt lat="44.7779" lon="5.21658">
        <ele>692.1</ele>
        <time>2016-03-26T10:22:17Z</time>
      </trkpt>
      <trkpt lat="44.77809" lon="5.21655">
        <ele>693.9</ele>
        <time>2016-03-26T10:22:28Z</time>
      </trkpt>
      <trkpt lat="44.77828" lon="5.21654">
        <ele>695.6</ele>
        <time>2016-03-26T10:22:38Z</time>
      </trkpt>
      <trkpt lat="44.77847" lon="5.21651">
        <ele>697.4</ele>
        <time>2016-03-26T10:22:49Z</time>
      </trkpt>
      <trkpt lat="44.77866" lon="5.2165">
        <ele>699.6</ele>
        <time>2016-03-26T10:23:00Z</time>
      </trkpt>
      <trkpt lat="44.77885" lon="5.21651">
        <ele>701.2</ele>
        <time>2016-03-26T10:23:13Z</time>
      </trkpt>
      <trkpt lat="44.77904" lon="5.21653">
        <ele>702.7</ele>
        <time>2016-03-26T10:23:25Z</time>
      </trkpt>
      <trkpt lat="44.77922" lon="5.21656">
        <ele>704.3</ele>
        <time>2016-03-26T10:23:36Z</time>
      </trkpt>
      <trkpt lat="44.7794" lon="5.21661">
        <ele>706.1</ele>
        <time>2016-03-26T10:23:47Z</time>
      </trkpt>
      <trkpt lat="44.77959" lon="5.2166">
        <ele>709</ele>
        <time>2016-03-26T10:24:00Z</time>
      </trkpt>
      <trkpt lat="44.77978" lon="5.21659">
        <ele>711.3</ele>
        <time>2016-03-26T10:24:12Z</time>
      </trkpt>
      <trkpt lat="44.77997" lon="5.21661">
        <ele>713.5</ele>
        <time>2016-03-26T10:24:26Z</time>
      </trkpt>
      <trkpt lat="44.78015" lon="5.21663">
        <ele>715.8</ele>
        <time>2016-03-26T10:24:38Z</time>
      </trkpt>
      <trkpt lat="44.78032" lon="5.21674">
        <ele>718.8</ele>
        <time>2016-03-26T10:24:50Z</time>
      </trkpt>
      <trkpt lat="44.78051" lon="5.21669">
        <ele>721.2</ele>
        <time>2016-03-26T10:25:03Z</time>
      </trkpt>
      <trkpt lat="44.78068" lon="5.21658">
        <ele>723.6</ele>
        <time>2016-03-26T10:25:19Z</time>
      </trkpt>
      <trkpt lat="44.78087" lon="5.21661">
        <ele>725.5</ele>
        <time>2016-03-26T10:25:34Z</time>
      </trkpt>
      <trkpt lat="44.78105" lon="5.21668">
        <ele>727.7</ele>
        <time>2016-03-26T10:25:47Z</time>
      </trkpt>
      <trkpt lat="44.78124" lon="5.21661">
        <ele>731.2</ele>
        <time>2016-03-26T10:26:04Z</time>
      </trkpt>
      <trkpt lat="44.78143" lon="5.21663">
        <ele>734.7</ele>
        <time>2016-03-26T10:26:19Z</time>
      </trkpt>
      <trkpt lat="44.78161" lon="5.2167">
        <ele>737.7</ele>
        <time>2016-03-26T10:26:31Z</time>
      </trkpt>
      <trkpt lat="44.78177" lon="5.21661">
        <ele>740.5</ele>
        <time>2016-03-26T10:26:46Z</time>
      </trkpt>
      <trkpt lat="44.78181" lon="5.21634">
        <ele>743.3</ele>
        <time>2016-03-26T10:27:00Z</time>
      </trkpt>
      <trkpt lat="44.78172" lon="5.2161">
        <ele>745.4</ele>
        <time>2016-03-26T10:27:15Z</time>
      </trkpt>
      <trkpt lat="44.78164" lon="5.21585">
        <ele>747</ele>
        <time>2016-03-26T10:27:26Z</time>
      </trkpt>
      <trkpt lat="44.78149" lon="5.2157">
        <ele>747.6</ele>
        <time>2016-03-26T10:27:34Z</time>
      </trkpt>
      <trkpt lat="44.78134" lon="5.21552">
        <ele>747.6</ele>
        <time>2016-03-26T10:27:40Z</time>
      </trkpt>
      <trkpt lat="44.78119" lon="5.21533">
        <ele>747</ele>
        <time>2016-03-26T10:27:46Z</time>
      </trkpt>
      <trkpt lat="44.78105" lon="5.21515">
        <ele>746.4</ele>
        <time>2016-03-26T10:27:53Z</time>
      </trkpt>
      <trkpt lat="44.78091" lon="5.21499">
        <ele>745.7</ele>
        <time>2016-03-26T10:28:01Z</time>
      </trkpt>
      <trkpt lat="44.78075" lon="5.21483">
        <ele>745.2</ele>
        <time>2016-03-26T10:28:08Z</time>
      </trkpt>
      <trkpt lat="44.78056" lon="5.21477">
        <ele>744.6</ele>
        <time>2016-03-26T10:28:15Z</time>
      </trkpt>
      <trkpt lat="44.78039" lon="5.21465">
        <ele>744.3</ele>
        <time>2016-03-26T10:28:22Z</time>
      </trkpt>
      <trkpt lat="44.7802" lon="5.21452">
        <ele>744.3</ele>
        <time>2016-03-26T10:28:29Z</time>
      </trkpt>
      <trkpt lat="44.78004" lon="5.21439">
        <ele>744</ele>
        <time>2016-03-26T10:28:36Z</time>
      </trkpt>
      <trkpt lat="44.77988" lon="5.21425">
        <ele>743.8</ele>
        <time>2016-03-26T10:28:42Z</time>
      </trkpt>
      <trkpt lat="44.77974" lon="5.21409">
        <ele>743.6</ele>
        <time>2016-03-26T10:28:48Z</time>
      </trkpt>
      <trkpt lat="44.77958" lon="5.21395">
        <ele>743.2</ele>
        <time>2016-03-26T10:28:55Z</time>
      </trkpt>
      <trkpt lat="44.77943" lon="5.21379">
        <ele>743</ele>
        <time>2016-03-26T10:29:02Z</time>
      </trkpt>
      <trkpt lat="44.7793" lon="5.21358">
        <ele>743</ele>
        <time>2016-03-26T10:29:10Z</time>
      </trkpt>
      <trkpt lat="44.77917" lon="5.21336">
        <ele>743.5</ele>
        <time>2016-03-26T10:29:18Z</time>
      </trkpt>
      <trkpt lat="44.77902" lon="5.21321">
        <ele>744.6</ele>
        <time>2016-03-26T10:29:26Z</time>
      </trkpt>
      <trkpt lat="44.77883" lon="5.2131">
        <ele>745.3</ele>
        <time>2016-03-26T10:29:33Z</time>
      </trkpt>
      <trkpt lat="44.77862" lon="5.21302">
        <ele>745.2</ele>
        <time>2016-03-26T10:29:40Z</time>
      </trkpt>
      <trkpt lat="44.77844" lon="5.21298">
        <ele>745.6</ele>
        <time>2016-03-26T10:29:46Z</time>
      </trkpt>
      <trkpt lat="44.77825" lon="5.21292">
        <ele>745.8</ele>
        <time>2016-03-26T10:29:52Z</time>
      </trkpt>
      <trkpt lat="44.77805" lon="5.21285">
        <ele>746.4</ele>
        <time>2016-03-26T10:29:59Z</time>
      </trkpt>
      <trkpt lat="44.77786" lon="5.21278">
        <ele>746.1</ele>
        <time>2016-03-26T10:30:05Z</time>
      </trkpt>
      <trkpt lat="44.77768" lon="5.21271">
        <ele>745.8</ele>
        <time>2016-03-26T10:30:12Z</time>
      </trkpt>
      <trkpt lat="44.77748" lon="5.21263">
        <ele>745.9</ele>
        <time>2016-03-26T10:30:19Z</time>
      </trkpt>
      <trkpt lat="44.77729" lon="5.21254">
        <ele>746.1</ele>
        <time>2016-03-26T10:30:26Z</time>
      </trkpt>
      <trkpt lat="44.77708" lon="5.2125">
        <ele>746.6</ele>
        <time>2016-03-26T10:30:33Z</time>
      </trkpt>
      <trkpt lat="44.77727" lon="5.21247">
        <ele>748.3</ele>
        <time>2016-03-26T10:30:48Z</time>
      </trkpt>
      <trkpt lat="44.77747" lon="5.21252">
        <ele>748.9</ele>
        <time>2016-03-26T10:30:58Z</time>
      </trkpt>
      <trkpt lat="44.77765" lon="5.21255">
        <ele>749.9</ele>
        <time>2016-03-26T10:31:08Z</time>
      </trkpt>
      <trkpt lat="44.77784" lon="5.21254">
        <ele>751.7</ele>
        <time>2016-03-26T10:31:19Z</time>
      </trkpt>
      <trkpt lat="44.77803" lon="5.21258">
        <ele>751.8</ele>
        <time>2016-03-26T10:31:29Z</time>
      </trkpt>
      <trkpt lat="44.77822" lon="5.21261">
        <ele>752.7</ele>
        <time>2016-03-26T10:31:39Z</time>
      </trkpt>
      <trkpt lat="44.77841" lon="5.21264">
        <ele>754.2</ele>
        <time>2016-03-26T10:31:48Z</time>
      </trkpt>
      <trkpt lat="44.77859" lon="5.21269">
        <ele>755.5</ele>
        <time>2016-03-26T10:31:57Z</time>
      </trkpt>
      <trkpt lat="44.77878" lon="5.21274">
        <ele>756.8</ele>
        <time>2016-03-26T10:32:07Z</time>
      </trkpt>
      <trkpt lat="44.77896" lon="5.21279">
        <ele>757.6</ele>
        <time>2016-03-26T10:32:16Z</time>
      </trkpt>
      <trkpt lat="44.77914" lon="5.21288">
        <ele>758.2</ele>
        <time>2016-03-26T10:32:26Z</time>
      </trkpt>
      <trkpt lat="44.7793" lon="5.21301">
        <ele>758.7</ele>
        <time>2016-03-26T10:32:35Z</time>
      </trkpt>
      <trkpt lat="44.77944" lon="5.21317">
        <ele>759.4</ele>
        <time>2016-03-26T10:32:44Z</time>
      </trkpt>
      <trkpt lat="44.77957" lon="5.21335">
        <ele>760</ele>
        <time>2016-03-26T10:32:53Z</time>
      </trkpt>
      <trkpt lat="44.77969" lon="5.21355">
        <ele>760.4</ele>
        <time>2016-03-26T10:33:01Z</time>
      </trkpt>
      <trkpt lat="44.77986" lon="5.21369">
        <ele>761.2</ele>
        <time>2016-03-26T10:33:10Z</time>
      </trkpt>
      <trkpt lat="44.78003" lon="5.21384">
        <ele>762.5</ele>
        <time>2016-03-26T10:33:19Z</time>
      </trkpt>
      <trkpt lat="44.78021" lon="5.21397">
        <ele>763.2</ele>
        <time>2016-03-26T10:33:29Z</time>
      </trkpt>
      <trkpt lat="44.78039" lon="5.21404">
        <ele>764.5</ele>
        <time>2016-03-26T10:33:38Z</time>
      </trkpt>
      <trkpt lat="44.78056" lon="5.21415">
        <ele>766</ele>
        <time>2016-03-26T10:33:48Z</time>
      </trkpt>
      <trkpt lat="44.78074" lon="5.21421">
        <ele>767.5</ele>
        <time>2016-03-26T10:33:56Z</time>
      </trkpt>
      <trkpt lat="44.78094" lon="5.21421">
        <ele>769</ele>
        <time>2016-03-26T10:34:06Z</time>
      </trkpt>
      <trkpt lat="44.78111" lon="5.21429">
        <ele>770.6</ele>
        <time>2016-03-26T10:34:18Z</time>
      </trkpt>
      <trkpt lat="44.78127" lon="5.21441">
        <ele>772.1</ele>
        <time>2016-03-26T10:34:28Z</time>
      </trkpt>
      <trkpt lat="44.78142" lon="5.21458">
        <ele>773.6</ele>
        <time>2016-03-26T10:34:40Z</time>
      </trkpt>
      <trkpt lat="44.78159" lon="5.21471">
        <ele>776.4</ele>
        <time>2016-03-26T10:34:54Z</time>
      </trkpt>
      <trkpt lat="44.78176" lon="5.2148">
        <ele>779.3</ele>
        <time>2016-03-26T10:35:05Z</time>
      </trkpt>
      <trkpt lat="44.78193" lon="5.21492">
        <ele>782.1</ele>
        <time>2016-03-26T10:35:18Z</time>
      </trkpt>
      <trkpt lat="44.78212" lon="5.21499">
        <ele>784</ele>
        <time>2016-03-26T10:35:31Z</time>
      </trkpt>
      <trkpt lat="44.78229" lon="5.21512">
        <ele>786.2</ele>
        <time>2016-03-26T10:35:45Z</time>
      </trkpt>
      <trkpt lat="44.78243" lon="5.21528">
        <ele>787.4</ele>
        <time>2016-03-26T10:35:56Z</time>
      </trkpt>
      <trkpt lat="44.78259" lon="5.21543">
        <ele>789.1</ele>
        <time>2016-03-26T10:36:07Z</time>
      </trkpt>
      <trkpt lat="44.78277" lon="5.2155">
        <ele>791.1</ele>
        <time>2016-03-26T10:36:19Z</time>
      </trkpt>
      <trkpt lat="44.78293" lon="5.21564">
        <ele>793.2</ele>
        <time>2016-03-26T10:36:33Z</time>
      </trkpt>
      <trkpt lat="44.78309" lon="5.21577">
        <ele>795.6</ele>
        <time>2016-03-26T10:36:45Z</time>
      </trkpt>
      <trkpt lat="44.78327" lon="5.21589">
        <ele>799.2</ele>
        <time>2016-03-26T10:36:59Z</time>
      </trkpt>
      <trkpt lat="44.78343" lon="5.21602">
        <ele>801.1</ele>
        <time>2016-03-26T10:37:13Z</time>
      </trkpt>
      <trkpt lat="44.78358" lon="5.21618">
        <ele>802.6</ele>
        <time>2016-03-26T10:37:26Z</time>
      </trkpt>
      <trkpt lat="44.7837" lon="5.21637">
        <ele>803.8</ele>
        <time>2016-03-26T10:37:37Z</time>
      </trkpt>
      <trkpt lat="44.78384" lon="5.21655">
        <ele>806.3</ele>
        <time>2016-03-26T10:37:50Z</time>
      </trkpt>
      <trkpt lat="44.78392" lon="5.21679">
        <ele>808.9</ele>
        <time>2016-03-26T10:38:03Z</time>
      </trkpt>
      <trkpt lat="44.78398" lon="5.21655">
        <ele>818.7</ele>
        <time>2016-03-26T10:48:27Z</time>
      </trkpt>
      <trkpt lat="44.78399" lon="5.21655">
        <ele>817.9</ele>
        <time>2016-03-26T10:49:05Z</time>
      </trkpt>
      <trkpt lat="44.78382" lon="5.21643">
        <ele>817.4</ele>
        <time>2016-03-26T10:49:17Z</time>
      </trkpt>
      <trkpt lat="44.78371" lon="5.21621">
        <ele>817.1</ele>
        <time>2016-03-26T10:49:27Z</time>
      </trkpt>
      <trkpt lat="44.78363" lon="5.21598">
        <ele>816</ele>
        <time>2016-03-26T10:49:42Z</time>
      </trkpt>
      <trkpt lat="44.78352" lon="5.21578">
        <ele>815.9</ele>
        <time>2016-03-26T10:49:56Z</time>
      </trkpt>
      <trkpt lat="44.7834" lon="5.2156">
        <ele>817</ele>
        <time>2016-03-26T10:50:23Z</time>
      </trkpt>
      <trkpt lat="44.78327" lon="5.21541">
        <ele>819.4</ele>
        <time>2016-03-26T10:50:48Z</time>
      </trkpt>
      <trkpt lat="44.78317" lon="5.21518">
        <ele>821.4</ele>
        <time>2016-03-26T10:51:17Z</time>
      </trkpt>
      <trkpt lat="44.78306" lon="5.21497">
        <ele>822.2</ele>
        <time>2016-03-26T10:51:27Z</time>
      </trkpt>
      <trkpt lat="44.78297" lon="5.21474">
        <ele>823.8</ele>
        <time>2016-03-26T10:51:39Z</time>
      </trkpt>
      <trkpt lat="44.78289" lon="5.21451">
        <ele>826.3</ele>
        <time>2016-03-26T10:51:49Z</time>
      </trkpt>
      <trkpt lat="44.78279" lon="5.21427">
        <ele>828.4</ele>
        <time>2016-03-26T10:52:00Z</time>
      </trkpt>
      <trkpt lat="44.78266" lon="5.21406">
        <ele>830.1</ele>
        <time>2016-03-26T10:52:11Z</time>
      </trkpt>
      <trkpt lat="44.78252" lon="5.21387">
        <ele>833</ele>
        <time>2016-03-26T10:52:24Z</time>
      </trkpt>
      <trkpt lat="44.7824" lon="5.21367">
        <ele>835.1</ele>
        <time>2016-03-26T10:52:54Z</time>
      </trkpt>
      <trkpt lat="44.78231" lon="5.21345">
        <ele>841.8</ele>
        <time>2016-03-26T10:53:36Z</time>
      </trkpt>
      <trkpt lat="44.78215" lon="5.21326">
        <ele>844.1</ele>
        <time>2016-03-26T10:53:50Z</time>
      </trkpt>
      <trkpt lat="44.782" lon="5.21307">
        <ele>845.2</ele>
        <time>2016-03-26T10:53:59Z</time>
      </trkpt>
      <trkpt lat="44.78185" lon="5.2129">
        <ele>845.6</ele>
        <time>2016-03-26T10:54:05Z</time>
      </trkpt>
      <trkpt lat="44.78169" lon="5.21268">
        <ele>847.4</ele>
        <time>2016-03-26T10:54:12Z</time>
      </trkpt>
      <trkpt lat="44.78158" lon="5.21246">
        <ele>847.8</ele>
        <time>2016-03-26T10:54:17Z</time>
      </trkpt>
      <trkpt lat="44.78147" lon="5.21223">
        <ele>848</ele>
        <time>2016-03-26T10:54:24Z</time>
      </trkpt>
      <trkpt lat="44.78136" lon="5.21203">
        <ele>847.8</ele>
        <time>2016-03-26T10:54:30Z</time>
      </trkpt>
      <trkpt lat="44.78131" lon="5.21176">
        <ele>847.3</ele>
        <time>2016-03-26T10:54:36Z</time>
      </trkpt>
      <trkpt lat="44.78122" lon="5.21151">
        <ele>847.2</ele>
        <time>2016-03-26T10:54:45Z</time>
      </trkpt>
      <trkpt lat="44.78114" lon="5.21127">
        <ele>847.4</ele>
        <time>2016-03-26T10:54:53Z</time>
      </trkpt>
      <trkpt lat="44.78107" lon="5.21103">
        <ele>847.6</ele>
        <time>2016-03-26T10:55:02Z</time>
      </trkpt>
      <trkpt lat="44.78095" lon="5.21083">
        <ele>847.8</ele>
        <time>2016-03-26T10:55:10Z</time>
      </trkpt>
      <trkpt lat="44.78083" lon="5.2106">
        <ele>848.4</ele>
        <time>2016-03-26T10:55:17Z</time>
      </trkpt>
      <trkpt lat="44.78071" lon="5.21039">
        <ele>848.9</ele>
        <time>2016-03-26T10:55:25Z</time>
      </trkpt>
      <trkpt lat="44.78059" lon="5.21017">
        <ele>847.9</ele>
        <time>2016-03-26T10:55:31Z</time>
      </trkpt>
      <trkpt lat="44.78047" lon="5.20995">
        <ele>848</ele>
        <time>2016-03-26T10:55:39Z</time>
      </trkpt>
      <trkpt lat="44.78039" lon="5.20971">
        <ele>848.3</ele>
        <time>2016-03-26T10:55:48Z</time>
      </trkpt>
      <trkpt lat="44.78028" lon="5.2095">
        <ele>849.5</ele>
        <time>2016-03-26T10:55:58Z</time>
      </trkpt>
      <trkpt lat="44.78018" lon="5.20928">
        <ele>850.5</ele>
        <time>2016-03-26T10:56:06Z</time>
      </trkpt>
      <trkpt lat="44.78006" lon="5.20907">
        <ele>850.4</ele>
        <time>2016-03-26T10:56:30Z</time>
      </trkpt>
      <trkpt lat="44.77993" lon="5.20887">
        <ele>850.8</ele>
        <time>2016-03-26T10:56:39Z</time>
      </trkpt>
      <trkpt lat="44.77983" lon="5.20863">
        <ele>851</ele>
        <time>2016-03-26T10:56:48Z</time>
      </trkpt>
      <trkpt lat="44.7797" lon="5.20844">
        <ele>851.2</ele>
        <time>2016-03-26T10:56:58Z</time>
      </trkpt>
      <trkpt lat="44.77958" lon="5.20824">
        <ele>852</ele>
        <time>2016-03-26T10:57:09Z</time>
      </trkpt>
      <trkpt lat="44.77945" lon="5.20803">
        <ele>854.5</ele>
        <time>2016-03-26T10:57:24Z</time>
      </trkpt>
      <trkpt lat="44.77928" lon="5.20795">
        <ele>855.4</ele>
        <time>2016-03-26T10:57:30Z</time>
      </trkpt>
      <trkpt lat="44.77909" lon="5.20782">
        <ele>855.9</ele>
        <time>2016-03-26T10:57:36Z</time>
      </trkpt>
      <trkpt lat="44.7789" lon="5.20771">
        <ele>856.7</ele>
        <time>2016-03-26T10:57:41Z</time>
      </trkpt>
      <trkpt lat="44.77872" lon="5.20764">
        <ele>856.1</ele>
        <time>2016-03-26T10:57:46Z</time>
      </trkpt>
      <trkpt lat="44.77881" lon="5.20736">
        <ele>853.9</ele>
        <time>2016-03-26T10:57:52Z</time>
      </trkpt>
      <trkpt lat="44.77897" lon="5.2072">
        <ele>853.7</ele>
        <time>2016-03-26T10:57:59Z</time>
      </trkpt>
      <trkpt lat="44.77894" lon="5.20691">
        <ele>853.4</ele>
        <time>2016-03-26T10:58:08Z</time>
      </trkpt>
      <trkpt lat="44.77894" lon="5.20663">
        <ele>853.2</ele>
        <time>2016-03-26T10:58:15Z</time>
      </trkpt>
      <trkpt lat="44.77898" lon="5.20635">
        <ele>852.5</ele>
        <time>2016-03-26T10:58:21Z</time>
      </trkpt>
      <trkpt lat="44.77904" lon="5.20605">
        <ele>849.8</ele>
        <time>2016-03-26T10:58:27Z</time>
      </trkpt>
      <trkpt lat="44.77907" lon="5.20579">
        <ele>845.6</ele>
        <time>2016-03-26T10:58:31Z</time>
      </trkpt>
      <trkpt lat="44.77908" lon="5.20548">
        <ele>842.4</ele>
        <time>2016-03-26T10:58:35Z</time>
      </trkpt>
      <trkpt lat="44.77892" lon="5.20531">
        <ele>836.3</ele>
        <time>2016-03-26T11:03:40Z</time>
      </trkpt>
      <trkpt lat="44.77874" lon="5.20517">
        <ele>833.1</ele>
        <time>2016-03-26T11:03:45Z</time>
      </trkpt>
      <trkpt lat="44.77851" lon="5.20509">
        <ele>828.1</ele>
        <time>2016-03-26T11:03:50Z</time>
      </trkpt>
      <trkpt lat="44.77833" lon="5.20503">
        <ele>824.3</ele>
        <time>2016-03-26T11:03:54Z</time>
      </trkpt>
      <trkpt lat="44.77812" lon="5.20496">
        <ele>822.1</ele>
        <time>2016-03-26T11:04:00Z</time>
      </trkpt>
      <trkpt lat="44.77794" lon="5.20489">
        <ele>818.9</ele>
        <time>2016-03-26T11:04:04Z</time>
      </trkpt>
      <trkpt lat="44.77776" lon="5.20482">
        <ele>812.5</ele>
        <time>2016-03-26T11:04:08Z</time>
      </trkpt>
      <trkpt lat="44.77756" lon="5.20475">
        <ele>806.8</ele>
        <time>2016-03-26T11:04:12Z</time>
      </trkpt>
      <trkpt lat="44.77733" lon="5.20472">
        <ele>802.1</ele>
        <time>2016-03-26T11:04:16Z</time>
      </trkpt>
      <trkpt lat="44.77713" lon="5.20468">
        <ele>799.8</ele>
        <time>2016-03-26T11:04:20Z</time>
      </trkpt>
      <trkpt lat="44.77696" lon="5.20458">
        <ele>799</ele>
        <time>2016-03-26T11:04:25Z</time>
      </trkpt>
      <trkpt lat="44.77679" lon="5.2045">
        <ele>794.2</ele>
        <time>2016-03-26T11:04:31Z</time>
      </trkpt>
      <trkpt lat="44.77667" lon="5.20431">
        <ele>789.7</ele>
        <time>2016-03-26T11:04:54Z</time>
      </trkpt>
      <trkpt lat="44.77655" lon="5.20411">
        <ele>789</ele>
        <time>2016-03-26T11:05:24Z</time>
      </trkpt>
      <trkpt lat="44.77639" lon="5.20397">
        <ele>794.3</ele>
        <time>2016-03-26T11:06:01Z</time>
      </trkpt>
      <trkpt lat="44.77622" lon="5.20386">
        <ele>796.5</ele>
        <time>2016-03-26T11:06:21Z</time>
      </trkpt>
      <trkpt lat="44.77604" lon="5.20381">
        <ele>804</ele>
        <time>2016-03-26T11:06:58Z</time>
      </trkpt>
      <trkpt lat="44.77586" lon="5.20376">
        <ele>805.7</ele>
        <time>2016-03-26T11:07:10Z</time>
      </trkpt>
      <trkpt lat="44.77566" lon="5.20376">
        <ele>806.8</ele>
        <time>2016-03-26T11:07:20Z</time>
      </trkpt>
      <trkpt lat="44.77548" lon="5.20378">
        <ele>806.8</ele>
        <time>2016-03-26T11:07:28Z</time>
      </trkpt>
      <trkpt lat="44.77528" lon="5.20381">
        <ele>806.7</ele>
        <time>2016-03-26T11:07:36Z</time>
      </trkpt>
      <trkpt lat="44.77509" lon="5.20383">
        <ele>806.6</ele>
        <time>2016-03-26T11:07:47Z</time>
      </trkpt>
      <trkpt lat="44.7749" lon="5.2039">
        <ele>806.9</ele>
        <time>2016-03-26T11:07:56Z</time>
      </trkpt>
      <trkpt lat="44.77472" lon="5.20396">
        <ele>807.6</ele>
        <time>2016-03-26T11:08:04Z</time>
      </trkpt>
      <trkpt lat="44.77454" lon="5.20405">
        <ele>809</ele>
        <time>2016-03-26T11:08:12Z</time>
      </trkpt>
      <trkpt lat="44.77436" lon="5.20409">
        <ele>810.3</ele>
        <time>2016-03-26T11:08:20Z</time>
      </trkpt>
      <trkpt lat="44.7742" lon="5.2042">
        <ele>811.7</ele>
        <time>2016-03-26T11:08:28Z</time>
      </trkpt>
      <trkpt lat="44.77401" lon="5.20423">
        <ele>812.6</ele>
        <time>2016-03-26T11:08:35Z</time>
      </trkpt>
      <trkpt lat="44.77381" lon="5.20422">
        <ele>814.6</ele>
        <time>2016-03-26T11:08:45Z</time>
      </trkpt>
      <trkpt lat="44.77371" lon="5.20444">
        <ele>816.5</ele>
        <time>2016-03-26T11:08:56Z</time>
      </trkpt>
      <trkpt lat="44.77376" lon="5.20471">
        <ele>818.5</ele>
        <time>2016-03-26T11:09:06Z</time>
      </trkpt>
      <trkpt lat="44.77367" lon="5.20494">
        <ele>822.7</ele>
        <time>2016-03-26T11:09:38Z</time>
      </trkpt>
      <trkpt lat="44.77349" lon="5.20502">
        <ele>826.4</ele>
        <time>2016-03-26T11:10:15Z</time>
      </trkpt>
      <trkpt lat="44.77329" lon="5.205">
        <ele>829.4</ele>
        <time>2016-03-26T11:10:30Z</time>
      </trkpt>
      <trkpt lat="44.77311" lon="5.20511">
        <ele>831.7</ele>
        <time>2016-03-26T11:10:41Z</time>
      </trkpt>
      <trkpt lat="44.77292" lon="5.20516">
        <ele>833.4</ele>
        <time>2016-03-26T11:10:52Z</time>
      </trkpt>
      <trkpt lat="44.77275" lon="5.20526">
        <ele>834.9</ele>
        <time>2016-03-26T11:11:00Z</time>
      </trkpt>
      <trkpt lat="44.77256" lon="5.20528">
        <ele>837.5</ele>
        <time>2016-03-26T11:11:06Z</time>
      </trkpt>
      <trkpt lat="44.77236" lon="5.20533">
        <ele>837.7</ele>
        <time>2016-03-26T11:11:14Z</time>
      </trkpt>
      <trkpt lat="44.77218" lon="5.20543">
        <ele>837.5</ele>
        <time>2016-03-26T11:11:21Z</time>
      </trkpt>
      <trkpt lat="44.77201" lon="5.20556">
        <ele>837.2</ele>
        <time>2016-03-26T11:11:28Z</time>
      </trkpt>
      <trkpt lat="44.77186" lon="5.20571">
        <ele>837.3</ele>
        <time>2016-03-26T11:11:35Z</time>
      </trkpt>
      <trkpt lat="44.7717" lon="5.20585">
        <ele>837.6</ele>
        <time>2016-03-26T11:11:47Z</time>
      </trkpt>
      <trkpt lat="44.77158" lon="5.20606">
        <ele>838</ele>
        <time>2016-03-26T11:11:53Z</time>
      </trkpt>
      <trkpt lat="44.77145" lon="5.20629">
        <ele>838.2</ele>
        <time>2016-03-26T11:12:01Z</time>
      </trkpt>
      <trkpt lat="44.77127" lon="5.20643">
        <ele>838.8</ele>
        <time>2016-03-26T11:12:09Z</time>
      </trkpt>
      <trkpt lat="44.77108" lon="5.20651">
        <ele>841.9</ele>
        <time>2016-03-26T11:12:13Z</time>
      </trkpt>
      <trkpt lat="44.77089" lon="5.20665">
        <ele>842.9</ele>
        <time>2016-03-26T11:12:17Z</time>
      </trkpt>
      <trkpt lat="44.7707" lon="5.20673">
        <ele>843.1</ele>
        <time>2016-03-26T11:12:21Z</time>
      </trkpt>
      <trkpt lat="44.77052" lon="5.20684">
        <ele>842.8</ele>
        <time>2016-03-26T11:12:29Z</time>
      </trkpt>
      <trkpt lat="44.7707" lon="5.20678">
        <ele>838.4</ele>
        <time>2016-03-26T11:13:08Z</time>
      </trkpt>
      <trkpt lat="44.77087" lon="5.2067">
        <ele>838.1</ele>
        <time>2016-03-26T11:13:28Z</time>
      </trkpt>
      <trkpt lat="44.77103" lon="5.20657">
        <ele>839.4</ele>
        <time>2016-03-26T11:13:48Z</time>
      </trkpt>
      <trkpt lat="44.77085" lon="5.20669">
        <ele>843.3</ele>
        <time>2016-03-26T11:16:04Z</time>
      </trkpt>
      <trkpt lat="44.77068" lon="5.20679">
        <ele>842.2</ele>
        <time>2016-03-26T11:16:14Z</time>
      </trkpt>
      <trkpt lat="44.7705" lon="5.20689">
        <ele>841.1</ele>
        <time>2016-03-26T11:16:21Z</time>
      </trkpt>
      <trkpt lat="44.7703" lon="5.20681">
        <ele>839.4</ele>
        <time>2016-03-26T11:16:28Z</time>
      </trkpt>
      <trkpt lat="44.77011" lon="5.20675">
        <ele>837</ele>
        <time>2016-03-26T11:16:34Z</time>
      </trkpt>
      <trkpt lat="44.76988" lon="5.20673">
        <ele>821.8</ele>
        <time>2016-03-26T11:16:39Z</time>
      </trkpt>
      <trkpt lat="44.76966" lon="5.20667">
        <ele>813</ele>
        <time>2016-03-26T11:16:43Z</time>
      </trkpt>
      <trkpt lat="44.76942" lon="5.20661">
        <ele>806.9</ele>
        <time>2016-03-26T11:16:48Z</time>
      </trkpt>
      <trkpt lat="44.76922" lon="5.20659">
        <ele>801.5</ele>
        <time>2016-03-26T11:16:53Z</time>
      </trkpt>
      <trkpt lat="44.76904" lon="5.20651">
        <ele>797.1</ele>
        <time>2016-03-26T11:16:58Z</time>
      </trkpt>
      <trkpt lat="44.76884" lon="5.20643">
        <ele>793.5</ele>
        <time>2016-03-26T11:17:02Z</time>
      </trkpt>
      <trkpt lat="44.76866" lon="5.20634">
        <ele>789.9</ele>
        <time>2016-03-26T11:17:06Z</time>
      </trkpt>
      <trkpt lat="44.76847" lon="5.20634">
        <ele>786.6</ele>
        <time>2016-03-26T11:17:10Z</time>
      </trkpt>
      <trkpt lat="44.76827" lon="5.20632">
        <ele>786.6</ele>
        <time>2016-03-26T11:17:15Z</time>
      </trkpt>
      <trkpt lat="44.76807" lon="5.20636">
        <ele>785.6</ele>
        <time>2016-03-26T11:17:23Z</time>
      </trkpt>
      <trkpt lat="44.76788" lon="5.20636">
        <ele>785.1</ele>
        <time>2016-03-26T11:17:30Z</time>
      </trkpt>
      <trkpt lat="44.76768" lon="5.20637">
        <ele>784.9</ele>
        <time>2016-03-26T11:17:38Z</time>
      </trkpt>
      <trkpt lat="44.76747" lon="5.20637">
        <ele>784.7</ele>
        <time>2016-03-26T11:17:44Z</time>
      </trkpt>
      <trkpt lat="44.76727" lon="5.2063">
        <ele>784.8</ele>
        <time>2016-03-26T11:17:51Z</time>
      </trkpt>
      <trkpt lat="44.76709" lon="5.20617">
        <ele>785</ele>
        <time>2016-03-26T11:18:01Z</time>
      </trkpt>
      <trkpt lat="44.76693" lon="5.206">
        <ele>783.9</ele>
        <time>2016-03-26T11:18:06Z</time>
      </trkpt>
      <trkpt lat="44.76682" lon="5.20576">
        <ele>783.4</ele>
        <time>2016-03-26T11:18:13Z</time>
      </trkpt>
      <trkpt lat="44.7667" lon="5.20557">
        <ele>783.3</ele>
        <time>2016-03-26T11:18:22Z</time>
      </trkpt>
      <trkpt lat="44.76657" lon="5.20534">
        <ele>783</ele>
        <time>2016-03-26T11:18:29Z</time>
      </trkpt>
      <trkpt lat="44.76641" lon="5.20518">
        <ele>783.1</ele>
        <time>2016-03-26T11:18:39Z</time>
      </trkpt>
      <trkpt lat="44.76626" lon="5.20506">
        <ele>784</ele>
        <time>2016-03-26T11:18:48Z</time>
      </trkpt>
      <trkpt lat="44.76617" lon="5.20484">
        <ele>784.7</ele>
        <time>2016-03-26T11:18:59Z</time>
      </trkpt>
      <trkpt lat="44.76611" lon="5.20454">
        <ele>788.1</ele>
        <time>2016-03-26T11:19:05Z</time>
      </trkpt>
      <trkpt lat="44.766" lon="5.20433">
        <ele>788</ele>
        <time>2016-03-26T11:19:12Z</time>
      </trkpt>
      <trkpt lat="44.76584" lon="5.20414">
        <ele>788</ele>
        <time>2016-03-26T11:19:19Z</time>
      </trkpt>
      <trkpt lat="44.76566" lon="5.20407">
        <ele>788.2</ele>
        <time>2016-03-26T11:19:23Z</time>
      </trkpt>
      <trkpt lat="44.76547" lon="5.20402">
        <ele>787.9</ele>
        <time>2016-03-26T11:19:27Z</time>
      </trkpt>
      <trkpt lat="44.76526" lon="5.20406">
        <ele>786.3</ele>
        <time>2016-03-26T11:19:33Z</time>
      </trkpt>
      <trkpt lat="44.76509" lon="5.20418">
        <ele>781.3</ele>
        <time>2016-03-26T11:19:39Z</time>
      </trkpt>
      <trkpt lat="44.76494" lon="5.2044">
        <ele>777</ele>
        <time>2016-03-26T11:19:45Z</time>
      </trkpt>
      <trkpt lat="44.76475" lon="5.20452">
        <ele>765.2</ele>
        <time>2016-03-26T11:19:51Z</time>
      </trkpt>
      <trkpt lat="44.76458" lon="5.20466">
        <ele>756</ele>
        <time>2016-03-26T11:19:55Z</time>
      </trkpt>
      <trkpt lat="44.76437" lon="5.20481">
        <ele>748.4</ele>
        <time>2016-03-26T11:19:59Z</time>
      </trkpt>
      <trkpt lat="44.76416" lon="5.20492">
        <ele>743.9</ele>
        <time>2016-03-26T11:20:03Z</time>
      </trkpt>
      <trkpt lat="44.76396" lon="5.20503">
        <ele>738.8</ele>
        <time>2016-03-26T11:20:07Z</time>
      </trkpt>
      <trkpt lat="44.76377" lon="5.20507">
        <ele>737.3</ele>
        <time>2016-03-26T11:20:11Z</time>
      </trkpt>
      <trkpt lat="44.76358" lon="5.2051">
        <ele>736.8</ele>
        <time>2016-03-26T11:20:19Z</time>
      </trkpt>
      <trkpt lat="44.76336" lon="5.20508">
        <ele>736.8</ele>
        <time>2016-03-26T11:20:26Z</time>
      </trkpt>
      <trkpt lat="44.76316" lon="5.20503">
        <ele>736.9</ele>
        <time>2016-03-26T11:20:33Z</time>
      </trkpt>
      <trkpt lat="44.76295" lon="5.20496">
        <ele>736.7</ele>
        <time>2016-03-26T11:20:39Z</time>
      </trkpt>
      <trkpt lat="44.76275" lon="5.20493">
        <ele>736.6</ele>
        <time>2016-03-26T11:20:46Z</time>
      </trkpt>
      <trkpt lat="44.76256" lon="5.2049">
        <ele>736.8</ele>
        <time>2016-03-26T11:20:54Z</time>
      </trkpt>
      <trkpt lat="44.76237" lon="5.20484">
        <ele>736.8</ele>
        <time>2016-03-26T11:21:03Z</time>
      </trkpt>
      <trkpt lat="44.76218" lon="5.2048">
        <ele>738</ele>
        <time>2016-03-26T11:21:13Z</time>
      </trkpt>
      <trkpt lat="44.76199" lon="5.20476">
        <ele>739.5</ele>
        <time>2016-03-26T11:21:22Z</time>
      </trkpt>
      <trkpt lat="44.76179" lon="5.20473">
        <ele>741.5</ele>
        <time>2016-03-26T11:22:27Z</time>
      </trkpt>
      <trkpt lat="44.7616" lon="5.20469">
        <ele>742.3</ele>
        <time>2016-03-26T11:22:37Z</time>
      </trkpt>
      <trkpt lat="44.76141" lon="5.20464">
        <ele>743.3</ele>
        <time>2016-03-26T11:22:46Z</time>
      </trkpt>
      <trkpt lat="44.76121" lon="5.20454">
        <ele>744.6</ele>
        <time>2016-03-26T11:22:55Z</time>
      </trkpt>
      <trkpt lat="44.76102" lon="5.20437">
        <ele>747.5</ele>
        <time>2016-03-26T11:23:00Z</time>
      </trkpt>
      <trkpt lat="44.76084" lon="5.20422">
        <ele>747.5</ele>
        <time>2016-03-26T11:23:04Z</time>
      </trkpt>
      <trkpt lat="44.76066" lon="5.2042">
        <ele>747</ele>
        <time>2016-03-26T11:23:11Z</time>
      </trkpt>
      <trkpt lat="44.76048" lon="5.20415">
        <ele>742.3</ele>
        <time>2016-03-26T11:23:15Z</time>
      </trkpt>
      <trkpt lat="44.76029" lon="5.20407">
        <ele>737.8</ele>
        <time>2016-03-26T11:23:18Z</time>
      </trkpt>
      <trkpt lat="44.76011" lon="5.20397">
        <ele>735.9</ele>
        <time>2016-03-26T11:23:22Z</time>
      </trkpt>
      <trkpt lat="44.75993" lon="5.20392">
        <ele>735.6</ele>
        <time>2016-03-26T11:23:27Z</time>
      </trkpt>
      <trkpt lat="44.75974" lon="5.20382">
        <ele>735.5</ele>
        <time>2016-03-26T11:23:33Z</time>
      </trkpt>
      <trkpt lat="44.75955" lon="5.20374">
        <ele>735.6</ele>
        <time>2016-03-26T11:23:41Z</time>
      </trkpt>
      <trkpt lat="44.75939" lon="5.20356">
        <ele>735.8</ele>
        <time>2016-03-26T11:23:48Z</time>
      </trkpt>
      <trkpt lat="44.75923" lon="5.20343">
        <ele>735.8</ele>
        <time>2016-03-26T11:23:54Z</time>
      </trkpt>
      <trkpt lat="44.75906" lon="5.20332">
        <ele>736.4</ele>
        <time>2016-03-26T11:24:01Z</time>
      </trkpt>
      <trkpt lat="44.75885" lon="5.20325">
        <ele>737.4</ele>
        <time>2016-03-26T11:24:06Z</time>
      </trkpt>
      <trkpt lat="44.75867" lon="5.20322">
        <ele>737.5</ele>
        <time>2016-03-26T11:24:13Z</time>
      </trkpt>
      <trkpt lat="44.75849" lon="5.20325">
        <ele>737.3</ele>
        <time>2016-03-26T11:24:19Z</time>
      </trkpt>
      <trkpt lat="44.75829" lon="5.20328">
        <ele>737.3</ele>
        <time>2016-03-26T11:24:25Z</time>
      </trkpt>
      <trkpt lat="44.75809" lon="5.20336">
        <ele>737.8</ele>
        <time>2016-03-26T11:24:30Z</time>
      </trkpt>
      <trkpt lat="44.75791" lon="5.20348">
        <ele>734.9</ele>
        <time>2016-03-26T11:24:35Z</time>
      </trkpt>
      <trkpt lat="44.75777" lon="5.20364">
        <ele>734.5</ele>
        <time>2016-03-26T11:24:40Z</time>
      </trkpt>
      <trkpt lat="44.75762" lon="5.20381">
        <ele>729.4</ele>
        <time>2016-03-26T11:24:44Z</time>
      </trkpt>
      <trkpt lat="44.75749" lon="5.204">
        <ele>723.1</ele>
        <time>2016-03-26T11:24:47Z</time>
      </trkpt>
      <trkpt lat="44.75732" lon="5.20409">
        <ele>720.2</ele>
        <time>2016-03-26T11:24:53Z</time>
      </trkpt>
      <trkpt lat="44.75714" lon="5.20418">
        <ele>719.5</ele>
        <time>2016-03-26T11:24:59Z</time>
      </trkpt>
      <trkpt lat="44.75694" lon="5.20422">
        <ele>718.8</ele>
        <time>2016-03-26T11:25:05Z</time>
      </trkpt>
      <trkpt lat="44.75674" lon="5.20421">
        <ele>718.5</ele>
        <time>2016-03-26T11:25:11Z</time>
      </trkpt>
      <trkpt lat="44.75655" lon="5.20417">
        <ele>717.9</ele>
        <time>2016-03-26T11:25:20Z</time>
      </trkpt>
      <trkpt lat="44.75639" lon="5.20403">
        <ele>717.9</ele>
        <time>2016-03-26T11:25:27Z</time>
      </trkpt>
      <trkpt lat="44.75624" lon="5.20381">
        <ele>717.8</ele>
        <time>2016-03-26T11:25:37Z</time>
      </trkpt>
      <trkpt lat="44.75613" lon="5.20357">
        <ele>717.8</ele>
        <time>2016-03-26T11:25:42Z</time>
      </trkpt>
      <trkpt lat="44.75605" lon="5.20332">
        <ele>716.3</ele>
        <time>2016-03-26T11:25:46Z</time>
      </trkpt>
      <trkpt lat="44.75595" lon="5.20306">
        <ele>714.2</ele>
        <time>2016-03-26T11:25:51Z</time>
      </trkpt>
      <trkpt lat="44.75587" lon="5.20283">
        <ele>713.8</ele>
        <time>2016-03-26T11:25:59Z</time>
      </trkpt>
      <trkpt lat="44.75577" lon="5.2026">
        <ele>714</ele>
        <time>2016-03-26T11:26:12Z</time>
      </trkpt>
      <trkpt lat="44.75563" lon="5.20242">
        <ele>713.6</ele>
        <time>2016-03-26T11:26:23Z</time>
      </trkpt>
      <trkpt lat="44.75547" lon="5.20229">
        <ele>714</ele>
        <time>2016-03-26T11:26:35Z</time>
      </trkpt>
      <trkpt lat="44.75531" lon="5.20216">
        <ele>715.3</ele>
        <time>2016-03-26T11:26:47Z</time>
      </trkpt>
      <trkpt lat="44.75515" lon="5.20202">
        <ele>717.1</ele>
        <time>2016-03-26T11:26:59Z</time>
      </trkpt>
      <trkpt lat="44.75499" lon="5.20188">
        <ele>719.1</ele>
        <time>2016-03-26T11:27:11Z</time>
      </trkpt>
      <trkpt lat="44.75488" lon="5.20166">
        <ele>720.8</ele>
        <time>2016-03-26T11:27:21Z</time>
      </trkpt>
      <trkpt lat="44.75474" lon="5.20147">
        <ele>722.3</ele>
        <time>2016-03-26T11:27:27Z</time>
      </trkpt>
      <trkpt lat="44.75472" lon="5.2012">
        <ele>723.5</ele>
        <time>2016-03-26T11:27:31Z</time>
      </trkpt>
      <trkpt lat="44.75466" lon="5.20091">
        <ele>723.2</ele>
        <time>2016-03-26T11:27:35Z</time>
      </trkpt>
      <trkpt lat="44.75452" lon="5.20073">
        <ele>719.8</ele>
        <time>2016-03-26T11:27:39Z</time>
      </trkpt>
      <trkpt lat="44.75435" lon="5.20056">
        <ele>714.9</ele>
        <time>2016-03-26T11:27:43Z</time>
      </trkpt>
      <trkpt lat="44.75422" lon="5.20033">
        <ele>713.1</ele>
        <time>2016-03-26T11:27:48Z</time>
      </trkpt>
      <trkpt lat="44.75405" lon="5.20023">
        <ele>712.7</ele>
        <time>2016-03-26T11:27:56Z</time>
      </trkpt>
      <trkpt lat="44.75402" lon="5.19997">
        <ele>710.8</ele>
        <time>2016-03-26T11:28:08Z</time>
      </trkpt>
      <trkpt lat="44.754" lon="5.19966">
        <ele>708</ele>
        <time>2016-03-26T11:28:13Z</time>
      </trkpt>
      <trkpt lat="44.75398" lon="5.19939">
        <ele>706.7</ele>
        <time>2016-03-26T11:28:16Z</time>
      </trkpt>
      <trkpt lat="44.75394" lon="5.19914">
        <ele>705.2</ele>
        <time>2016-03-26T11:28:20Z</time>
      </trkpt>
      <trkpt lat="44.75394" lon="5.19888">
        <ele>702.4</ele>
        <time>2016-03-26T11:28:24Z</time>
      </trkpt>
      <trkpt lat="44.75393" lon="5.19862">
        <ele>690.1</ele>
        <time>2016-03-26T11:30:46Z</time>
      </trkpt>
      <trkpt lat="44.75404" lon="5.19837">
        <ele>691</ele>
        <time>2016-03-26T11:50:21Z</time>
      </trkpt>
      <trkpt lat="44.75416" lon="5.19812">
        <ele>689.7</ele>
        <time>2016-03-26T11:50:25Z</time>
      </trkpt>
      <trkpt lat="44.75428" lon="5.19787">
        <ele>686.8</ele>
        <time>2016-03-26T11:50:29Z</time>
      </trkpt>
      <trkpt lat="44.75441" lon="5.19762">
        <ele>684.7</ele>
        <time>2016-03-26T11:50:33Z</time>
      </trkpt>
      <trkpt lat="44.75455" lon="5.19739">
        <ele>680.6</ele>
        <time>2016-03-26T11:50:37Z</time>
      </trkpt>
      <trkpt lat="44.75472" lon="5.19721">
        <ele>679.3</ele>
        <time>2016-03-26T11:50:41Z</time>
      </trkpt>
      <trkpt lat="44.7549" lon="5.19706">
        <ele>676.8</ele>
        <time>2016-03-26T11:50:45Z</time>
      </trkpt>
      <trkpt lat="44.75508" lon="5.19694">
        <ele>675.7</ele>
        <time>2016-03-26T11:50:50Z</time>
      </trkpt>
      <trkpt lat="44.75526" lon="5.19681">
        <ele>672.8</ele>
        <time>2016-03-26T11:50:54Z</time>
      </trkpt>
      <trkpt lat="44.75522" lon="5.19709">
        <ele>668.3</ele>
        <time>2016-03-26T11:51:08Z</time>
      </trkpt>
      <trkpt lat="44.7551" lon="5.19727">
        <ele>665.2</ele>
        <time>2016-03-26T11:51:12Z</time>
      </trkpt>
      <trkpt lat="44.75496" lon="5.19751">
        <ele>662.4</ele>
        <time>2016-03-26T11:51:16Z</time>
      </trkpt>
      <trkpt lat="44.75487" lon="5.19779">
        <ele>661</ele>
        <time>2016-03-26T11:51:20Z</time>
      </trkpt>
      <trkpt lat="44.75485" lon="5.19809">
        <ele>659.8</ele>
        <time>2016-03-26T11:51:25Z</time>
      </trkpt>
      <trkpt lat="44.75483" lon="5.19838">
        <ele>657.5</ele>
        <time>2016-03-26T11:51:30Z</time>
      </trkpt>
      <trkpt lat="44.75489" lon="5.19866">
        <ele>655</ele>
        <time>2016-03-26T11:51:35Z</time>
      </trkpt>
      <trkpt lat="44.75505" lon="5.1988">
        <ele>651.9</ele>
        <time>2016-03-26T11:51:40Z</time>
      </trkpt>
      <trkpt lat="44.75524" lon="5.19886">
        <ele>649.2</ele>
        <time>2016-03-26T11:51:44Z</time>
      </trkpt>
      <trkpt lat="44.75545" lon="5.19894">
        <ele>648</ele>
        <time>2016-03-26T11:51:48Z</time>
      </trkpt>
      <trkpt lat="44.75535" lon="5.19872">
        <ele>645.4</ele>
        <time>2016-03-26T11:52:09Z</time>
      </trkpt>
      <trkpt lat="44.75521" lon="5.19855">
        <ele>644.5</ele>
        <time>2016-03-26T11:52:16Z</time>
      </trkpt>
      <trkpt lat="44.75521" lon="5.19829">
        <ele>643.6</ele>
        <time>2016-03-26T11:52:23Z</time>
      </trkpt>
      <trkpt lat="44.7553" lon="5.19804">
        <ele>643</ele>
        <time>2016-03-26T11:52:29Z</time>
      </trkpt>
      <trkpt lat="44.75542" lon="5.19783">
        <ele>641.4</ele>
        <time>2016-03-26T11:52:36Z</time>
      </trkpt>
      <trkpt lat="44.75559" lon="5.19767">
        <ele>641.3</ele>
        <time>2016-03-26T11:52:42Z</time>
      </trkpt>
      <trkpt lat="44.75576" lon="5.19749">
        <ele>641.2</ele>
        <time>2016-03-26T11:52:48Z</time>
      </trkpt>
      <trkpt lat="44.7559" lon="5.19727">
        <ele>640.3</ele>
        <time>2016-03-26T11:52:54Z</time>
      </trkpt>
      <trkpt lat="44.756" lon="5.19704">
        <ele>638.2</ele>
        <time>2016-03-26T11:53:00Z</time>
      </trkpt>
      <trkpt lat="44.75611" lon="5.19683">
        <ele>637.4</ele>
        <time>2016-03-26T11:53:05Z</time>
      </trkpt>
      <trkpt lat="44.75623" lon="5.19663">
        <ele>637.5</ele>
        <time>2016-03-26T11:53:10Z</time>
      </trkpt>
      <trkpt lat="44.75635" lon="5.19645">
        <ele>637.6</ele>
        <time>2016-03-26T11:53:16Z</time>
      </trkpt>
      <trkpt lat="44.75648" lon="5.19624">
        <ele>637.7</ele>
        <time>2016-03-26T11:53:21Z</time>
      </trkpt>
      <trkpt lat="44.75662" lon="5.19606">
        <ele>637.7</ele>
        <time>2016-03-26T11:53:27Z</time>
      </trkpt>
      <trkpt lat="44.75677" lon="5.19586">
        <ele>637.7</ele>
        <time>2016-03-26T11:53:33Z</time>
      </trkpt>
      <trkpt lat="44.75692" lon="5.19566">
        <ele>637.7</ele>
        <time>2016-03-26T11:53:38Z</time>
      </trkpt>
      <trkpt lat="44.75709" lon="5.19548">
        <ele>637.8</ele>
        <time>2016-03-26T11:53:44Z</time>
      </trkpt>
      <trkpt lat="44.75718" lon="5.19526">
        <ele>638.1</ele>
        <time>2016-03-26T11:53:49Z</time>
      </trkpt>
      <trkpt lat="44.75719" lon="5.19497">
        <ele>638.8</ele>
        <time>2016-03-26T11:53:54Z</time>
      </trkpt>
      <trkpt lat="44.757" lon="5.19478">
        <ele>638.8</ele>
        <time>2016-03-26T11:53:59Z</time>
      </trkpt>
      <trkpt lat="44.75682" lon="5.19466">
        <ele>639.6</ele>
        <time>2016-03-26T11:54:03Z</time>
      </trkpt>
      <trkpt lat="44.75665" lon="5.19449">
        <ele>642.6</ele>
        <time>2016-03-26T11:54:08Z</time>
      </trkpt>
      <trkpt lat="44.75662" lon="5.19419">
        <ele>643.1</ele>
        <time>2016-03-26T11:54:13Z</time>
      </trkpt>
      <trkpt lat="44.75655" lon="5.19392">
        <ele>643</ele>
        <time>2016-03-26T11:54:19Z</time>
      </trkpt>
      <trkpt lat="44.75643" lon="5.19371">
        <ele>642.5</ele>
        <time>2016-03-26T11:54:24Z</time>
      </trkpt>
      <trkpt lat="44.75638" lon="5.19346">
        <ele>640.7</ele>
        <time>2016-03-26T11:54:29Z</time>
      </trkpt>
      <trkpt lat="44.75632" lon="5.19318">
        <ele>640.2</ele>
        <time>2016-03-26T11:54:35Z</time>
      </trkpt>
      <trkpt lat="44.75612" lon="5.19327">
        <ele>639.7</ele>
        <time>2016-03-26T11:54:42Z</time>
      </trkpt>
      <trkpt lat="44.75593" lon="5.19328">
        <ele>638.8</ele>
        <time>2016-03-26T11:54:47Z</time>
      </trkpt>
      <trkpt lat="44.75573" lon="5.19322">
        <ele>638.5</ele>
        <time>2016-03-26T11:54:52Z</time>
      </trkpt>
      <trkpt lat="44.75554" lon="5.19337">
        <ele>638.8</ele>
        <time>2016-03-26T11:54:59Z</time>
      </trkpt>
      <trkpt lat="44.75544" lon="5.19359">
        <ele>639.3</ele>
        <time>2016-03-26T11:55:05Z</time>
      </trkpt>
      <trkpt lat="44.75531" lon="5.19379">
        <ele>639.2</ele>
        <time>2016-03-26T11:55:09Z</time>
      </trkpt>
      <trkpt lat="44.7552" lon="5.19399">
        <ele>638.6</ele>
        <time>2016-03-26T11:55:13Z</time>
      </trkpt>
      <trkpt lat="44.75502" lon="5.19414">
        <ele>637.3</ele>
        <time>2016-03-26T11:55:19Z</time>
      </trkpt>
      <trkpt lat="44.75484" lon="5.19424">
        <ele>637.6</ele>
        <time>2016-03-26T11:55:25Z</time>
      </trkpt>
      <trkpt lat="44.75466" lon="5.1942">
        <ele>637.9</ele>
        <time>2016-03-26T11:55:33Z</time>
      </trkpt>
      <trkpt lat="44.75446" lon="5.19418">
        <ele>637.8</ele>
        <time>2016-03-26T11:55:41Z</time>
      </trkpt>
      <trkpt lat="44.75427" lon="5.19427">
        <ele>637.9</ele>
        <time>2016-03-26T11:55:46Z</time>
      </trkpt>
      <trkpt lat="44.75411" lon="5.19414">
        <ele>637.5</ele>
        <time>2016-03-26T11:56:03Z</time>
      </trkpt>
      <trkpt lat="44.75392" lon="5.19406">
        <ele>637.7</ele>
        <time>2016-03-26T11:56:10Z</time>
      </trkpt>
      <trkpt lat="44.75373" lon="5.19398">
        <ele>637.9</ele>
        <time>2016-03-26T11:56:17Z</time>
      </trkpt>
      <trkpt lat="44.75377" lon="5.19371">
        <ele>638.2</ele>
        <time>2016-03-26T11:56:28Z</time>
      </trkpt>
      <trkpt lat="44.75381" lon="5.19346">
        <ele>638.2</ele>
        <time>2016-03-26T11:56:34Z</time>
      </trkpt>
      <trkpt lat="44.75386" lon="5.19318">
        <ele>638.3</ele>
        <time>2016-03-26T11:56:40Z</time>
      </trkpt>
      <trkpt lat="44.75393" lon="5.19293">
        <ele>638.3</ele>
        <time>2016-03-26T11:56:45Z</time>
      </trkpt>
      <trkpt lat="44.75392" lon="5.19265">
        <ele>637.5</ele>
        <time>2016-03-26T11:57:02Z</time>
      </trkpt>
      <trkpt lat="44.75393" lon="5.19236">
        <ele>637.6</ele>
        <time>2016-03-26T11:57:08Z</time>
      </trkpt>
      <trkpt lat="44.75399" lon="5.19212">
        <ele>637.7</ele>
        <time>2016-03-26T11:57:13Z</time>
      </trkpt>
      <trkpt lat="44.75404" lon="5.19186">
        <ele>637.8</ele>
        <time>2016-03-26T11:57:18Z</time>
      </trkpt>
      <trkpt lat="44.75405" lon="5.19154">
        <ele>638.1</ele>
        <time>2016-03-26T11:57:25Z</time>
      </trkpt>
      <trkpt lat="44.75396" lon="5.19128">
        <ele>638.1</ele>
        <time>2016-03-26T11:57:30Z</time>
      </trkpt>
      <trkpt lat="44.75382" lon="5.19112">
        <ele>637.7</ele>
        <time>2016-03-26T11:57:35Z</time>
      </trkpt>
      <trkpt lat="44.75367" lon="5.19092">
        <ele>638.2</ele>
        <time>2016-03-26T11:57:40Z</time>
      </trkpt>
      <trkpt lat="44.75354" lon="5.19072">
        <ele>638.5</ele>
        <time>2016-03-26T11:57:45Z</time>
      </trkpt>
      <trkpt lat="44.75348" lon="5.19047">
        <ele>638.4</ele>
        <time>2016-03-26T11:57:50Z</time>
      </trkpt>
      <trkpt lat="44.75348" lon="5.1902">
        <ele>638.2</ele>
        <time>2016-03-26T11:57:56Z</time>
      </trkpt>
      <trkpt lat="44.75358" lon="5.18993">
        <ele>638.1</ele>
        <time>2016-03-26T11:58:01Z</time>
      </trkpt>
      <trkpt lat="44.75373" lon="5.18976">
        <ele>636.9</ele>
        <time>2016-03-26T11:58:07Z</time>
      </trkpt>
      <trkpt lat="44.75389" lon="5.18963">
        <ele>636.3</ele>
        <time>2016-03-26T11:58:12Z</time>
      </trkpt>
      <trkpt lat="44.75406" lon="5.18947">
        <ele>635</ele>
        <time>2016-03-26T11:58:18Z</time>
      </trkpt>
      <trkpt lat="44.75422" lon="5.18933">
        <ele>634.9</ele>
        <time>2016-03-26T11:58:23Z</time>
      </trkpt>
      <trkpt lat="44.7544" lon="5.18922">
        <ele>634.7</ele>
        <time>2016-03-26T11:58:29Z</time>
      </trkpt>
      <trkpt lat="44.75456" lon="5.18909">
        <ele>634.6</ele>
        <time>2016-03-26T11:58:34Z</time>
      </trkpt>
      <trkpt lat="44.75475" lon="5.18894">
        <ele>635</ele>
        <time>2016-03-26T11:58:40Z</time>
      </trkpt>
      <trkpt lat="44.7549" lon="5.1888">
        <ele>634.1</ele>
        <time>2016-03-26T11:58:53Z</time>
      </trkpt>
      <trkpt lat="44.75505" lon="5.18866">
        <ele>632.7</ele>
        <time>2016-03-26T11:59:16Z</time>
      </trkpt>
      <trkpt lat="44.7552" lon="5.18851">
        <ele>631.5</ele>
        <time>2016-03-26T11:59:50Z</time>
      </trkpt>
      <trkpt lat="44.75537" lon="5.18834">
        <ele>631.5</ele>
        <time>2016-03-26T11:59:57Z</time>
      </trkpt>
      <trkpt lat="44.75552" lon="5.1882">
        <ele>631.6</ele>
        <time>2016-03-26T12:00:02Z</time>
      </trkpt>
      <trkpt lat="44.75568" lon="5.18802">
        <ele>631.8</ele>
        <time>2016-03-26T12:00:08Z</time>
      </trkpt>
      <trkpt lat="44.75581" lon="5.18785">
        <ele>632.1</ele>
        <time>2016-03-26T12:00:12Z</time>
      </trkpt>
      <trkpt lat="44.75596" lon="5.1877">
        <ele>631.5</ele>
        <time>2016-03-26T12:00:16Z</time>
      </trkpt>
      <trkpt lat="44.75613" lon="5.18751">
        <ele>630.1</ele>
        <time>2016-03-26T12:00:21Z</time>
      </trkpt>
      <trkpt lat="44.75617" lon="5.18726">
        <ele>630.4</ele>
        <time>2016-03-26T12:00:26Z</time>
      </trkpt>
      <trkpt lat="44.756" lon="5.18704">
        <ele>633.7</ele>
        <time>2016-03-26T12:00:31Z</time>
      </trkpt>
      <trkpt lat="44.75586" lon="5.18686">
        <ele>633.3</ele>
        <time>2016-03-26T12:00:36Z</time>
      </trkpt>
      <trkpt lat="44.75569" lon="5.18668">
        <ele>632.2</ele>
        <time>2016-03-26T12:00:40Z</time>
      </trkpt>
      <trkpt lat="44.75555" lon="5.18649">
        <ele>631.1</ele>
        <time>2016-03-26T12:00:44Z</time>
      </trkpt>
      <trkpt lat="44.75538" lon="5.1863">
        <ele>630.8</ele>
        <time>2016-03-26T12:00:49Z</time>
      </trkpt>
      <trkpt lat="44.75518" lon="5.18613">
        <ele>630.6</ele>
        <time>2016-03-26T12:00:54Z</time>
      </trkpt>
      <trkpt lat="44.75503" lon="5.18598">
        <ele>630.9</ele>
        <time>2016-03-26T12:00:58Z</time>
      </trkpt>
      <trkpt lat="44.75488" lon="5.18583">
        <ele>629.8</ele>
        <time>2016-03-26T12:01:02Z</time>
      </trkpt>
      <trkpt lat="44.75477" lon="5.18563">
        <ele>627.9</ele>
        <time>2016-03-26T12:01:06Z</time>
      </trkpt>
      <trkpt lat="44.75466" lon="5.18542">
        <ele>627.6</ele>
        <time>2016-03-26T12:01:10Z</time>
      </trkpt>
      <trkpt lat="44.75471" lon="5.18516">
        <ele>626.9</ele>
        <time>2016-03-26T12:01:17Z</time>
      </trkpt>
      <trkpt lat="44.75485" lon="5.18499">
        <ele>626.6</ele>
        <time>2016-03-26T12:01:23Z</time>
      </trkpt>
      <trkpt lat="44.75499" lon="5.1848">
        <ele>626.5</ele>
        <time>2016-03-26T12:01:28Z</time>
      </trkpt>
      <trkpt lat="44.75514" lon="5.18463">
        <ele>626.1</ele>
        <time>2016-03-26T12:01:31Z</time>
      </trkpt>
      <trkpt lat="44.75529" lon="5.18448">
        <ele>624.6</ele>
        <time>2016-03-26T12:01:34Z</time>
      </trkpt>
      <trkpt lat="44.75548" lon="5.18432">
        <ele>623</ele>
        <time>2016-03-26T12:01:38Z</time>
      </trkpt>
      <trkpt lat="44.75565" lon="5.18418">
        <ele>622</ele>
        <time>2016-03-26T12:01:43Z</time>
      </trkpt>
      <trkpt lat="44.75583" lon="5.18402">
        <ele>621</ele>
        <time>2016-03-26T12:01:48Z</time>
      </trkpt>
      <trkpt lat="44.75602" lon="5.18393">
        <ele>620.4</ele>
        <time>2016-03-26T12:01:53Z</time>
      </trkpt>
      <trkpt lat="44.75615" lon="5.1837">
        <ele>620.8</ele>
        <time>2016-03-26T12:01:58Z</time>
      </trkpt>
      <trkpt lat="44.75628" lon="5.1835">
        <ele>618.7</ele>
        <time>2016-03-26T12:02:02Z</time>
      </trkpt>
      <trkpt lat="44.75638" lon="5.18327">
        <ele>617.4</ele>
        <time>2016-03-26T12:02:06Z</time>
      </trkpt>
      <trkpt lat="44.75646" lon="5.18298">
        <ele>615.3</ele>
        <time>2016-03-26T12:02:11Z</time>
      </trkpt>
      <trkpt lat="44.7565" lon="5.18273">
        <ele>613.2</ele>
        <time>2016-03-26T12:02:15Z</time>
      </trkpt>
      <trkpt lat="44.75654" lon="5.18245">
        <ele>611.2</ele>
        <time>2016-03-26T12:02:19Z</time>
      </trkpt>
      <trkpt lat="44.75658" lon="5.18214">
        <ele>612.2</ele>
        <time>2016-03-26T12:02:23Z</time>
      </trkpt>
      <trkpt lat="44.75661" lon="5.18184">
        <ele>612</ele>
        <time>2016-03-26T12:02:27Z</time>
      </trkpt>
      <trkpt lat="44.75658" lon="5.18159">
        <ele>608.4</ele>
        <time>2016-03-26T12:02:31Z</time>
      </trkpt>
      <trkpt lat="44.75654" lon="5.18133">
        <ele>606.9</ele>
        <time>2016-03-26T12:02:36Z</time>
      </trkpt>
      <trkpt lat="44.75644" lon="5.18109">
        <ele>604.3</ele>
        <time>2016-03-26T12:02:41Z</time>
      </trkpt>
      <trkpt lat="44.75628" lon="5.18085">
        <ele>602.2</ele>
        <time>2016-03-26T12:02:46Z</time>
      </trkpt>
      <trkpt lat="44.75611" lon="5.1807">
        <ele>599.5</ele>
        <time>2016-03-26T12:02:50Z</time>
      </trkpt>
      <trkpt lat="44.75592" lon="5.18057">
        <ele>597.2</ele>
        <time>2016-03-26T12:02:55Z</time>
      </trkpt>
      <trkpt lat="44.75577" lon="5.1804">
        <ele>598</ele>
        <time>2016-03-26T12:03:00Z</time>
      </trkpt>
      <trkpt lat="44.75561" lon="5.18022">
        <ele>599.1</ele>
        <time>2016-03-26T12:03:07Z</time>
      </trkpt>
      <trkpt lat="44.75547" lon="5.18004">
        <ele>599.7</ele>
        <time>2016-03-26T12:03:15Z</time>
      </trkpt>
      <trkpt lat="44.75534" lon="5.17985">
        <ele>600.2</ele>
        <time>2016-03-26T12:03:23Z</time>
      </trkpt>
      <trkpt lat="44.75524" lon="5.17963">
        <ele>601.2</ele>
        <time>2016-03-26T12:03:32Z</time>
      </trkpt>
      <trkpt lat="44.75517" lon="5.17938">
        <ele>602.5</ele>
        <time>2016-03-26T12:03:40Z</time>
      </trkpt>
      <trkpt lat="44.75508" lon="5.17915">
        <ele>603.7</ele>
        <time>2016-03-26T12:03:49Z</time>
      </trkpt>
      <trkpt lat="44.75502" lon="5.17889">
        <ele>605.4</ele>
        <time>2016-03-26T12:04:01Z</time>
      </trkpt>
      <trkpt lat="44.75498" lon="5.17864">
        <ele>607.3</ele>
        <time>2016-03-26T12:04:11Z</time>
      </trkpt>
      <trkpt lat="44.75498" lon="5.17839">
        <ele>608.6</ele>
        <time>2016-03-26T12:04:21Z</time>
      </trkpt>
      <trkpt lat="44.7549" lon="5.17813">
        <ele>609.7</ele>
        <time>2016-03-26T12:04:30Z</time>
      </trkpt>
      <trkpt lat="44.75481" lon="5.17789">
        <ele>610.5</ele>
        <time>2016-03-26T12:04:38Z</time>
      </trkpt>
      <trkpt lat="44.75469" lon="5.17766">
        <ele>611.7</ele>
        <time>2016-03-26T12:04:43Z</time>
      </trkpt>
      <trkpt lat="44.75457" lon="5.17738">
        <ele>612.7</ele>
        <time>2016-03-26T12:04:48Z</time>
      </trkpt>
      <trkpt lat="44.75446" lon="5.17718">
        <ele>612.4</ele>
        <time>2016-03-26T12:04:53Z</time>
      </trkpt>
      <trkpt lat="44.75438" lon="5.17693">
        <ele>612.5</ele>
        <time>2016-03-26T12:04:58Z</time>
      </trkpt>
      <trkpt lat="44.75436" lon="5.17667">
        <ele>612.8</ele>
        <time>2016-03-26T12:05:04Z</time>
      </trkpt>
      <trkpt lat="44.7543" lon="5.17643">
        <ele>613.1</ele>
        <time>2016-03-26T12:05:12Z</time>
      </trkpt>
      <trkpt lat="44.75422" lon="5.1762">
        <ele>614</ele>
        <time>2016-03-26T12:05:25Z</time>
      </trkpt>
      <trkpt lat="44.75403" lon="5.17622">
        <ele>614.7</ele>
        <time>2016-03-26T12:05:36Z</time>
      </trkpt>
      <trkpt lat="44.75387" lon="5.17608">
        <ele>616</ele>
        <time>2016-03-26T12:05:48Z</time>
      </trkpt>
      <trkpt lat="44.75371" lon="5.17592">
        <ele>617.3</ele>
        <time>2016-03-26T12:06:00Z</time>
      </trkpt>
      <trkpt lat="44.75359" lon="5.17572">
        <ele>619.8</ele>
        <time>2016-03-26T12:06:12Z</time>
      </trkpt>
      <trkpt lat="44.75346" lon="5.17554">
        <ele>622</ele>
        <time>2016-03-26T12:06:23Z</time>
      </trkpt>
      <trkpt lat="44.75343" lon="5.17529">
        <ele>622.4</ele>
        <time>2016-03-26T12:06:37Z</time>
      </trkpt>
      <trkpt lat="44.75342" lon="5.17504">
        <ele>623.6</ele>
        <time>2016-03-26T12:06:59Z</time>
      </trkpt>
      <trkpt lat="44.7534" lon="5.17476">
        <ele>623.5</ele>
        <time>2016-03-26T12:07:07Z</time>
      </trkpt>
      <trkpt lat="44.75329" lon="5.1745">
        <ele>621.7</ele>
        <time>2016-03-26T12:07:12Z</time>
      </trkpt>
      <trkpt lat="44.7532" lon="5.17426">
        <ele>621.2</ele>
        <time>2016-03-26T12:07:17Z</time>
      </trkpt>
      <trkpt lat="44.75304" lon="5.17411">
        <ele>621.5</ele>
        <time>2016-03-26T12:07:23Z</time>
      </trkpt>
      <trkpt lat="44.75288" lon="5.17394">
        <ele>621.4</ele>
        <time>2016-03-26T12:07:27Z</time>
      </trkpt>
      <trkpt lat="44.75273" lon="5.17377">
        <ele>621</ele>
        <time>2016-03-26T12:07:30Z</time>
      </trkpt>
      <trkpt lat="44.75254" lon="5.17367">
        <ele>621</ele>
        <time>2016-03-26T12:07:33Z</time>
      </trkpt>
      <trkpt lat="44.75238" lon="5.17346">
        <ele>621.5</ele>
        <time>2016-03-26T12:07:37Z</time>
      </trkpt>
      <trkpt lat="44.75247" lon="5.1732">
        <ele>621.9</ele>
        <time>2016-03-26T12:07:45Z</time>
      </trkpt>
      <trkpt lat="44.75264" lon="5.17306">
        <ele>619.3</ele>
        <time>2016-03-26T12:07:50Z</time>
      </trkpt>
      <trkpt lat="44.75273" lon="5.17284">
        <ele>616.2</ele>
        <time>2016-03-26T12:07:54Z</time>
      </trkpt>
      <trkpt lat="44.75262" lon="5.17262">
        <ele>615.2</ele>
        <time>2016-03-26T12:07:59Z</time>
      </trkpt>
      <trkpt lat="44.75258" lon="5.17236">
        <ele>611.9</ele>
        <time>2016-03-26T12:08:04Z</time>
      </trkpt>
      <trkpt lat="44.75254" lon="5.1721">
        <ele>608.2</ele>
        <time>2016-03-26T12:08:08Z</time>
      </trkpt>
      <trkpt lat="44.75267" lon="5.17189">
        <ele>604</ele>
        <time>2016-03-26T12:08:14Z</time>
      </trkpt>
      <trkpt lat="44.75269" lon="5.17161">
        <ele>601.3</ele>
        <time>2016-03-26T12:08:19Z</time>
      </trkpt>
      <trkpt lat="44.75272" lon="5.17137">
        <ele>596.9</ele>
        <time>2016-03-26T12:08:22Z</time>
      </trkpt>
      <trkpt lat="44.75254" lon="5.17131">
        <ele>586.2</ele>
        <time>2016-03-26T12:08:32Z</time>
      </trkpt>
      <trkpt lat="44.75236" lon="5.17118">
        <ele>584.3</ele>
        <time>2016-03-26T12:08:39Z</time>
      </trkpt>
      <trkpt lat="44.75227" lon="5.17089">
        <ele>578.7</ele>
        <time>2016-03-26T12:08:45Z</time>
      </trkpt>
      <trkpt lat="44.75221" lon="5.17065">
        <ele>575.2</ele>
        <time>2016-03-26T12:08:50Z</time>
      </trkpt>
      <trkpt lat="44.75211" lon="5.17037">
        <ele>568.3</ele>
        <time>2016-03-26T12:08:56Z</time>
      </trkpt>
      <trkpt lat="44.75202" lon="5.17013">
        <ele>563.2</ele>
        <time>2016-03-26T12:09:01Z</time>
      </trkpt>
      <trkpt lat="44.7519" lon="5.16993">
        <ele>559.8</ele>
        <time>2016-03-26T12:09:19Z</time>
      </trkpt>
      <trkpt lat="44.75174" lon="5.16974">
        <ele>554.7</ele>
        <time>2016-03-26T12:09:23Z</time>
      </trkpt>
      <trkpt lat="44.75157" lon="5.16955">
        <ele>547.6</ele>
        <time>2016-03-26T12:09:28Z</time>
      </trkpt>
      <trkpt lat="44.75144" lon="5.16933">
        <ele>544.7</ele>
        <time>2016-03-26T12:09:35Z</time>
      </trkpt>
      <trkpt lat="44.75151" lon="5.16909">
        <ele>542.4</ele>
        <time>2016-03-26T12:09:40Z</time>
      </trkpt>
      <trkpt lat="44.7515" lon="5.16877">
        <ele>537</ele>
        <time>2016-03-26T12:09:46Z</time>
      </trkpt>
      <trkpt lat="44.7516" lon="5.16855">
        <ele>531.9</ele>
        <time>2016-03-26T12:09:50Z</time>
      </trkpt>
      <trkpt lat="44.75159" lon="5.16826">
        <ele>527.6</ele>
        <time>2016-03-26T12:09:56Z</time>
      </trkpt>
      <trkpt lat="44.75159" lon="5.16799">
        <ele>523.3</ele>
        <time>2016-03-26T12:10:00Z</time>
      </trkpt>
      <trkpt lat="44.75145" lon="5.1678">
        <ele>520.8</ele>
        <time>2016-03-26T12:10:45Z</time>
      </trkpt>
      <trkpt lat="44.75134" lon="5.16802">
        <ele>516.9</ele>
        <time>2016-03-26T12:10:51Z</time>
      </trkpt>
      <trkpt lat="44.75126" lon="5.16828">
        <ele>511.9</ele>
        <time>2016-03-26T12:10:54Z</time>
      </trkpt>
      <trkpt lat="44.75113" lon="5.16853">
        <ele>507.5</ele>
        <time>2016-03-26T12:10:57Z</time>
      </trkpt>
      <trkpt lat="44.75095" lon="5.16871">
        <ele>504.5</ele>
        <time>2016-03-26T12:11:00Z</time>
      </trkpt>
      <trkpt lat="44.75069" lon="5.16883">
        <ele>502.4</ele>
        <time>2016-03-26T12:11:03Z</time>
      </trkpt>
      <trkpt lat="44.75051" lon="5.16885">
        <ele>500.6</ele>
        <time>2016-03-26T12:11:05Z</time>
      </trkpt>
      <trkpt lat="44.75027" lon="5.16883">
        <ele>497.5</ele>
        <time>2016-03-26T12:11:08Z</time>
      </trkpt>
      <trkpt lat="44.75011" lon="5.16899">
        <ele>494.2</ele>
        <time>2016-03-26T12:11:11Z</time>
      </trkpt>
      <trkpt lat="44.75002" lon="5.16922">
        <ele>491.5</ele>
        <time>2016-03-26T12:11:14Z</time>
      </trkpt>
      <trkpt lat="44.74982" lon="5.16924">
        <ele>490.1</ele>
        <time>2016-03-26T12:11:18Z</time>
      </trkpt>
      <trkpt lat="44.74964" lon="5.16918">
        <ele>490</ele>
        <time>2016-03-26T12:11:23Z</time>
      </trkpt>
      <trkpt lat="44.74947" lon="5.16924">
        <ele>490</ele>
        <time>2016-03-26T12:11:29Z</time>
      </trkpt>
      <trkpt lat="44.74932" lon="5.16943">
        <ele>490.3</ele>
        <time>2016-03-26T12:11:35Z</time>
      </trkpt>
      <trkpt lat="44.74919" lon="5.16962">
        <ele>491</ele>
        <time>2016-03-26T12:11:42Z</time>
      </trkpt>
      <trkpt lat="44.74905" lon="5.16979">
        <ele>492.2</ele>
        <time>2016-03-26T12:11:49Z</time>
      </trkpt>
      <trkpt lat="44.74893" lon="5.16999">
        <ele>493.3</ele>
        <time>2016-03-26T12:11:56Z</time>
      </trkpt>
      <trkpt lat="44.74895" lon="5.17026">
        <ele>494.3</ele>
        <time>2016-03-26T12:12:04Z</time>
      </trkpt>
      <trkpt lat="44.74899" lon="5.17053">
        <ele>495.1</ele>
        <time>2016-03-26T12:12:11Z</time>
      </trkpt>
      <trkpt lat="44.74896" lon="5.17078">
        <ele>496.4</ele>
        <time>2016-03-26T12:12:18Z</time>
      </trkpt>
      <trkpt lat="44.74894" lon="5.17107">
        <ele>498.5</ele>
        <time>2016-03-26T12:12:26Z</time>
      </trkpt>
      <trkpt lat="44.74906" lon="5.17129">
        <ele>499.6</ele>
        <time>2016-03-26T12:12:32Z</time>
      </trkpt>
      <trkpt lat="44.74923" lon="5.17146">
        <ele>501.3</ele>
        <time>2016-03-26T12:12:38Z</time>
      </trkpt>
      <trkpt lat="44.74938" lon="5.17166">
        <ele>504.4</ele>
        <time>2016-03-26T12:12:44Z</time>
      </trkpt>
      <trkpt lat="44.74926" lon="5.17191">
        <ele>505.6</ele>
        <time>2016-03-26T12:12:49Z</time>
      </trkpt>
      <trkpt lat="44.7491" lon="5.17205">
        <ele>503</ele>
        <time>2016-03-26T12:12:53Z</time>
      </trkpt>
      <trkpt lat="44.74895" lon="5.17227">
        <ele>500.3</ele>
        <time>2016-03-26T12:12:57Z</time>
      </trkpt>
      <trkpt lat="44.74884" lon="5.17257">
        <ele>498.5</ele>
        <time>2016-03-26T12:13:01Z</time>
      </trkpt>
      <trkpt lat="44.74892" lon="5.17289">
        <ele>497.2</ele>
        <time>2016-03-26T12:13:05Z</time>
      </trkpt>
      <trkpt lat="44.74906" lon="5.17317">
        <ele>494.9</ele>
        <time>2016-03-26T12:13:09Z</time>
      </trkpt>
      <trkpt lat="44.74918" lon="5.17345">
        <ele>493.5</ele>
        <time>2016-03-26T12:13:12Z</time>
      </trkpt>
      <trkpt lat="44.74931" lon="5.17367">
        <ele>491.9</ele>
        <time>2016-03-26T12:13:15Z</time>
      </trkpt>
      <trkpt lat="44.74951" lon="5.17379">
        <ele>491.2</ele>
        <time>2016-03-26T12:13:18Z</time>
      </trkpt>
      <trkpt lat="44.74973" lon="5.1739">
        <ele>491.3</ele>
        <time>2016-03-26T12:13:21Z</time>
      </trkpt>
      <trkpt lat="44.74996" lon="5.17384">
        <ele>491.5</ele>
        <time>2016-03-26T12:13:24Z</time>
      </trkpt>
      <trkpt lat="44.75015" lon="5.17394">
        <ele>492.3</ele>
        <time>2016-03-26T12:13:28Z</time>
      </trkpt>
      <trkpt lat="44.75008" lon="5.17424">
        <ele>494.4</ele>
        <time>2016-03-26T12:13:33Z</time>
      </trkpt>
      <trkpt lat="44.74997" lon="5.17447">
        <ele>494.8</ele>
        <time>2016-03-26T12:13:37Z</time>
      </trkpt>
      <trkpt lat="44.74986" lon="5.17468">
        <ele>494.1</ele>
        <time>2016-03-26T12:13:41Z</time>
      </trkpt>
      <trkpt lat="44.7498" lon="5.17495">
        <ele>492.2</ele>
        <time>2016-03-26T12:13:46Z</time>
      </trkpt>
      <trkpt lat="44.74995" lon="5.17512">
        <ele>491.2</ele>
        <time>2016-03-26T12:13:50Z</time>
      </trkpt>
      <trkpt lat="44.75016" lon="5.17525">
        <ele>491.6</ele>
        <time>2016-03-26T12:13:54Z</time>
      </trkpt>
      <trkpt lat="44.75017" lon="5.17554">
        <ele>492.5</ele>
        <time>2016-03-26T12:13:58Z</time>
      </trkpt>
      <trkpt lat="44.75008" lon="5.17578">
        <ele>490.7</ele>
        <time>2016-03-26T12:14:01Z</time>
      </trkpt>
      <trkpt lat="44.75" lon="5.17603">
        <ele>488.5</ele>
        <time>2016-03-26T12:14:04Z</time>
      </trkpt>
      <trkpt lat="44.75005" lon="5.17629">
        <ele>487.7</ele>
        <time>2016-03-26T12:14:07Z</time>
      </trkpt>
      <trkpt lat="44.75023" lon="5.17643">
        <ele>488.3</ele>
        <time>2016-03-26T12:14:10Z</time>
      </trkpt>
      <trkpt lat="44.75044" lon="5.17639">
        <ele>488.5</ele>
        <time>2016-03-26T12:14:14Z</time>
      </trkpt>
      <trkpt lat="44.75047" lon="5.17664">
        <ele>488.4</ele>
        <time>2016-03-26T12:14:18Z</time>
      </trkpt>
      <trkpt lat="44.7505" lon="5.17694">
        <ele>488.6</ele>
        <time>2016-03-26T12:14:23Z</time>
      </trkpt>
      <trkpt lat="44.75056" lon="5.17722">
        <ele>488.9</ele>
        <time>2016-03-26T12:14:27Z</time>
      </trkpt>
      <trkpt lat="44.7506" lon="5.17752">
        <ele>488.2</ele>
        <time>2016-03-26T12:14:31Z</time>
      </trkpt>
      <trkpt lat="44.7506" lon="5.17781">
        <ele>486.9</ele>
        <time>2016-03-26T12:14:35Z</time>
      </trkpt>
      <trkpt lat="44.75058" lon="5.17809">
        <ele>486.3</ele>
        <time>2016-03-26T12:14:39Z</time>
      </trkpt>
      <trkpt lat="44.75055" lon="5.17836">
        <ele>488.5</ele>
        <time>2016-03-26T12:14:43Z</time>
      </trkpt>
      <trkpt lat="44.75052" lon="5.17863">
        <ele>489.6</ele>
        <time>2016-03-26T12:14:47Z</time>
      </trkpt>
      <trkpt lat="44.75057" lon="5.17892">
        <ele>488.4</ele>
        <time>2016-03-26T12:14:51Z</time>
      </trkpt>
      <trkpt lat="44.75071" lon="5.17912">
        <ele>487.5</ele>
        <time>2016-03-26T12:14:54Z</time>
      </trkpt>
      <trkpt lat="44.75085" lon="5.17927">
        <ele>485.5</ele>
        <time>2016-03-26T12:14:57Z</time>
      </trkpt>
      <trkpt lat="44.7509" lon="5.17958">
        <ele>484</ele>
        <time>2016-03-26T12:15:01Z</time>
      </trkpt>
      <trkpt lat="44.75077" lon="5.17978">
        <ele>482.5</ele>
        <time>2016-03-26T12:15:04Z</time>
      </trkpt>
      <trkpt lat="44.75057" lon="5.17986">
        <ele>481.1</ele>
        <time>2016-03-26T12:15:10Z</time>
      </trkpt>
      <trkpt lat="44.75038" lon="5.1799">
        <ele>480.7</ele>
        <time>2016-03-26T12:15:16Z</time>
      </trkpt>
      <trkpt lat="44.75021" lon="5.18009">
        <ele>480.6</ele>
        <time>2016-03-26T12:15:22Z</time>
      </trkpt>
      <trkpt lat="44.75008" lon="5.18029">
        <ele>480.9</ele>
        <time>2016-03-26T12:15:27Z</time>
      </trkpt>
      <trkpt lat="44.74993" lon="5.18047">
        <ele>480.8</ele>
        <time>2016-03-26T12:15:32Z</time>
      </trkpt>
      <trkpt lat="44.74977" lon="5.18063">
        <ele>479.7</ele>
        <time>2016-03-26T12:15:37Z</time>
      </trkpt>
      <trkpt lat="44.7496" lon="5.1808">
        <ele>481.1</ele>
        <time>2016-03-26T12:15:42Z</time>
      </trkpt>
      <trkpt lat="44.74944" lon="5.18093">
        <ele>481</ele>
        <time>2016-03-26T12:15:46Z</time>
      </trkpt>
      <trkpt lat="44.74925" lon="5.18099">
        <ele>480.2</ele>
        <time>2016-03-26T12:15:50Z</time>
      </trkpt>
      <trkpt lat="44.74907" lon="5.18109">
        <ele>480.2</ele>
        <time>2016-03-26T12:15:55Z</time>
      </trkpt>
      <trkpt lat="44.74902" lon="5.18085">
        <ele>481</ele>
        <time>2016-03-26T12:16:06Z</time>
      </trkpt>
      <trkpt lat="44.74916" lon="5.18065">
        <ele>481.9</ele>
        <time>2016-03-26T12:16:14Z</time>
      </trkpt>
      <trkpt lat="44.74928" lon="5.18045">
        <ele>482.5</ele>
        <time>2016-03-26T12:16:22Z</time>
      </trkpt>
      <trkpt lat="44.74939" lon="5.18021">
        <ele>483.4</ele>
        <time>2016-03-26T12:16:31Z</time>
      </trkpt>
      <trkpt lat="44.74945" lon="5.17996">
        <ele>484.8</ele>
        <time>2016-03-26T12:16:39Z</time>
      </trkpt>
      <trkpt lat="44.74949" lon="5.17969">
        <ele>486</ele>
        <time>2016-03-26T12:16:46Z</time>
      </trkpt>
      <trkpt lat="44.74951" lon="5.17944">
        <ele>487.2</ele>
        <time>2016-03-26T12:16:54Z</time>
      </trkpt>
      <trkpt lat="44.74949" lon="5.17916">
        <ele>488.9</ele>
        <time>2016-03-26T12:17:02Z</time>
      </trkpt>
      <trkpt lat="44.74942" lon="5.17889">
        <ele>490.7</ele>
        <time>2016-03-26T12:17:10Z</time>
      </trkpt>
      <trkpt lat="44.7493" lon="5.17867">
        <ele>491.9</ele>
        <time>2016-03-26T12:17:18Z</time>
      </trkpt>
      <trkpt lat="44.74919" lon="5.17845">
        <ele>492.1</ele>
        <time>2016-03-26T12:17:26Z</time>
      </trkpt>
      <trkpt lat="44.7491" lon="5.17822">
        <ele>492.7</ele>
        <time>2016-03-26T12:17:32Z</time>
      </trkpt>
      <trkpt lat="44.749" lon="5.178">
        <ele>493.8</ele>
        <time>2016-03-26T12:17:39Z</time>
      </trkpt>
      <trkpt lat="44.74887" lon="5.17782">
        <ele>495.3</ele>
        <time>2016-03-26T12:17:47Z</time>
      </trkpt>
      <trkpt lat="44.7487" lon="5.17769">
        <ele>496</ele>
        <time>2016-03-26T12:17:55Z</time>
      </trkpt>
      <trkpt lat="44.74852" lon="5.17757">
        <ele>496.7</ele>
        <time>2016-03-26T12:18:03Z</time>
      </trkpt>
      <trkpt lat="44.74834" lon="5.17762">
        <ele>497.3</ele>
        <time>2016-03-26T12:18:11Z</time>
      </trkpt>
      <trkpt lat="44.7482" lon="5.17781">
        <ele>497.8</ele>
        <time>2016-03-26T12:18:18Z</time>
      </trkpt>
      <trkpt lat="44.74805" lon="5.178">
        <ele>498.2</ele>
        <time>2016-03-26T12:18:26Z</time>
      </trkpt>
      <trkpt lat="44.74791" lon="5.17816">
        <ele>498.6</ele>
        <time>2016-03-26T12:18:33Z</time>
      </trkpt>
      <trkpt lat="44.74773" lon="5.17831">
        <ele>499</ele>
        <time>2016-03-26T12:18:41Z</time>
      </trkpt>
      <trkpt lat="44.74756" lon="5.17841">
        <ele>499.4</ele>
        <time>2016-03-26T12:18:48Z</time>
      </trkpt>
      <trkpt lat="44.74737" lon="5.17842">
        <ele>500.3</ele>
        <time>2016-03-26T12:18:58Z</time>
      </trkpt>
      <trkpt lat="44.74719" lon="5.1785">
        <ele>501.7</ele>
        <time>2016-03-26T12:19:07Z</time>
      </trkpt>
      <trkpt lat="44.74703" lon="5.17863">
        <ele>502.9</ele>
        <time>2016-03-26T12:19:16Z</time>
      </trkpt>
      <trkpt lat="44.74687" lon="5.17876">
        <ele>505.1</ele>
        <time>2016-03-26T12:19:25Z</time>
      </trkpt>
      <trkpt lat="44.74674" lon="5.17893">
        <ele>507.3</ele>
        <time>2016-03-26T12:19:35Z</time>
      </trkpt>
      <trkpt lat="44.74657" lon="5.17905">
        <ele>508.9</ele>
        <time>2016-03-26T12:19:43Z</time>
      </trkpt>
      <trkpt lat="44.74638" lon="5.17902">
        <ele>510.2</ele>
        <time>2016-03-26T12:19:51Z</time>
      </trkpt>
      <trkpt lat="44.74637" lon="5.17874">
        <ele>511.9</ele>
        <time>2016-03-26T12:19:58Z</time>
      </trkpt>
      <trkpt lat="44.74641" lon="5.17848">
        <ele>513.9</ele>
        <time>2016-03-26T12:20:06Z</time>
      </trkpt>
      <trkpt lat="44.74641" lon="5.17821">
        <ele>515.5</ele>
        <time>2016-03-26T12:20:13Z</time>
      </trkpt>
      <trkpt lat="44.74642" lon="5.17794">
        <ele>517.2</ele>
        <time>2016-03-26T12:20:21Z</time>
      </trkpt>
      <trkpt lat="44.74641" lon="5.17768">
        <ele>518.3</ele>
        <time>2016-03-26T12:20:28Z</time>
      </trkpt>
      <trkpt lat="44.74638" lon="5.17739">
        <ele>519.2</ele>
        <time>2016-03-26T12:20:34Z</time>
      </trkpt>
      <trkpt lat="44.74634" lon="5.17711">
        <ele>520</ele>
        <time>2016-03-26T12:20:40Z</time>
      </trkpt>
      <trkpt lat="44.74634" lon="5.17685">
        <ele>521</ele>
        <time>2016-03-26T12:20:47Z</time>
      </trkpt>
      <trkpt lat="44.74628" lon="5.17659">
        <ele>521.6</ele>
        <time>2016-03-26T12:20:53Z</time>
      </trkpt>
      <trkpt lat="44.74626" lon="5.17631">
        <ele>522.7</ele>
        <time>2016-03-26T12:21:01Z</time>
      </trkpt>
      <trkpt lat="44.74623" lon="5.17604">
        <ele>523.5</ele>
        <time>2016-03-26T12:21:08Z</time>
      </trkpt>
      <trkpt lat="44.74616" lon="5.17576">
        <ele>524.8</ele>
        <time>2016-03-26T12:21:15Z</time>
      </trkpt>
      <trkpt lat="44.74605" lon="5.1755">
        <ele>525.9</ele>
        <time>2016-03-26T12:21:22Z</time>
      </trkpt>
      <trkpt lat="44.74592" lon="5.17528">
        <ele>527.1</ele>
        <time>2016-03-26T12:21:29Z</time>
      </trkpt>
      <trkpt lat="44.74579" lon="5.17508">
        <ele>529</ele>
        <time>2016-03-26T12:21:38Z</time>
      </trkpt>
      <trkpt lat="44.7456" lon="5.17503">
        <ele>530.3</ele>
        <time>2016-03-26T12:21:46Z</time>
      </trkpt>
      <trkpt lat="44.74543" lon="5.1751">
        <ele>531.2</ele>
        <time>2016-03-26T12:21:53Z</time>
      </trkpt>
      <trkpt lat="44.74526" lon="5.17519">
        <ele>531.7</ele>
        <time>2016-03-26T12:22:00Z</time>
      </trkpt>
      <trkpt lat="44.74508" lon="5.17527">
        <ele>532.3</ele>
        <time>2016-03-26T12:22:09Z</time>
      </trkpt>
      <trkpt lat="44.74491" lon="5.17535">
        <ele>532.5</ele>
        <time>2016-03-26T12:22:17Z</time>
      </trkpt>
      <trkpt lat="44.74471" lon="5.17544">
        <ele>532.9</ele>
        <time>2016-03-26T12:22:26Z</time>
      </trkpt>
      <trkpt lat="44.74453" lon="5.17552">
        <ele>534</ele>
        <time>2016-03-26T12:22:34Z</time>
      </trkpt>
      <trkpt lat="44.74435" lon="5.17558">
        <ele>534.7</ele>
        <time>2016-03-26T12:22:42Z</time>
      </trkpt>
      <trkpt lat="44.74424" lon="5.17537">
        <ele>535.8</ele>
        <time>2016-03-26T12:22:50Z</time>
      </trkpt>
      <trkpt lat="44.74424" lon="5.17512">
        <ele>537.4</ele>
        <time>2016-03-26T12:22:56Z</time>
      </trkpt>
      <trkpt lat="44.74424" lon="5.17486">
        <ele>538.6</ele>
        <time>2016-03-26T12:23:01Z</time>
      </trkpt>
      <trkpt lat="44.74423" lon="5.17457">
        <ele>540</ele>
        <time>2016-03-26T12:23:07Z</time>
      </trkpt>
      <trkpt lat="44.74422" lon="5.17431">
        <ele>541.3</ele>
        <time>2016-03-26T12:23:13Z</time>
      </trkpt>
      <trkpt lat="44.74415" lon="5.17403">
        <ele>542.5</ele>
        <time>2016-03-26T12:23:19Z</time>
      </trkpt>
      <trkpt lat="44.74403" lon="5.17382">
        <ele>543.7</ele>
        <time>2016-03-26T12:23:25Z</time>
      </trkpt>
      <trkpt lat="44.74385" lon="5.17375">
        <ele>546.5</ele>
        <time>2016-03-26T12:25:02Z</time>
      </trkpt>
      <trkpt lat="44.74367" lon="5.17381">
        <ele>547.3</ele>
        <time>2016-03-26T12:25:13Z</time>
      </trkpt>
      <trkpt lat="44.74353" lon="5.17398">
        <ele>547.4</ele>
        <time>2016-03-26T12:25:21Z</time>
      </trkpt>
      <trkpt lat="44.74339" lon="5.17416">
        <ele>547.3</ele>
        <time>2016-03-26T12:25:28Z</time>
      </trkpt>
      <trkpt lat="44.74325" lon="5.17436">
        <ele>547.7</ele>
        <time>2016-03-26T12:25:36Z</time>
      </trkpt>
      <trkpt lat="44.74311" lon="5.17454">
        <ele>548.2</ele>
        <time>2016-03-26T12:25:43Z</time>
      </trkpt>
      <trkpt lat="44.74297" lon="5.17471">
        <ele>548.5</ele>
        <time>2016-03-26T12:25:50Z</time>
      </trkpt>
      <trkpt lat="44.74282" lon="5.1749">
        <ele>548.9</ele>
        <time>2016-03-26T12:25:58Z</time>
      </trkpt>
      <trkpt lat="44.74267" lon="5.17511">
        <ele>549.1</ele>
        <time>2016-03-26T12:26:05Z</time>
      </trkpt>
      <trkpt lat="44.74253" lon="5.1753">
        <ele>549.5</ele>
        <time>2016-03-26T12:26:11Z</time>
      </trkpt>
      <trkpt lat="44.74238" lon="5.17549">
        <ele>550</ele>
        <time>2016-03-26T12:26:17Z</time>
      </trkpt>
      <trkpt lat="44.74222" lon="5.17568">
        <ele>550.4</ele>
        <time>2016-03-26T12:26:23Z</time>
      </trkpt>
      <trkpt lat="44.74208" lon="5.17588">
        <ele>550.9</ele>
        <time>2016-03-26T12:26:29Z</time>
      </trkpt>
      <trkpt lat="44.74193" lon="5.17609">
        <ele>553.2</ele>
        <time>2016-03-26T12:26:34Z</time>
      </trkpt>
      <trkpt lat="44.74178" lon="5.17632">
        <ele>555.7</ele>
        <time>2016-03-26T12:26:39Z</time>
      </trkpt>
      <trkpt lat="44.74164" lon="5.17655">
        <ele>555.5</ele>
        <time>2016-03-26T12:26:44Z</time>
      </trkpt>
      <trkpt lat="44.74151" lon="5.17677">
        <ele>555.8</ele>
        <time>2016-03-26T12:26:49Z</time>
      </trkpt>
      <trkpt lat="44.74136" lon="5.17701">
        <ele>556.7</ele>
        <time>2016-03-26T12:26:54Z</time>
      </trkpt>
      <trkpt lat="44.74123" lon="5.17722">
        <ele>556.2</ele>
        <time>2016-03-26T12:26:58Z</time>
      </trkpt>
      <trkpt lat="44.74111" lon="5.17747">
        <ele>555.8</ele>
        <time>2016-03-26T12:27:03Z</time>
      </trkpt>
      <trkpt lat="44.74096" lon="5.17771">
        <ele>558.9</ele>
        <time>2016-03-26T12:27:08Z</time>
      </trkpt>
      <trkpt lat="44.74083" lon="5.17794">
        <ele>560.3</ele>
        <time>2016-03-26T12:27:13Z</time>
      </trkpt>
      <trkpt lat="44.74073" lon="5.17815">
        <ele>557.9</ele>
        <time>2016-03-26T12:27:17Z</time>
      </trkpt>
      <trkpt lat="44.74065" lon="5.1784">
        <ele>561.5</ele>
        <time>2016-03-26T12:27:23Z</time>
      </trkpt>
      <trkpt lat="44.74056" lon="5.17863">
        <ele>564.9</ele>
        <time>2016-03-26T12:27:27Z</time>
      </trkpt>
      <trkpt lat="44.74046" lon="5.17887">
        <ele>566.8</ele>
        <time>2016-03-26T12:27:32Z</time>
      </trkpt>
      <trkpt lat="44.74038" lon="5.17915">
        <ele>565.3</ele>
        <time>2016-03-26T12:27:36Z</time>
      </trkpt>
      <trkpt lat="44.74033" lon="5.17942">
        <ele>565.3</ele>
        <time>2016-03-26T12:27:41Z</time>
      </trkpt>
      <trkpt lat="44.74031" lon="5.17971">
        <ele>565.5</ele>
        <time>2016-03-26T12:27:47Z</time>
      </trkpt>
      <trkpt lat="44.74029" lon="5.17999">
        <ele>565</ele>
        <time>2016-03-26T12:27:54Z</time>
      </trkpt>
      <trkpt lat="44.74028" lon="5.18024">
        <ele>564.7</ele>
        <time>2016-03-26T12:28:02Z</time>
      </trkpt>
      <trkpt lat="44.74028" lon="5.18053">
        <ele>564.3</ele>
        <time>2016-03-26T12:28:10Z</time>
      </trkpt>
      <trkpt lat="44.74029" lon="5.1808">
        <ele>564.4</ele>
        <time>2016-03-26T12:28:16Z</time>
      </trkpt>
      <trkpt lat="44.7403" lon="5.18111">
        <ele>564.7</ele>
        <time>2016-03-26T12:28:22Z</time>
      </trkpt>
      <trkpt lat="44.74014" lon="5.18129">
        <ele>566.4</ele>
        <time>2016-03-26T12:28:28Z</time>
      </trkpt>
      <trkpt lat="44.73993" lon="5.18133">
        <ele>566.5</ele>
        <time>2016-03-26T12:28:33Z</time>
      </trkpt>
      <trkpt lat="44.73972" lon="5.18137">
        <ele>566</ele>
        <time>2016-03-26T12:28:38Z</time>
      </trkpt>
      <trkpt lat="44.73952" lon="5.18134">
        <ele>567.2</ele>
        <time>2016-03-26T12:30:41Z</time>
      </trkpt>
      <trkpt lat="44.73935" lon="5.18142">
        <ele>565.5</ele>
        <time>2016-03-26T12:30:45Z</time>
      </trkpt>
      <trkpt lat="44.73919" lon="5.18154">
        <ele>563.4</ele>
        <time>2016-03-26T12:30:48Z</time>
      </trkpt>
      <trkpt lat="44.73899" lon="5.18159">
        <ele>562.1</ele>
        <time>2016-03-26T12:30:51Z</time>
      </trkpt>
      <trkpt lat="44.73879" lon="5.18161">
        <ele>560.5</ele>
        <time>2016-03-26T12:30:54Z</time>
      </trkpt>
      <trkpt lat="44.73864" lon="5.18178">
        <ele>559.7</ele>
        <time>2016-03-26T12:30:58Z</time>
      </trkpt>
      <trkpt lat="44.73848" lon="5.18193">
        <ele>559.1</ele>
        <time>2016-03-26T12:31:03Z</time>
      </trkpt>
      <trkpt lat="44.73858" lon="5.18214">
        <ele>559.2</ele>
        <time>2016-03-26T12:31:11Z</time>
      </trkpt>
      <trkpt lat="44.73874" lon="5.18234">
        <ele>559.3</ele>
        <time>2016-03-26T12:31:20Z</time>
      </trkpt>
      <trkpt lat="44.73883" lon="5.1826">
        <ele>559.8</ele>
        <time>2016-03-26T12:31:29Z</time>
      </trkpt>
      <trkpt lat="44.73887" lon="5.18288">
        <ele>560.1</ele>
        <time>2016-03-26T12:31:36Z</time>
      </trkpt>
      <trkpt lat="44.73895" lon="5.18315">
        <ele>560.2</ele>
        <time>2016-03-26T12:31:44Z</time>
      </trkpt>
      <trkpt lat="44.73899" lon="5.18343">
        <ele>560.5</ele>
        <time>2016-03-26T12:31:51Z</time>
      </trkpt>
      <trkpt lat="44.73899" lon="5.18369">
        <ele>559</ele>
        <time>2016-03-26T12:31:55Z</time>
      </trkpt>
      <trkpt lat="44.73911" lon="5.18392">
        <ele>557.5</ele>
        <time>2016-03-26T12:31:59Z</time>
      </trkpt>
      <trkpt lat="44.73932" lon="5.1841">
        <ele>555.5</ele>
        <time>2016-03-26T12:32:03Z</time>
      </trkpt>
      <trkpt lat="44.73947" lon="5.18426">
        <ele>554.7</ele>
        <time>2016-03-26T12:32:06Z</time>
      </trkpt>
      <trkpt lat="44.73963" lon="5.1845">
        <ele>554.5</ele>
        <time>2016-03-26T12:32:10Z</time>
      </trkpt>
      <trkpt lat="44.73972" lon="5.18473">
        <ele>553.2</ele>
        <time>2016-03-26T12:32:13Z</time>
      </trkpt>
      <trkpt lat="44.7396" lon="5.18504">
        <ele>552.1</ele>
        <time>2016-03-26T12:32:17Z</time>
      </trkpt>
      <trkpt lat="44.73954" lon="5.18533">
        <ele>548.6</ele>
        <time>2016-03-26T12:32:20Z</time>
      </trkpt>
      <trkpt lat="44.73955" lon="5.18566">
        <ele>546.4</ele>
        <time>2016-03-26T12:32:24Z</time>
      </trkpt>
      <trkpt lat="44.73957" lon="5.18594">
        <ele>547.1</ele>
        <time>2016-03-26T12:32:28Z</time>
      </trkpt>
      <trkpt lat="44.73969" lon="5.18613">
        <ele>547.3</ele>
        <time>2016-03-26T12:32:33Z</time>
      </trkpt>
      <trkpt lat="44.73988" lon="5.18619">
        <ele>549</ele>
        <time>2016-03-26T12:32:38Z</time>
      </trkpt>
      <trkpt lat="44.74008" lon="5.18624">
        <ele>549.7</ele>
        <time>2016-03-26T12:32:43Z</time>
      </trkpt>
      <trkpt lat="44.74026" lon="5.1863">
        <ele>551.8</ele>
        <time>2016-03-26T12:32:47Z</time>
      </trkpt>
      <trkpt lat="44.74041" lon="5.18646">
        <ele>550.9</ele>
        <time>2016-03-26T12:32:50Z</time>
      </trkpt>
      <trkpt lat="44.74053" lon="5.18671">
        <ele>548.2</ele>
        <time>2016-03-26T12:32:53Z</time>
      </trkpt>
      <trkpt lat="44.74069" lon="5.18695">
        <ele>545.9</ele>
        <time>2016-03-26T12:32:56Z</time>
      </trkpt>
      <trkpt lat="44.7409" lon="5.18711">
        <ele>544.3</ele>
        <time>2016-03-26T12:32:59Z</time>
      </trkpt>
      <trkpt lat="44.74108" lon="5.1873">
        <ele>540.1</ele>
        <time>2016-03-26T12:33:02Z</time>
      </trkpt>
      <trkpt lat="44.74113" lon="5.18759">
        <ele>538.5</ele>
        <time>2016-03-26T12:33:05Z</time>
      </trkpt>
      <trkpt lat="44.74113" lon="5.18786">
        <ele>538.7</ele>
        <time>2016-03-26T12:33:08Z</time>
      </trkpt>
      <trkpt lat="44.74124" lon="5.18811">
        <ele>540.2</ele>
        <time>2016-03-26T12:33:12Z</time>
      </trkpt>
      <trkpt lat="44.74138" lon="5.18828">
        <ele>540.5</ele>
        <time>2016-03-26T12:33:18Z</time>
      </trkpt>
      <trkpt lat="44.74155" lon="5.18838">
        <ele>540.9</ele>
        <time>2016-03-26T12:33:27Z</time>
      </trkpt>
      <trkpt lat="44.74172" lon="5.18851">
        <ele>541.5</ele>
        <time>2016-03-26T12:33:34Z</time>
      </trkpt>
      <trkpt lat="44.74185" lon="5.1887">
        <ele>542.4</ele>
        <time>2016-03-26T12:33:42Z</time>
      </trkpt>
      <trkpt lat="44.74196" lon="5.18892">
        <ele>542.8</ele>
        <time>2016-03-26T12:33:50Z</time>
      </trkpt>
      <trkpt lat="44.74207" lon="5.18912">
        <ele>543.8</ele>
        <time>2016-03-26T12:33:57Z</time>
      </trkpt>
      <trkpt lat="44.74223" lon="5.1893">
        <ele>544.7</ele>
        <time>2016-03-26T12:34:05Z</time>
      </trkpt>
      <trkpt lat="44.74241" lon="5.18938">
        <ele>545.5</ele>
        <time>2016-03-26T12:34:13Z</time>
      </trkpt>
      <trkpt lat="44.74243" lon="5.18912">
        <ele>546.5</ele>
        <time>2016-03-26T12:34:27Z</time>
      </trkpt>
      <trkpt lat="44.74231" lon="5.18893">
        <ele>549</ele>
        <time>2016-03-26T12:34:40Z</time>
      </trkpt>
      <trkpt lat="44.74219" lon="5.18873">
        <ele>551.8</ele>
        <time>2016-03-26T12:34:52Z</time>
      </trkpt>
      <trkpt lat="44.7421" lon="5.18849">
        <ele>555.5</ele>
        <time>2016-03-26T12:35:08Z</time>
      </trkpt>
      <trkpt lat="44.74205" lon="5.18824">
        <ele>558</ele>
        <time>2016-03-26T12:35:20Z</time>
      </trkpt>
      <trkpt lat="44.74203" lon="5.18797">
        <ele>559.4</ele>
        <time>2016-03-26T12:35:33Z</time>
      </trkpt>
      <trkpt lat="44.74194" lon="5.18775">
        <ele>561.5</ele>
        <time>2016-03-26T12:35:46Z</time>
      </trkpt>
      <trkpt lat="44.74212" lon="5.18771">
        <ele>566</ele>
        <time>2016-03-26T12:36:10Z</time>
      </trkpt>
      <trkpt lat="44.74224" lon="5.18791">
        <ele>567.9</ele>
        <time>2016-03-26T12:36:22Z</time>
      </trkpt>
      <trkpt lat="44.74236" lon="5.18812">
        <ele>569.3</ele>
        <time>2016-03-26T12:36:35Z</time>
      </trkpt>
      <trkpt lat="44.74249" lon="5.18832">
        <ele>571.1</ele>
        <time>2016-03-26T12:36:48Z</time>
      </trkpt>
      <trkpt lat="44.74266" lon="5.18845">
        <ele>573.7</ele>
        <time>2016-03-26T12:37:02Z</time>
      </trkpt>
      <trkpt lat="44.74283" lon="5.18857">
        <ele>575.3</ele>
        <time>2016-03-26T12:37:17Z</time>
      </trkpt>
      <trkpt lat="44.74295" lon="5.18876">
        <ele>577.6</ele>
        <time>2016-03-26T12:37:29Z</time>
      </trkpt>
      <trkpt lat="44.74313" lon="5.18882">
        <ele>580.8</ele>
        <time>2016-03-26T12:37:45Z</time>
      </trkpt>
      <trkpt lat="44.74327" lon="5.18864">
        <ele>582.7</ele>
        <time>2016-03-26T12:37:59Z</time>
      </trkpt>
      <trkpt lat="44.74345" lon="5.18859">
        <ele>585.9</ele>
        <time>2016-03-26T12:38:13Z</time>
      </trkpt>
      <trkpt lat="44.74363" lon="5.18865">
        <ele>588.1</ele>
        <time>2016-03-26T12:38:25Z</time>
      </trkpt>
      <trkpt lat="44.74379" lon="5.18877">
        <ele>589.5</ele>
        <time>2016-03-26T12:38:37Z</time>
      </trkpt>
      <trkpt lat="44.74397" lon="5.18885">
        <ele>591.2</ele>
        <time>2016-03-26T12:38:48Z</time>
      </trkpt>
      <trkpt lat="44.74414" lon="5.18897">
        <ele>593.8</ele>
        <time>2016-03-26T12:39:00Z</time>
      </trkpt>
      <trkpt lat="44.74416" lon="5.18924">
        <ele>596.5</ele>
        <time>2016-03-26T12:39:11Z</time>
      </trkpt>
      <trkpt lat="44.74427" lon="5.18947">
        <ele>598.8</ele>
        <time>2016-03-26T12:39:22Z</time>
      </trkpt>
      <trkpt lat="44.74436" lon="5.1897">
        <ele>601.1</ele>
        <time>2016-03-26T12:39:35Z</time>
      </trkpt>
      <trkpt lat="44.74449" lon="5.18991">
        <ele>602.2</ele>
        <time>2016-03-26T12:39:44Z</time>
      </trkpt>
      <trkpt lat="44.74455" lon="5.19015">
        <ele>604.1</ele>
        <time>2016-03-26T12:39:54Z</time>
      </trkpt>
      <trkpt lat="44.74455" lon="5.19041">
        <ele>605.9</ele>
        <time>2016-03-26T12:40:03Z</time>
      </trkpt>
      <trkpt lat="44.74464" lon="5.19065">
        <ele>607.5</ele>
        <time>2016-03-26T12:40:12Z</time>
      </trkpt>
      <trkpt lat="44.74477" lon="5.19084">
        <ele>608.5</ele>
        <time>2016-03-26T12:40:22Z</time>
      </trkpt>
      <trkpt lat="44.74491" lon="5.19101">
        <ele>609.5</ele>
        <time>2016-03-26T12:40:31Z</time>
      </trkpt>
      <trkpt lat="44.74493" lon="5.19128">
        <ele>611.4</ele>
        <time>2016-03-26T12:40:39Z</time>
      </trkpt>
      <trkpt lat="44.74496" lon="5.19154">
        <ele>612.2</ele>
        <time>2016-03-26T12:40:47Z</time>
      </trkpt>
      <trkpt lat="44.74507" lon="5.19177">
        <ele>613.6</ele>
        <time>2016-03-26T12:40:55Z</time>
      </trkpt>
      <trkpt lat="44.74517" lon="5.19202">
        <ele>615.4</ele>
        <time>2016-03-26T12:41:06Z</time>
      </trkpt>
      <trkpt lat="44.74523" lon="5.19228">
        <ele>616.9</ele>
        <time>2016-03-26T12:41:14Z</time>
      </trkpt>
      <trkpt lat="44.74524" lon="5.19254">
        <ele>618.2</ele>
        <time>2016-03-26T12:41:23Z</time>
      </trkpt>
      <trkpt lat="44.74521" lon="5.19281">
        <ele>619.2</ele>
        <time>2016-03-26T12:41:31Z</time>
      </trkpt>
      <trkpt lat="44.74506" lon="5.19298">
        <ele>619.4</ele>
        <time>2016-03-26T12:41:40Z</time>
      </trkpt>
      <trkpt lat="44.74488" lon="5.19311">
        <ele>619.2</ele>
        <time>2016-03-26T12:41:50Z</time>
      </trkpt>
      <trkpt lat="44.74475" lon="5.19329">
        <ele>619.5</ele>
        <time>2016-03-26T12:41:59Z</time>
      </trkpt>
      <trkpt lat="44.74482" lon="5.19354">
        <ele>620.6</ele>
        <time>2016-03-26T12:42:09Z</time>
      </trkpt>
      <trkpt lat="44.74487" lon="5.1938">
        <ele>622.4</ele>
        <time>2016-03-26T12:42:18Z</time>
      </trkpt>
      <trkpt lat="44.74492" lon="5.19407">
        <ele>624.2</ele>
        <time>2016-03-26T12:42:29Z</time>
      </trkpt>
      <trkpt lat="44.74498" lon="5.19432">
        <ele>626.1</ele>
        <time>2016-03-26T12:42:38Z</time>
      </trkpt>
      <trkpt lat="44.745" lon="5.19458">
        <ele>627.5</ele>
        <time>2016-03-26T12:42:46Z</time>
      </trkpt>
      <trkpt lat="44.7449" lon="5.19481">
        <ele>628.2</ele>
        <time>2016-03-26T12:42:55Z</time>
      </trkpt>
      <trkpt lat="44.74487" lon="5.19507">
        <ele>629.6</ele>
        <time>2016-03-26T12:43:06Z</time>
      </trkpt>
      <trkpt lat="44.74497" lon="5.1953">
        <ele>631.6</ele>
        <time>2016-03-26T12:43:16Z</time>
      </trkpt>
      <trkpt lat="44.74511" lon="5.19547">
        <ele>633.9</ele>
        <time>2016-03-26T12:43:27Z</time>
      </trkpt>
      <trkpt lat="44.74523" lon="5.19567">
        <ele>636.1</ele>
        <time>2016-03-26T12:43:39Z</time>
      </trkpt>
      <trkpt lat="44.74518" lon="5.19595">
        <ele>638</ele>
        <time>2016-03-26T12:43:50Z</time>
      </trkpt>
      <trkpt lat="44.74511" lon="5.19619">
        <ele>638.7</ele>
        <time>2016-03-26T12:43:59Z</time>
      </trkpt>
      <trkpt lat="44.74492" lon="5.19626">
        <ele>642.5</ele>
        <time>2016-03-26T12:51:26Z</time>
      </trkpt>
      <trkpt lat="44.7447" lon="5.19626">
        <ele>640.5</ele>
        <time>2016-03-26T12:51:31Z</time>
      </trkpt>
      <trkpt lat="44.7445" lon="5.19628">
        <ele>636.3</ele>
        <time>2016-03-26T12:51:36Z</time>
      </trkpt>
      <trkpt lat="44.74429" lon="5.19622">
        <ele>633</ele>
        <time>2016-03-26T12:51:42Z</time>
      </trkpt>
      <trkpt lat="44.74411" lon="5.1963">
        <ele>631.2</ele>
        <time>2016-03-26T12:51:47Z</time>
      </trkpt>
      <trkpt lat="44.74393" lon="5.19643">
        <ele>629.9</ele>
        <time>2016-03-26T12:51:57Z</time>
      </trkpt>
      <trkpt lat="44.74371" lon="5.19642">
        <ele>628.7</ele>
        <time>2016-03-26T12:52:03Z</time>
      </trkpt>
      <trkpt lat="44.74351" lon="5.19636">
        <ele>627.4</ele>
        <time>2016-03-26T12:52:08Z</time>
      </trkpt>
      <trkpt lat="44.74334" lon="5.19626">
        <ele>626.9</ele>
        <time>2016-03-26T12:52:16Z</time>
      </trkpt>
      <trkpt lat="44.74316" lon="5.19632">
        <ele>625.3</ele>
        <time>2016-03-26T12:52:29Z</time>
      </trkpt>
      <trkpt lat="44.74297" lon="5.19625">
        <ele>623.3</ele>
        <time>2016-03-26T12:52:36Z</time>
      </trkpt>
      <trkpt lat="44.74279" lon="5.19613">
        <ele>618.3</ele>
        <time>2016-03-26T12:52:46Z</time>
      </trkpt>
      <trkpt lat="44.7426" lon="5.1961">
        <ele>602.4</ele>
        <time>2016-03-26T12:52:52Z</time>
      </trkpt>
      <trkpt lat="44.7424" lon="5.19603">
        <ele>594.7</ele>
        <time>2016-03-26T12:52:57Z</time>
      </trkpt>
      <trkpt lat="44.74221" lon="5.19594">
        <ele>587.4</ele>
        <time>2016-03-26T12:53:01Z</time>
      </trkpt>
      <trkpt lat="44.742" lon="5.19596">
        <ele>581.2</ele>
        <time>2016-03-26T12:53:06Z</time>
      </trkpt>
      <trkpt lat="44.74181" lon="5.19583">
        <ele>578</ele>
        <time>2016-03-26T12:53:11Z</time>
      </trkpt>
      <trkpt lat="44.74163" lon="5.19579">
        <ele>577.8</ele>
        <time>2016-03-26T12:53:18Z</time>
      </trkpt>
      <trkpt lat="44.74144" lon="5.19583">
        <ele>577.2</ele>
        <time>2016-03-26T12:53:25Z</time>
      </trkpt>
      <trkpt lat="44.74125" lon="5.19582">
        <ele>576.7</ele>
        <time>2016-03-26T12:53:32Z</time>
      </trkpt>
      <trkpt lat="44.74107" lon="5.1958">
        <ele>576.5</ele>
        <time>2016-03-26T12:53:38Z</time>
      </trkpt>
      <trkpt lat="44.74087" lon="5.19578">
        <ele>576.2</ele>
        <time>2016-03-26T12:53:45Z</time>
      </trkpt>
      <trkpt lat="44.74069" lon="5.19576">
        <ele>576.6</ele>
        <time>2016-03-26T12:53:54Z</time>
      </trkpt>
      <trkpt lat="44.74049" lon="5.19575">
        <ele>577</ele>
        <time>2016-03-26T12:54:05Z</time>
      </trkpt>
      <trkpt lat="44.74031" lon="5.1957">
        <ele>578.2</ele>
        <time>2016-03-26T12:54:18Z</time>
      </trkpt>
      <trkpt lat="44.74013" lon="5.19575">
        <ele>579.1</ele>
        <time>2016-03-26T12:54:31Z</time>
      </trkpt>
      <trkpt lat="44.73995" lon="5.19582">
        <ele>581</ele>
        <time>2016-03-26T12:54:44Z</time>
      </trkpt>
      <trkpt lat="44.73979" lon="5.19597">
        <ele>582</ele>
        <time>2016-03-26T12:54:58Z</time>
      </trkpt>
      <trkpt lat="44.73969" lon="5.19621">
        <ele>584</ele>
        <time>2016-03-26T12:55:40Z</time>
      </trkpt>
      <trkpt lat="44.7395" lon="5.19627">
        <ele>584.5</ele>
        <time>2016-03-26T12:55:49Z</time>
      </trkpt>
      <trkpt lat="44.73934" lon="5.1964">
        <ele>585.6</ele>
        <time>2016-03-26T12:55:55Z</time>
      </trkpt>
      <trkpt lat="44.73916" lon="5.19654">
        <ele>586</ele>
        <time>2016-03-26T12:56:00Z</time>
      </trkpt>
      <trkpt lat="44.73899" lon="5.19668">
        <ele>585.8</ele>
        <time>2016-03-26T12:56:06Z</time>
      </trkpt>
      <trkpt lat="44.73882" lon="5.1968">
        <ele>583.1</ele>
        <time>2016-03-26T12:56:11Z</time>
      </trkpt>
      <trkpt lat="44.73866" lon="5.19698">
        <ele>580.5</ele>
        <time>2016-03-26T12:56:16Z</time>
      </trkpt>
      <trkpt lat="44.7386" lon="5.19723">
        <ele>580.8</ele>
        <time>2016-03-26T12:56:22Z</time>
      </trkpt>
      <trkpt lat="44.73848" lon="5.19746">
        <ele>581.1</ele>
        <time>2016-03-26T12:56:28Z</time>
      </trkpt>
      <trkpt lat="44.73832" lon="5.19765">
        <ele>580.3</ele>
        <time>2016-03-26T12:56:32Z</time>
      </trkpt>
      <trkpt lat="44.73814" lon="5.1978">
        <ele>576.5</ele>
        <time>2016-03-26T12:56:36Z</time>
      </trkpt>
      <trkpt lat="44.73798" lon="5.19796">
        <ele>574</ele>
        <time>2016-03-26T12:56:39Z</time>
      </trkpt>
      <trkpt lat="44.73781" lon="5.19812">
        <ele>572.5</ele>
        <time>2016-03-26T12:56:43Z</time>
      </trkpt>
      <trkpt lat="44.73765" lon="5.19831">
        <ele>570.2</ele>
        <time>2016-03-26T12:56:49Z</time>
      </trkpt>
      <trkpt lat="44.73747" lon="5.19844">
        <ele>568.8</ele>
        <time>2016-03-26T12:56:57Z</time>
      </trkpt>
      <trkpt lat="44.73728" lon="5.19844">
        <ele>565.4</ele>
        <time>2016-03-26T12:57:04Z</time>
      </trkpt>
      <trkpt lat="44.73711" lon="5.19861">
        <ele>563.4</ele>
        <time>2016-03-26T12:57:10Z</time>
      </trkpt>
      <trkpt lat="44.73697" lon="5.19877">
        <ele>562.8</ele>
        <time>2016-03-26T12:57:16Z</time>
      </trkpt>
      <trkpt lat="44.7368" lon="5.19889">
        <ele>562.1</ele>
        <time>2016-03-26T12:57:25Z</time>
      </trkpt>
      <trkpt lat="44.73659" lon="5.19895">
        <ele>558.9</ele>
        <time>2016-03-26T12:57:36Z</time>
      </trkpt>
      <trkpt lat="44.73639" lon="5.19897">
        <ele>557.9</ele>
        <time>2016-03-26T12:57:41Z</time>
      </trkpt>
      <trkpt lat="44.7363" lon="5.19921">
        <ele>555.1</ele>
        <time>2016-03-26T12:57:50Z</time>
      </trkpt>
      <trkpt lat="44.73611" lon="5.19937">
        <ele>544.8</ele>
        <time>2016-03-26T12:57:56Z</time>
      </trkpt>
      <trkpt lat="44.73596" lon="5.19952">
        <ele>535.3</ele>
        <time>2016-03-26T12:58:00Z</time>
      </trkpt>
      <trkpt lat="44.73582" lon="5.19974">
        <ele>534</ele>
        <time>2016-03-26T12:58:05Z</time>
      </trkpt>
      <trkpt lat="44.73568" lon="5.19994">
        <ele>532.8</ele>
        <time>2016-03-26T12:58:12Z</time>
      </trkpt>
      <trkpt lat="44.73559" lon="5.20019">
        <ele>530.8</ele>
        <time>2016-03-26T12:58:20Z</time>
      </trkpt>
      <trkpt lat="44.73553" lon="5.20044">
        <ele>527.4</ele>
        <time>2016-03-26T12:58:27Z</time>
      </trkpt>
      <trkpt lat="44.73542" lon="5.20065">
        <ele>524.1</ele>
        <time>2016-03-26T12:58:33Z</time>
      </trkpt>
      <trkpt lat="44.73538" lon="5.20095">
        <ele>525</ele>
        <time>2016-03-26T12:58:38Z</time>
      </trkpt>
      <trkpt lat="44.73535" lon="5.20124">
        <ele>523.5</ele>
        <time>2016-03-26T12:58:44Z</time>
      </trkpt>
      <trkpt lat="44.7353" lon="5.20154">
        <ele>521.8</ele>
        <time>2016-03-26T12:58:48Z</time>
      </trkpt>
      <trkpt lat="44.73524" lon="5.2018">
        <ele>521.4</ele>
        <time>2016-03-26T12:58:53Z</time>
      </trkpt>
      <trkpt lat="44.73518" lon="5.20204">
        <ele>521.3</ele>
        <time>2016-03-26T12:58:59Z</time>
      </trkpt>
      <trkpt lat="44.73515" lon="5.20232">
        <ele>519.5</ele>
        <time>2016-03-26T12:59:04Z</time>
      </trkpt>
      <trkpt lat="44.7351" lon="5.20258">
        <ele>516.4</ele>
        <time>2016-03-26T12:59:09Z</time>
      </trkpt>
      <trkpt lat="44.73506" lon="5.20286">
        <ele>514.6</ele>
        <time>2016-03-26T12:59:14Z</time>
      </trkpt>
      <trkpt lat="44.73509" lon="5.20316">
        <ele>513.8</ele>
        <time>2016-03-26T12:59:20Z</time>
      </trkpt>
      <trkpt lat="44.73514" lon="5.20341">
        <ele>511.8</ele>
        <time>2016-03-26T12:59:24Z</time>
      </trkpt>
      <trkpt lat="44.73518" lon="5.20368">
        <ele>511.6</ele>
        <time>2016-03-26T12:59:29Z</time>
      </trkpt>
      <trkpt lat="44.73519" lon="5.20395">
        <ele>509.8</ele>
        <time>2016-03-26T12:59:34Z</time>
      </trkpt>
      <trkpt lat="44.7353" lon="5.20415">
        <ele>506.5</ele>
        <time>2016-03-26T12:59:38Z</time>
      </trkpt>
      <trkpt lat="44.73543" lon="5.20434">
        <ele>506</ele>
        <time>2016-03-26T12:59:42Z</time>
      </trkpt>
      <trkpt lat="44.73557" lon="5.20455">
        <ele>505.9</ele>
        <time>2016-03-26T12:59:46Z</time>
      </trkpt>
      <trkpt lat="44.73563" lon="5.20485">
        <ele>506.2</ele>
        <time>2016-03-26T12:59:50Z</time>
      </trkpt>
      <trkpt lat="44.73563" lon="5.20515">
        <ele>506.1</ele>
        <time>2016-03-26T12:59:54Z</time>
      </trkpt>
      <trkpt lat="44.73558" lon="5.20549">
        <ele>505.3</ele>
        <time>2016-03-26T12:59:58Z</time>
      </trkpt>
      <trkpt lat="44.73548" lon="5.20571">
        <ele>502.9</ele>
        <time>2016-03-26T13:00:02Z</time>
      </trkpt>
      <trkpt lat="44.73551" lon="5.206">
        <ele>502.2</ele>
        <time>2016-03-26T13:00:11Z</time>
      </trkpt>
      <trkpt lat="44.73557" lon="5.20627">
        <ele>499.1</ele>
        <time>2016-03-26T13:00:15Z</time>
      </trkpt>
      <trkpt lat="44.73562" lon="5.20654">
        <ele>495.1</ele>
        <time>2016-03-26T13:00:20Z</time>
      </trkpt>
      <trkpt lat="44.73559" lon="5.20683">
        <ele>494.5</ele>
        <time>2016-03-26T13:00:27Z</time>
      </trkpt>
      <trkpt lat="44.73555" lon="5.20709">
        <ele>494.6</ele>
        <time>2016-03-26T13:00:33Z</time>
      </trkpt>
      <trkpt lat="44.73535" lon="5.20715">
        <ele>494.2</ele>
        <time>2016-03-26T13:00:41Z</time>
      </trkpt>
      <trkpt lat="44.73515" lon="5.20716">
        <ele>491.9</ele>
        <time>2016-03-26T13:00:46Z</time>
      </trkpt>
      <trkpt lat="44.73494" lon="5.2072">
        <ele>486.4</ele>
        <time>2016-03-26T13:00:51Z</time>
      </trkpt>
      <trkpt lat="44.73476" lon="5.20728">
        <ele>482.2</ele>
        <time>2016-03-26T13:00:56Z</time>
      </trkpt>
      <trkpt lat="44.73454" lon="5.20732">
        <ele>476.6</ele>
        <time>2016-03-26T13:01:00Z</time>
      </trkpt>
      <trkpt lat="44.73433" lon="5.20735">
        <ele>474.4</ele>
        <time>2016-03-26T13:01:05Z</time>
      </trkpt>
      <trkpt lat="44.73413" lon="5.20741">
        <ele>471.3</ele>
        <time>2016-03-26T13:01:10Z</time>
      </trkpt>
      <trkpt lat="44.73393" lon="5.20745">
        <ele>467.7</ele>
        <time>2016-03-26T13:01:16Z</time>
      </trkpt>
      <trkpt lat="44.73374" lon="5.20753">
        <ele>465.9</ele>
        <time>2016-03-26T13:01:22Z</time>
      </trkpt>
      <trkpt lat="44.73393" lon="5.20757">
        <ele>446.9</ele>
        <time>2016-03-26T13:02:01Z</time>
      </trkpt>
      <trkpt lat="44.73411" lon="5.20768">
        <ele>441.6</ele>
        <time>2016-03-26T13:02:04Z</time>
      </trkpt>
      <trkpt lat="44.73429" lon="5.20778">
        <ele>438.1</ele>
        <time>2016-03-26T13:02:07Z</time>
      </trkpt>
      <trkpt lat="44.73448" lon="5.20794">
        <ele>434.3</ele>
        <time>2016-03-26T13:02:11Z</time>
      </trkpt>
      <trkpt lat="44.73459" lon="5.20817">
        <ele>428.6</ele>
        <time>2016-03-26T13:02:16Z</time>
      </trkpt>
      <trkpt lat="44.73455" lon="5.20849">
        <ele>422.7</ele>
        <time>2016-03-26T13:02:20Z</time>
      </trkpt>
      <trkpt lat="44.7345" lon="5.20876">
        <ele>421.5</ele>
        <time>2016-03-26T13:02:24Z</time>
      </trkpt>
      <trkpt lat="44.7343" lon="5.20878">
        <ele>416.5</ele>
        <time>2016-03-26T13:02:28Z</time>
      </trkpt>
      <trkpt lat="44.7341" lon="5.2087">
        <ele>410.4</ele>
        <time>2016-03-26T13:02:33Z</time>
      </trkpt>
      <trkpt lat="44.7339" lon="5.20864">
        <ele>409.7</ele>
        <time>2016-03-26T13:02:37Z</time>
      </trkpt>
      <trkpt lat="44.7337" lon="5.20859">
        <ele>410.6</ele>
        <time>2016-03-26T13:02:42Z</time>
      </trkpt>
      <trkpt lat="44.7335" lon="5.20858">
        <ele>410.4</ele>
        <time>2016-03-26T13:02:46Z</time>
      </trkpt>
      <trkpt lat="44.7333" lon="5.20859">
        <ele>408.8</ele>
        <time>2016-03-26T13:02:50Z</time>
      </trkpt>
      <trkpt lat="44.7331" lon="5.20857">
        <ele>409</ele>
        <time>2016-03-26T13:02:54Z</time>
      </trkpt>
      <trkpt lat="44.7329" lon="5.20857">
        <ele>408</ele>
        <time>2016-03-26T13:02:58Z</time>
      </trkpt>
      <trkpt lat="44.7327" lon="5.20859">
        <ele>406.2</ele>
        <time>2016-03-26T13:03:02Z</time>
      </trkpt>
      <trkpt lat="44.73251" lon="5.20864">
        <ele>405.1</ele>
        <time>2016-03-26T13:03:07Z</time>
      </trkpt>
      <trkpt lat="44.73233" lon="5.2087">
        <ele>405.1</ele>
        <time>2016-03-26T13:03:11Z</time>
      </trkpt>
      <trkpt lat="44.73214" lon="5.20874">
        <ele>404.9</ele>
        <time>2016-03-26T13:03:15Z</time>
      </trkpt>
      <trkpt lat="44.73195" lon="5.20875">
        <ele>404.9</ele>
        <time>2016-03-26T13:03:19Z</time>
      </trkpt>
      <trkpt lat="44.73175" lon="5.2087">
        <ele>404.2</ele>
        <time>2016-03-26T13:03:23Z</time>
      </trkpt>
      <trkpt lat="44.73156" lon="5.20861">
        <ele>404.2</ele>
        <time>2016-03-26T13:03:27Z</time>
      </trkpt>
      <trkpt lat="44.73138" lon="5.20853">
        <ele>403.6</ele>
        <time>2016-03-26T13:03:31Z</time>
      </trkpt>
      <trkpt lat="44.73118" lon="5.20843">
        <ele>403.5</ele>
        <time>2016-03-26T13:03:35Z</time>
      </trkpt>
      <trkpt lat="44.73097" lon="5.20832">
        <ele>403.3</ele>
        <time>2016-03-26T13:03:39Z</time>
      </trkpt>
      <trkpt lat="44.73076" lon="5.20824">
        <ele>402.9</ele>
        <time>2016-03-26T13:03:44Z</time>
      </trkpt>
      <trkpt lat="44.73054" lon="5.2082">
        <ele>402.3</ele>
        <time>2016-03-26T13:03:49Z</time>
      </trkpt>
      <trkpt lat="44.73033" lon="5.20823">
        <ele>400</ele>
        <time>2016-03-26T13:03:54Z</time>
      </trkpt>
      <trkpt lat="44.73015" lon="5.20825">
        <ele>398.2</ele>
        <time>2016-03-26T13:03:58Z</time>
      </trkpt>
      <trkpt lat="44.72994" lon="5.20821">
        <ele>398</ele>
        <time>2016-03-26T13:04:03Z</time>
      </trkpt>
      <trkpt lat="44.72974" lon="5.2082">
        <ele>399.6</ele>
        <time>2016-03-26T13:04:11Z</time>
      </trkpt>
      <trkpt lat="44.72956" lon="5.20827">
        <ele>402.2</ele>
        <time>2016-03-26T13:04:18Z</time>
      </trkpt>
      <trkpt lat="44.72937" lon="5.20833">
        <ele>403.7</ele>
        <time>2016-03-26T13:04:24Z</time>
      </trkpt>
      <trkpt lat="44.72919" lon="5.20833">
        <ele>404.4</ele>
        <time>2016-03-26T13:04:29Z</time>
      </trkpt>
      <trkpt lat="44.72899" lon="5.20827">
        <ele>405.1</ele>
        <time>2016-03-26T13:04:35Z</time>
      </trkpt>
      <trkpt lat="44.72881" lon="5.20819">
        <ele>406</ele>
        <time>2016-03-26T13:04:41Z</time>
      </trkpt>
      <trkpt lat="44.72864" lon="5.20812">
        <ele>406.7</ele>
        <time>2016-03-26T13:04:46Z</time>
      </trkpt>
      <trkpt lat="44.72846" lon="5.20809">
        <ele>406.8</ele>
        <time>2016-03-26T13:04:51Z</time>
      </trkpt>
      <trkpt lat="44.72828" lon="5.20809">
        <ele>406.9</ele>
        <time>2016-03-26T13:04:56Z</time>
      </trkpt>
      <trkpt lat="44.72806" lon="5.20805">
        <ele>407.4</ele>
        <time>2016-03-26T13:05:03Z</time>
      </trkpt>
      <trkpt lat="44.7279" lon="5.20786">
        <ele>408.7</ele>
        <time>2016-03-26T13:05:08Z</time>
      </trkpt>
      <trkpt lat="44.72783" lon="5.20759">
        <ele>408.9</ele>
        <time>2016-03-26T13:05:11Z</time>
      </trkpt>
      <trkpt lat="44.72777" lon="5.20735">
        <ele>407.7</ele>
        <time>2016-03-26T13:05:13Z</time>
      </trkpt>
      <trkpt lat="44.72769" lon="5.20703">
        <ele>407.1</ele>
        <time>2016-03-26T13:05:16Z</time>
      </trkpt>
      <trkpt lat="44.72761" lon="5.20678">
        <ele>407.1</ele>
        <time>2016-03-26T13:05:18Z</time>
      </trkpt>
      <trkpt lat="44.72748" lon="5.20656">
        <ele>406.2</ele>
        <time>2016-03-26T13:05:20Z</time>
      </trkpt>
      <trkpt lat="44.72731" lon="5.20641">
        <ele>405.5</ele>
        <time>2016-03-26T13:05:22Z</time>
      </trkpt>
      <trkpt lat="44.72713" lon="5.20628">
        <ele>405.3</ele>
        <time>2016-03-26T13:05:24Z</time>
      </trkpt>
      <trkpt lat="44.72691" lon="5.20619">
        <ele>403.8</ele>
        <time>2016-03-26T13:05:26Z</time>
      </trkpt>
      <trkpt lat="44.72665" lon="5.20615">
        <ele>402</ele>
        <time>2016-03-26T13:05:28Z</time>
      </trkpt>
      <trkpt lat="44.72642" lon="5.20613">
        <ele>399.7</ele>
        <time>2016-03-26T13:05:30Z</time>
      </trkpt>
      <trkpt lat="44.7262" lon="5.20613">
        <ele>397.3</ele>
        <time>2016-03-26T13:05:32Z</time>
      </trkpt>
      <trkpt lat="44.726" lon="5.20616">
        <ele>395.4</ele>
        <time>2016-03-26T13:05:34Z</time>
      </trkpt>
      <trkpt lat="44.72574" lon="5.20624">
        <ele>392.4</ele>
        <time>2016-03-26T13:05:37Z</time>
      </trkpt>
      <trkpt lat="44.72556" lon="5.20612">
        <ele>389.6</ele>
        <time>2016-03-26T13:05:40Z</time>
      </trkpt>
      <trkpt lat="44.72546" lon="5.20585">
        <ele>388.4</ele>
        <time>2016-03-26T13:05:43Z</time>
      </trkpt>
      <trkpt lat="44.72544" lon="5.20556">
        <ele>388.4</ele>
        <time>2016-03-26T13:05:46Z</time>
      </trkpt>
      <trkpt lat="44.72538" lon="5.20526">
        <ele>388.7</ele>
        <time>2016-03-26T13:05:50Z</time>
      </trkpt>
      <trkpt lat="44.72522" lon="5.20508">
        <ele>386.9</ele>
        <time>2016-03-26T13:05:54Z</time>
      </trkpt>
      <trkpt lat="44.72522" lon="5.20479">
        <ele>385.9</ele>
        <time>2016-03-26T13:05:58Z</time>
      </trkpt>
      <trkpt lat="44.72516" lon="5.20451">
        <ele>386.9</ele>
        <time>2016-03-26T13:06:01Z</time>
      </trkpt>
      <trkpt lat="44.72503" lon="5.20432">
        <ele>388</ele>
        <time>2016-03-26T13:06:04Z</time>
      </trkpt>
      <trkpt lat="44.72484" lon="5.20418">
        <ele>389.8</ele>
        <time>2016-03-26T13:06:08Z</time>
      </trkpt>
      <trkpt lat="44.72462" lon="5.20404">
        <ele>391.1</ele>
        <time>2016-03-26T13:06:12Z</time>
      </trkpt>
      <trkpt lat="44.72445" lon="5.2039">
        <ele>390.3</ele>
        <time>2016-03-26T13:06:16Z</time>
      </trkpt>
      <trkpt lat="44.72439" lon="5.20365">
        <ele>389.8</ele>
        <time>2016-03-26T13:06:22Z</time>
      </trkpt>
      <trkpt lat="44.72442" lon="5.20339">
        <ele>389.9</ele>
        <time>2016-03-26T13:06:27Z</time>
      </trkpt>
      <trkpt lat="44.72452" lon="5.20316">
        <ele>390.7</ele>
        <time>2016-03-26T13:06:33Z</time>
      </trkpt>
      <trkpt lat="44.72458" lon="5.2029">
        <ele>391.3</ele>
        <time>2016-03-26T13:06:39Z</time>
      </trkpt>
      <trkpt lat="44.72442" lon="5.20272">
        <ele>392</ele>
        <time>2016-03-26T13:06:45Z</time>
      </trkpt>
      <trkpt lat="44.72425" lon="5.20284">
        <ele>392.5</ele>
        <time>2016-03-26T13:06:52Z</time>
      </trkpt>
      <trkpt lat="44.72412" lon="5.20302">
        <ele>393.1</ele>
        <time>2016-03-26T13:06:59Z</time>
      </trkpt>
      <trkpt lat="44.72399" lon="5.20322">
        <ele>394.2</ele>
        <time>2016-03-26T13:07:08Z</time>
      </trkpt>
      <trkpt lat="44.72383" lon="5.20333">
        <ele>394.6</ele>
        <time>2016-03-26T13:07:15Z</time>
      </trkpt>
      <trkpt lat="44.72366" lon="5.20341">
        <ele>394.7</ele>
        <time>2016-03-26T13:07:22Z</time>
      </trkpt>
      <trkpt lat="44.72346" lon="5.20342">
        <ele>395</ele>
        <time>2016-03-26T13:07:30Z</time>
      </trkpt>
      <trkpt lat="44.72328" lon="5.20335">
        <ele>395.5</ele>
        <time>2016-03-26T13:07:37Z</time>
      </trkpt>
      <trkpt lat="44.7231" lon="5.20323">
        <ele>396.6</ele>
        <time>2016-03-26T13:07:45Z</time>
      </trkpt>
      <trkpt lat="44.72293" lon="5.20311">
        <ele>397.5</ele>
        <time>2016-03-26T13:07:52Z</time>
      </trkpt>
      <trkpt lat="44.72277" lon="5.20299">
        <ele>398.5</ele>
        <time>2016-03-26T13:07:59Z</time>
      </trkpt>
      <trkpt lat="44.7226" lon="5.20288">
        <ele>399.8</ele>
        <time>2016-03-26T13:08:06Z</time>
      </trkpt>
      <trkpt lat="44.72241" lon="5.20277">
        <ele>401.1</ele>
        <time>2016-03-26T13:08:15Z</time>
      </trkpt>
      <trkpt lat="44.72222" lon="5.20276">
        <ele>401.5</ele>
        <time>2016-03-26T13:08:23Z</time>
      </trkpt>
      <trkpt lat="44.72203" lon="5.20289">
        <ele>402</ele>
        <time>2016-03-26T13:08:31Z</time>
      </trkpt>
      <trkpt lat="44.72185" lon="5.20305">
        <ele>402.4</ele>
        <time>2016-03-26T13:08:38Z</time>
      </trkpt>
      <trkpt lat="44.72167" lon="5.20312">
        <ele>402.8</ele>
        <time>2016-03-26T13:08:44Z</time>
      </trkpt>
      <trkpt lat="44.72148" lon="5.20317">
        <ele>403.3</ele>
        <time>2016-03-26T13:08:50Z</time>
      </trkpt>
      <trkpt lat="44.72131" lon="5.20329">
        <ele>404</ele>
        <time>2016-03-26T13:08:55Z</time>
      </trkpt>
      <trkpt lat="44.72116" lon="5.20345">
        <ele>404.6</ele>
        <time>2016-03-26T13:09:01Z</time>
      </trkpt>
      <trkpt lat="44.72099" lon="5.20336">
        <ele>405</ele>
        <time>2016-03-26T13:09:07Z</time>
      </trkpt>
      <trkpt lat="44.72087" lon="5.20317">
        <ele>405.5</ele>
        <time>2016-03-26T13:09:13Z</time>
      </trkpt>
      <trkpt lat="44.7207" lon="5.20304">
        <ele>405.6</ele>
        <time>2016-03-26T13:09:19Z</time>
      </trkpt>
      <trkpt lat="44.72052" lon="5.20292">
        <ele>405.7</ele>
        <time>2016-03-26T13:09:26Z</time>
      </trkpt>
      <trkpt lat="44.72036" lon="5.20274">
        <ele>405.8</ele>
        <time>2016-03-26T13:09:32Z</time>
      </trkpt>
      <trkpt lat="44.72023" lon="5.20256">
        <ele>406.2</ele>
        <time>2016-03-26T13:09:37Z</time>
      </trkpt>
      <trkpt lat="44.72008" lon="5.20237">
        <ele>406.3</ele>
        <time>2016-03-26T13:09:43Z</time>
      </trkpt>
      <trkpt lat="44.7199" lon="5.20227">
        <ele>406.5</ele>
        <time>2016-03-26T13:09:48Z</time>
      </trkpt>
      <trkpt lat="44.71972" lon="5.20241">
        <ele>406.5</ele>
        <time>2016-03-26T13:09:55Z</time>
      </trkpt>
      <trkpt lat="44.71959" lon="5.2026">
        <ele>407</ele>
        <time>2016-03-26T13:10:01Z</time>
      </trkpt>
      <trkpt lat="44.71946" lon="5.2028">
        <ele>410.7</ele>
        <time>2016-03-26T13:10:06Z</time>
      </trkpt>
      <trkpt lat="44.71933" lon="5.20301">
        <ele>411.1</ele>
        <time>2016-03-26T13:10:12Z</time>
      </trkpt>
      <trkpt lat="44.71922" lon="5.20313">
        <ele>414.2</ele>
        <time>2016-03-26T13:11:34Z</time>
      </trkpt>
      <trkpt lat="44.71936" lon="5.20329">
        <ele>415</ele>
        <time>2016-03-26T13:11:47Z</time>
      </trkpt>
      <trkpt lat="44.71942" lon="5.20353">
        <ele>417.2</ele>
        <time>2016-03-26T13:12:03Z</time>
      </trkpt>
      <trkpt lat="44.71932" lon="5.20375">
        <ele>419</ele>
        <time>2016-03-26T13:12:15Z</time>
      </trkpt>
      <trkpt lat="44.71919" lon="5.20394">
        <ele>420.9</ele>
        <time>2016-03-26T13:12:31Z</time>
      </trkpt>
      <trkpt lat="44.71905" lon="5.2041">
        <ele>424.4</ele>
        <time>2016-03-26T13:12:51Z</time>
      </trkpt>
      <trkpt lat="44.7189" lon="5.20428">
        <ele>428.3</ele>
        <time>2016-03-26T13:13:06Z</time>
      </trkpt>
      <trkpt lat="44.71877" lon="5.20446">
        <ele>431.3</ele>
        <time>2016-03-26T13:13:20Z</time>
      </trkpt>
      <trkpt lat="44.71863" lon="5.20462">
        <ele>433.4</ele>
        <time>2016-03-26T13:13:36Z</time>
      </trkpt>
      <trkpt lat="44.71882" lon="5.20461">
        <ele>436.7</ele>
        <time>2016-03-26T13:13:52Z</time>
      </trkpt>
      <trkpt lat="44.719" lon="5.20458">
        <ele>438.8</ele>
        <time>2016-03-26T13:14:02Z</time>
      </trkpt>
      <trkpt lat="44.71913" lon="5.20477">
        <ele>440.7</ele>
        <time>2016-03-26T13:14:16Z</time>
      </trkpt>
      <trkpt lat="44.71915" lon="5.20503">
        <ele>442.8</ele>
        <time>2016-03-26T13:14:28Z</time>
      </trkpt>
      <trkpt lat="44.71918" lon="5.20529">
        <ele>445.2</ele>
        <time>2016-03-26T13:14:42Z</time>
      </trkpt>
      <trkpt lat="44.71918" lon="5.20555">
        <ele>446.9</ele>
        <time>2016-03-26T13:14:56Z</time>
      </trkpt>
      <trkpt lat="44.71924" lon="5.2058">
        <ele>448.6</ele>
        <time>2016-03-26T13:15:09Z</time>
      </trkpt>
      <trkpt lat="44.71928" lon="5.20605">
        <ele>450.8</ele>
        <time>2016-03-26T13:15:25Z</time>
      </trkpt>
      <trkpt lat="44.71931" lon="5.2063">
        <ele>453.4</ele>
        <time>2016-03-26T13:15:42Z</time>
      </trkpt>
      <trkpt lat="44.71932" lon="5.20657">
        <ele>456.7</ele>
        <time>2016-03-26T13:15:59Z</time>
      </trkpt>
      <trkpt lat="44.71939" lon="5.20681">
        <ele>459.4</ele>
        <time>2016-03-26T13:16:14Z</time>
      </trkpt>
      <trkpt lat="44.71945" lon="5.20707">
        <ele>463.8</ele>
        <time>2016-03-26T13:16:32Z</time>
      </trkpt>
      <trkpt lat="44.7195" lon="5.20732">
        <ele>467.2</ele>
        <time>2016-03-26T13:16:48Z</time>
      </trkpt>
      <trkpt lat="44.71949" lon="5.20757">
        <ele>470.5</ele>
        <time>2016-03-26T13:17:06Z</time>
      </trkpt>
      <trkpt lat="44.71946" lon="5.20783">
        <ele>475.8</ele>
        <time>2016-03-26T13:17:20Z</time>
      </trkpt>
      <trkpt lat="44.71937" lon="5.20806">
        <ele>480.9</ele>
        <time>2016-03-26T13:17:38Z</time>
      </trkpt>
      <trkpt lat="44.71926" lon="5.20827">
        <ele>483</ele>
        <time>2016-03-26T13:17:54Z</time>
      </trkpt>
      <trkpt lat="44.71915" lon="5.20847">
        <ele>486.1</ele>
        <time>2016-03-26T13:18:09Z</time>
      </trkpt>
      <trkpt lat="44.719" lon="5.20863">
        <ele>488.7</ele>
        <time>2016-03-26T13:18:25Z</time>
      </trkpt>
      <trkpt lat="44.71903" lon="5.20889">
        <ele>492.1</ele>
        <time>2016-03-26T13:18:46Z</time>
      </trkpt>
      <trkpt lat="44.71922" lon="5.20887">
        <ele>494.6</ele>
        <time>2016-03-26T13:18:59Z</time>
      </trkpt>
      <trkpt lat="44.71941" lon="5.20883">
        <ele>495.8</ele>
        <time>2016-03-26T13:19:12Z</time>
      </trkpt>
      <trkpt lat="44.7196" lon="5.20883">
        <ele>497.3</ele>
        <time>2016-03-26T13:19:24Z</time>
      </trkpt>
      <trkpt lat="44.71979" lon="5.2089">
        <ele>499.8</ele>
        <time>2016-03-26T13:19:36Z</time>
      </trkpt>
      <trkpt lat="44.71963" lon="5.20906">
        <ele>509.1</ele>
        <time>2016-03-26T13:21:56Z</time>
      </trkpt>
      <trkpt lat="44.71946" lon="5.20911">
        <ele>510.5</ele>
        <time>2016-03-26T13:22:07Z</time>
      </trkpt>
      <trkpt lat="44.71929" lon="5.20922">
        <ele>510.7</ele>
        <time>2016-03-26T13:22:17Z</time>
      </trkpt>
      <trkpt lat="44.71913" lon="5.20936">
        <ele>510.8</ele>
        <time>2016-03-26T13:22:29Z</time>
      </trkpt>
      <trkpt lat="44.71897" lon="5.2095">
        <ele>511.6</ele>
        <time>2016-03-26T13:22:43Z</time>
      </trkpt>
      <trkpt lat="44.71881" lon="5.20961">
        <ele>514.3</ele>
        <time>2016-03-26T13:23:03Z</time>
      </trkpt>
      <trkpt lat="44.71863" lon="5.2097">
        <ele>517.4</ele>
        <time>2016-03-26T13:23:17Z</time>
      </trkpt>
      <trkpt lat="44.71847" lon="5.20982">
        <ele>519.5</ele>
        <time>2016-03-26T13:23:31Z</time>
      </trkpt>
      <trkpt lat="44.7183" lon="5.20996">
        <ele>521.5</ele>
        <time>2016-03-26T13:23:48Z</time>
      </trkpt>
      <trkpt lat="44.71813" lon="5.21004">
        <ele>525.6</ele>
        <time>2016-03-26T13:24:05Z</time>
      </trkpt>
      <trkpt lat="44.71795" lon="5.21011">
        <ele>529.5</ele>
        <time>2016-03-26T13:24:19Z</time>
      </trkpt>
      <trkpt lat="44.71779" lon="5.21022">
        <ele>534</ele>
        <time>2016-03-26T13:24:39Z</time>
      </trkpt>
      <trkpt lat="44.71794" lon="5.21036">
        <ele>536.3</ele>
        <time>2016-03-26T13:24:53Z</time>
      </trkpt>
      <trkpt lat="44.71812" lon="5.21044">
        <ele>537.4</ele>
        <time>2016-03-26T13:25:10Z</time>
      </trkpt>
      <trkpt lat="44.7183" lon="5.21049">
        <ele>540.7</ele>
        <time>2016-03-26T13:25:29Z</time>
      </trkpt>
      <trkpt lat="44.71844" lon="5.21065">
        <ele>543.6</ele>
        <time>2016-03-26T13:25:46Z</time>
      </trkpt>
      <trkpt lat="44.71828" lon="5.21077">
        <ele>560.6</ele>
        <time>2016-03-26T13:29:13Z</time>
      </trkpt>
      <trkpt lat="44.7181" lon="5.21081">
        <ele>561</ele>
        <time>2016-03-26T13:29:26Z</time>
      </trkpt>
      <trkpt lat="44.71792" lon="5.21086">
        <ele>561.7</ele>
        <time>2016-03-26T13:29:37Z</time>
      </trkpt>
      <trkpt lat="44.71774" lon="5.21087">
        <ele>563.2</ele>
        <time>2016-03-26T13:29:50Z</time>
      </trkpt>
      <trkpt lat="44.71755" lon="5.21086">
        <ele>565</ele>
        <time>2016-03-26T13:30:04Z</time>
      </trkpt>
      <trkpt lat="44.71736" lon="5.21092">
        <ele>566.9</ele>
        <time>2016-03-26T13:30:19Z</time>
      </trkpt>
      <trkpt lat="44.71718" lon="5.211">
        <ele>569</ele>
        <time>2016-03-26T13:30:33Z</time>
      </trkpt>
      <trkpt lat="44.71707" lon="5.2108">
        <ele>571.5</ele>
        <time>2016-03-26T13:30:43Z</time>
      </trkpt>
      <trkpt lat="44.71704" lon="5.2105">
        <ele>572.6</ele>
        <time>2016-03-26T13:30:50Z</time>
      </trkpt>
      <trkpt lat="44.71703" lon="5.21022">
        <ele>572.8</ele>
        <time>2016-03-26T13:30:56Z</time>
      </trkpt>
      <trkpt lat="44.71702" lon="5.20996">
        <ele>573.6</ele>
        <time>2016-03-26T13:31:04Z</time>
      </trkpt>
      <trkpt lat="44.71707" lon="5.20969">
        <ele>574.5</ele>
        <time>2016-03-26T13:31:11Z</time>
      </trkpt>
      <trkpt lat="44.71706" lon="5.20943">
        <ele>574.6</ele>
        <time>2016-03-26T13:31:18Z</time>
      </trkpt>
      <trkpt lat="44.71703" lon="5.20917">
        <ele>574.9</ele>
        <time>2016-03-26T13:31:26Z</time>
      </trkpt>
      <trkpt lat="44.717" lon="5.20892">
        <ele>576.1</ele>
        <time>2016-03-26T13:31:34Z</time>
      </trkpt>
      <trkpt lat="44.71682" lon="5.20879">
        <ele>577.7</ele>
        <time>2016-03-26T13:31:42Z</time>
      </trkpt>
      <trkpt lat="44.71663" lon="5.2088">
        <ele>578.6</ele>
        <time>2016-03-26T13:31:49Z</time>
      </trkpt>
      <trkpt lat="44.71647" lon="5.20891">
        <ele>579.1</ele>
        <time>2016-03-26T13:31:55Z</time>
      </trkpt>
      <trkpt lat="44.71629" lon="5.20905">
        <ele>580</ele>
        <time>2016-03-26T13:31:59Z</time>
      </trkpt>
      <trkpt lat="44.71611" lon="5.20917">
        <ele>580.1</ele>
        <time>2016-03-26T13:32:04Z</time>
      </trkpt>
      <trkpt lat="44.71591" lon="5.20927">
        <ele>579.4</ele>
        <time>2016-03-26T13:32:12Z</time>
      </trkpt>
      <trkpt lat="44.71573" lon="5.20923">
        <ele>577.7</ele>
        <time>2016-03-26T13:32:21Z</time>
      </trkpt>
      <trkpt lat="44.71563" lon="5.20901">
        <ele>577.2</ele>
        <time>2016-03-26T13:32:28Z</time>
      </trkpt>
      <trkpt lat="44.71551" lon="5.20881">
        <ele>576.5</ele>
        <time>2016-03-26T13:32:35Z</time>
      </trkpt>
      <trkpt lat="44.71539" lon="5.20862">
        <ele>575.9</ele>
        <time>2016-03-26T13:32:44Z</time>
      </trkpt>
      <trkpt lat="44.71521" lon="5.20865">
        <ele>575.9</ele>
        <time>2016-03-26T13:32:57Z</time>
      </trkpt>
      <trkpt lat="44.71502" lon="5.2088">
        <ele>576</ele>
        <time>2016-03-26T13:33:03Z</time>
      </trkpt>
      <trkpt lat="44.71487" lon="5.20898">
        <ele>575.5</ele>
        <time>2016-03-26T13:33:12Z</time>
      </trkpt>
      <trkpt lat="44.71468" lon="5.20911">
        <ele>574.7</ele>
        <time>2016-03-26T13:33:18Z</time>
      </trkpt>
      <trkpt lat="44.71448" lon="5.20915">
        <ele>572.3</ele>
        <time>2016-03-26T13:33:25Z</time>
      </trkpt>
      <trkpt lat="44.71434" lon="5.20897">
        <ele>573.2</ele>
        <time>2016-03-26T13:33:33Z</time>
      </trkpt>
      <trkpt lat="44.71437" lon="5.20872">
        <ele>574.3</ele>
        <time>2016-03-26T13:33:38Z</time>
      </trkpt>
      <trkpt lat="44.71428" lon="5.20844">
        <ele>574.8</ele>
        <time>2016-03-26T13:33:44Z</time>
      </trkpt>
      <trkpt lat="44.71424" lon="5.20819">
        <ele>575.2</ele>
        <time>2016-03-26T13:33:49Z</time>
      </trkpt>
      <trkpt lat="44.71415" lon="5.20797">
        <ele>575.6</ele>
        <time>2016-03-26T13:33:53Z</time>
      </trkpt>
      <trkpt lat="44.71403" lon="5.20773">
        <ele>576.4</ele>
        <time>2016-03-26T13:33:57Z</time>
      </trkpt>
      <trkpt lat="44.71386" lon="5.20753">
        <ele>575.4</ele>
        <time>2016-03-26T13:34:01Z</time>
      </trkpt>
      <trkpt lat="44.71374" lon="5.20733">
        <ele>573.1</ele>
        <time>2016-03-26T13:34:04Z</time>
      </trkpt>
      <trkpt lat="44.71368" lon="5.20709">
        <ele>569.8</ele>
        <time>2016-03-26T13:34:07Z</time>
      </trkpt>
      <trkpt lat="44.71364" lon="5.20683">
        <ele>567</ele>
        <time>2016-03-26T13:34:11Z</time>
      </trkpt>
      <trkpt lat="44.71364" lon="5.20654">
        <ele>563.6</ele>
        <time>2016-03-26T13:34:15Z</time>
      </trkpt>
      <trkpt lat="44.71365" lon="5.20623">
        <ele>562.8</ele>
        <time>2016-03-26T13:34:19Z</time>
      </trkpt>
      <trkpt lat="44.71363" lon="5.20596">
        <ele>562.7</ele>
        <time>2016-03-26T13:34:23Z</time>
      </trkpt>
      <trkpt lat="44.71354" lon="5.2057">
        <ele>561.2</ele>
        <time>2016-03-26T13:34:27Z</time>
      </trkpt>
      <trkpt lat="44.71342" lon="5.20544">
        <ele>560.4</ele>
        <time>2016-03-26T13:34:32Z</time>
      </trkpt>
      <trkpt lat="44.71329" lon="5.20516">
        <ele>559.5</ele>
        <time>2016-03-26T13:34:36Z</time>
      </trkpt>
      <trkpt lat="44.71317" lon="5.20493">
        <ele>558.8</ele>
        <time>2016-03-26T13:34:39Z</time>
      </trkpt>
      <trkpt lat="44.71309" lon="5.20469">
        <ele>556.5</ele>
        <time>2016-03-26T13:34:43Z</time>
      </trkpt>
      <trkpt lat="44.71297" lon="5.20447">
        <ele>557.5</ele>
        <time>2016-03-26T13:34:46Z</time>
      </trkpt>
      <trkpt lat="44.71285" lon="5.20427">
        <ele>560.2</ele>
        <time>2016-03-26T13:34:50Z</time>
      </trkpt>
      <trkpt lat="44.7127" lon="5.20411">
        <ele>560.8</ele>
        <time>2016-03-26T13:34:56Z</time>
      </trkpt>
      <trkpt lat="44.71254" lon="5.20392">
        <ele>561.7</ele>
        <time>2016-03-26T13:35:03Z</time>
      </trkpt>
      <trkpt lat="44.71236" lon="5.20384">
        <ele>562.2</ele>
        <time>2016-03-26T13:35:09Z</time>
      </trkpt>
      <trkpt lat="44.71218" lon="5.20371">
        <ele>563.2</ele>
        <time>2016-03-26T13:35:15Z</time>
      </trkpt>
      <trkpt lat="44.71196" lon="5.20362">
        <ele>564.1</ele>
        <time>2016-03-26T13:35:19Z</time>
      </trkpt>
      <trkpt lat="44.71177" lon="5.2035">
        <ele>563.6</ele>
        <time>2016-03-26T13:35:24Z</time>
      </trkpt>
      <trkpt lat="44.71155" lon="5.20341">
        <ele>561.7</ele>
        <time>2016-03-26T13:35:28Z</time>
      </trkpt>
      <trkpt lat="44.71136" lon="5.20334">
        <ele>559.4</ele>
        <time>2016-03-26T13:35:31Z</time>
      </trkpt>
      <trkpt lat="44.71118" lon="5.20325">
        <ele>557.4</ele>
        <time>2016-03-26T13:35:34Z</time>
      </trkpt>
      <trkpt lat="44.71099" lon="5.20317">
        <ele>556.7</ele>
        <time>2016-03-26T13:35:40Z</time>
      </trkpt>
      <trkpt lat="44.71078" lon="5.20314">
        <ele>555.9</ele>
        <time>2016-03-26T13:35:46Z</time>
      </trkpt>
      <trkpt lat="44.71059" lon="5.20301">
        <ele>553.4</ele>
        <time>2016-03-26T13:35:52Z</time>
      </trkpt>
      <trkpt lat="44.71041" lon="5.20284">
        <ele>547.2</ele>
        <time>2016-03-26T13:35:57Z</time>
      </trkpt>
      <trkpt lat="44.71022" lon="5.20296">
        <ele>546.1</ele>
        <time>2016-03-26T13:36:03Z</time>
      </trkpt>
      <trkpt lat="44.71008" lon="5.20317">
        <ele>531.8</ele>
        <time>2016-03-26T13:39:12Z</time>
      </trkpt>
      <trkpt lat="44.70997" lon="5.20342">
        <ele>532.1</ele>
        <time>2016-03-26T13:39:17Z</time>
      </trkpt>
      <trkpt lat="44.70986" lon="5.20369">
        <ele>532.9</ele>
        <time>2016-03-26T13:39:22Z</time>
      </trkpt>
      <trkpt lat="44.70982" lon="5.20395">
        <ele>534.4</ele>
        <time>2016-03-26T13:39:26Z</time>
      </trkpt>
      <trkpt lat="44.70969" lon="5.20373">
        <ele>530.4</ele>
        <time>2016-03-26T13:39:40Z</time>
      </trkpt>
      <trkpt lat="44.70955" lon="5.20357">
        <ele>526.5</ele>
        <time>2016-03-26T13:39:49Z</time>
      </trkpt>
      <trkpt lat="44.70943" lon="5.20337">
        <ele>524.1</ele>
        <time>2016-03-26T13:39:55Z</time>
      </trkpt>
      <trkpt lat="44.70929" lon="5.20315">
        <ele>517.1</ele>
        <time>2016-03-26T13:40:02Z</time>
      </trkpt>
      <trkpt lat="44.70916" lon="5.20291">
        <ele>514</ele>
        <time>2016-03-26T13:40:08Z</time>
      </trkpt>
      <trkpt lat="44.70901" lon="5.20266">
        <ele>508.6</ele>
        <time>2016-03-26T13:40:13Z</time>
      </trkpt>
      <trkpt lat="44.70889" lon="5.20244">
        <ele>500.8</ele>
        <time>2016-03-26T13:40:17Z</time>
      </trkpt>
      <trkpt lat="44.7088" lon="5.20222">
        <ele>498.5</ele>
        <time>2016-03-26T13:40:21Z</time>
      </trkpt>
      <trkpt lat="44.70873" lon="5.20193">
        <ele>494.4</ele>
        <time>2016-03-26T13:40:27Z</time>
      </trkpt>
      <trkpt lat="44.70869" lon="5.20168">
        <ele>489.5</ele>
        <time>2016-03-26T13:40:31Z</time>
      </trkpt>
      <trkpt lat="44.70862" lon="5.2014">
        <ele>485.3</ele>
        <time>2016-03-26T13:40:35Z</time>
      </trkpt>
      <trkpt lat="44.70853" lon="5.20114">
        <ele>481.4</ele>
        <time>2016-03-26T13:40:39Z</time>
      </trkpt>
      <trkpt lat="44.70841" lon="5.20089">
        <ele>475.9</ele>
        <time>2016-03-26T13:40:44Z</time>
      </trkpt>
      <trkpt lat="44.70827" lon="5.20069">
        <ele>471.1</ele>
        <time>2016-03-26T13:40:48Z</time>
      </trkpt>
      <trkpt lat="44.7081" lon="5.20056">
        <ele>467.7</ele>
        <time>2016-03-26T13:41:06Z</time>
      </trkpt>
      <trkpt lat="44.70824" lon="5.20036">
        <ele>463.8</ele>
        <time>2016-03-26T13:41:19Z</time>
      </trkpt>
      <trkpt lat="44.70834" lon="5.20012">
        <ele>455.2</ele>
        <time>2016-03-26T13:41:42Z</time>
      </trkpt>
      <trkpt lat="44.70822" lon="5.19993">
        <ele>451.6</ele>
        <time>2016-03-26T13:41:54Z</time>
      </trkpt>
      <trkpt lat="44.70802" lon="5.19991">
        <ele>448.6</ele>
        <time>2016-03-26T13:42:02Z</time>
      </trkpt>
      <trkpt lat="44.70784" lon="5.20001">
        <ele>445.6</ele>
        <time>2016-03-26T13:42:10Z</time>
      </trkpt>
      <trkpt lat="44.70763" lon="5.19993">
        <ele>443.2</ele>
        <time>2016-03-26T13:42:18Z</time>
      </trkpt>
      <trkpt lat="44.70742" lon="5.19984">
        <ele>436</ele>
        <time>2016-03-26T13:42:23Z</time>
      </trkpt>
      <trkpt lat="44.7072" lon="5.19975">
        <ele>428.9</ele>
        <time>2016-03-26T13:42:28Z</time>
      </trkpt>
      <trkpt lat="44.70702" lon="5.19977">
        <ele>427.7</ele>
        <time>2016-03-26T13:42:33Z</time>
      </trkpt>
      <trkpt lat="44.70679" lon="5.19978">
        <ele>427.4</ele>
        <time>2016-03-26T13:42:39Z</time>
      </trkpt>
      <trkpt lat="44.70661" lon="5.19986">
        <ele>427.3</ele>
        <time>2016-03-26T13:42:44Z</time>
      </trkpt>
      <trkpt lat="44.70639" lon="5.19991">
        <ele>425.9</ele>
        <time>2016-03-26T13:42:49Z</time>
      </trkpt>
      <trkpt lat="44.70616" lon="5.19993">
        <ele>424.4</ele>
        <time>2016-03-26T13:42:53Z</time>
      </trkpt>
      <trkpt lat="44.70596" lon="5.20003">
        <ele>425.1</ele>
        <time>2016-03-26T13:42:58Z</time>
      </trkpt>
      <trkpt lat="44.70578" lon="5.20016">
        <ele>423.5</ele>
        <time>2016-03-26T13:43:01Z</time>
      </trkpt>
      <trkpt lat="44.70561" lon="5.2003">
        <ele>422.3</ele>
        <time>2016-03-26T13:43:05Z</time>
      </trkpt>
      <trkpt lat="44.70543" lon="5.20042">
        <ele>422.4</ele>
        <time>2016-03-26T13:43:11Z</time>
      </trkpt>
      <trkpt lat="44.70527" lon="5.20057">
        <ele>421.2</ele>
        <time>2016-03-26T13:43:15Z</time>
      </trkpt>
      <trkpt lat="44.70509" lon="5.20066">
        <ele>421.2</ele>
        <time>2016-03-26T13:43:21Z</time>
      </trkpt>
      <trkpt lat="44.70489" lon="5.20069">
        <ele>422</ele>
        <time>2016-03-26T13:43:32Z</time>
      </trkpt>
      <trkpt lat="44.70472" lon="5.2008">
        <ele>422.9</ele>
        <time>2016-03-26T13:43:38Z</time>
      </trkpt>
      <trkpt lat="44.70455" lon="5.2009">
        <ele>421.9</ele>
        <time>2016-03-26T13:43:42Z</time>
      </trkpt>
      <trkpt lat="44.70442" lon="5.2011">
        <ele>415.1</ele>
        <time>2016-03-26T13:43:46Z</time>
      </trkpt>
      <trkpt lat="44.70427" lon="5.20085">
        <ele>408.7</ele>
        <time>2016-03-26T13:43:54Z</time>
      </trkpt>
      <trkpt lat="44.70415" lon="5.20064">
        <ele>402.5</ele>
        <time>2016-03-26T13:43:58Z</time>
      </trkpt>
      <trkpt lat="44.70398" lon="5.20046">
        <ele>397.2</ele>
        <time>2016-03-26T13:44:03Z</time>
      </trkpt>
      <trkpt lat="44.70382" lon="5.2003">
        <ele>393.2</ele>
        <time>2016-03-26T13:44:08Z</time>
      </trkpt>
      <trkpt lat="44.70366" lon="5.20018">
        <ele>388.8</ele>
        <time>2016-03-26T13:44:12Z</time>
      </trkpt>
      <trkpt lat="44.70349" lon="5.20004">
        <ele>384.8</ele>
        <time>2016-03-26T13:44:16Z</time>
      </trkpt>
      <trkpt lat="44.7033" lon="5.19992">
        <ele>380.6</ele>
        <time>2016-03-26T13:44:20Z</time>
      </trkpt>
      <trkpt lat="44.70309" lon="5.19978">
        <ele>375.6</ele>
        <time>2016-03-26T13:44:24Z</time>
      </trkpt>
      <trkpt lat="44.70291" lon="5.19969">
        <ele>369.5</ele>
        <time>2016-03-26T13:44:28Z</time>
      </trkpt>
      <trkpt lat="44.70269" lon="5.1996">
        <ele>362</ele>
        <time>2016-03-26T13:44:33Z</time>
      </trkpt>
      <trkpt lat="44.70251" lon="5.19954">
        <ele>358.6</ele>
        <time>2016-03-26T13:44:37Z</time>
      </trkpt>
      <trkpt lat="44.70232" lon="5.19957">
        <ele>356</ele>
        <time>2016-03-26T13:44:42Z</time>
      </trkpt>
      <trkpt lat="44.70212" lon="5.19963">
        <ele>351.5</ele>
        <time>2016-03-26T13:44:46Z</time>
      </trkpt>
      <trkpt lat="44.70188" lon="5.19963">
        <ele>347.5</ele>
        <time>2016-03-26T13:44:50Z</time>
      </trkpt>
      <trkpt lat="44.70169" lon="5.19968">
        <ele>343.6</ele>
        <time>2016-03-26T13:44:53Z</time>
      </trkpt>
      <trkpt lat="44.70146" lon="5.19969">
        <ele>337.2</ele>
        <time>2016-03-26T13:44:57Z</time>
      </trkpt>
      <trkpt lat="44.70124" lon="5.19958">
        <ele>331.4</ele>
        <time>2016-03-26T13:45:01Z</time>
      </trkpt>
      <trkpt lat="44.70105" lon="5.19942">
        <ele>328.7</ele>
        <time>2016-03-26T13:45:05Z</time>
      </trkpt>
      <trkpt lat="44.70088" lon="5.19924">
        <ele>327.8</ele>
        <time>2016-03-26T13:45:08Z</time>
      </trkpt>
      <trkpt lat="44.7007" lon="5.19906">
        <ele>326.5</ele>
        <time>2016-03-26T13:45:11Z</time>
      </trkpt>
      <trkpt lat="44.70051" lon="5.19888">
        <ele>324.9</ele>
        <time>2016-03-26T13:45:18Z</time>
      </trkpt>
      <trkpt lat="44.70034" lon="5.19876">
        <ele>319.3</ele>
        <time>2016-03-26T13:45:21Z</time>
      </trkpt>
      <trkpt lat="44.70018" lon="5.19863">
        <ele>313.6</ele>
        <time>2016-03-26T13:45:24Z</time>
      </trkpt>
      <trkpt lat="44.70002" lon="5.19846">
        <ele>307.5</ele>
        <time>2016-03-26T13:45:28Z</time>
      </trkpt>
      <trkpt lat="44.69988" lon="5.19828">
        <ele>303.8</ele>
        <time>2016-03-26T13:45:34Z</time>
      </trkpt>
      <trkpt lat="44.69975" lon="5.19809">
        <ele>298.9</ele>
        <time>2016-03-26T13:45:41Z</time>
      </trkpt>
      <trkpt lat="44.69962" lon="5.19784">
        <ele>295.1</ele>
        <time>2016-03-26T13:45:53Z</time>
      </trkpt>
      <trkpt lat="44.69951" lon="5.19761">
        <ele>289.4</ele>
        <time>2016-03-26T13:45:58Z</time>
      </trkpt>
      <trkpt lat="44.69939" lon="5.19738">
        <ele>285.9</ele>
        <time>2016-03-26T13:46:01Z</time>
      </trkpt>
      <trkpt lat="44.69924" lon="5.1972">
        <ele>283</ele>
        <time>2016-03-26T13:46:04Z</time>
      </trkpt>
      <trkpt lat="44.69903" lon="5.19719">
        <ele>280.2</ele>
        <time>2016-03-26T13:46:07Z</time>
      </trkpt>
      <trkpt lat="44.6988" lon="5.19724">
        <ele>278</ele>
        <time>2016-03-26T13:46:10Z</time>
      </trkpt>
      <trkpt lat="44.69859" lon="5.19719">
        <ele>276.5</ele>
        <time>2016-03-26T13:46:13Z</time>
      </trkpt>
      <trkpt lat="44.69838" lon="5.19708">
        <ele>275.1</ele>
        <time>2016-03-26T13:46:16Z</time>
      </trkpt>
      <trkpt lat="44.69817" lon="5.19698">
        <ele>275</ele>
        <time>2016-03-26T13:46:19Z</time>
      </trkpt>
      <trkpt lat="44.69794" lon="5.19696">
        <ele>274.6</ele>
        <time>2016-03-26T13:46:22Z</time>
      </trkpt>
      <trkpt lat="44.69772" lon="5.19699">
        <ele>273.6</ele>
        <time>2016-03-26T13:46:25Z</time>
      </trkpt>
      <trkpt lat="44.69754" lon="5.19709">
        <ele>274.8</ele>
        <time>2016-03-26T13:46:29Z</time>
      </trkpt>
      <trkpt lat="44.69731" lon="5.19709">
        <ele>277.3</ele>
        <time>2016-03-26T13:46:34Z</time>
      </trkpt>
      <trkpt lat="44.6971" lon="5.19711">
        <ele>279</ele>
        <time>2016-03-26T13:46:37Z</time>
      </trkpt>
      <trkpt lat="44.69689" lon="5.19709">
        <ele>281.1</ele>
        <time>2016-03-26T13:46:40Z</time>
      </trkpt>
      <trkpt lat="44.69669" lon="5.19709">
        <ele>283</ele>
        <time>2016-03-26T13:46:44Z</time>
      </trkpt>
      <trkpt lat="44.69653" lon="5.19693">
        <ele>282.9</ele>
        <time>2016-03-26T13:46:58Z</time>
      </trkpt>
      <trkpt lat="44.6965" lon="5.19664">
        <ele>279.9</ele>
        <time>2016-03-26T13:47:04Z</time>
      </trkpt>
      <trkpt lat="44.69648" lon="5.19637">
        <ele>272.2</ele>
        <time>2016-03-26T13:47:09Z</time>
      </trkpt>
      <trkpt lat="44.6965" lon="5.19605">
        <ele>266.1</ele>
        <time>2016-03-26T13:47:14Z</time>
      </trkpt>
      <trkpt lat="44.69655" lon="5.19579">
        <ele>265.3</ele>
        <time>2016-03-26T13:47:18Z</time>
      </trkpt>
      <trkpt lat="44.69657" lon="5.1955">
        <ele>265.6</ele>
        <time>2016-03-26T13:47:25Z</time>
      </trkpt>
      <trkpt lat="44.69659" lon="5.19525">
        <ele>264.7</ele>
        <time>2016-03-26T13:47:30Z</time>
      </trkpt>
      <trkpt lat="44.69657" lon="5.19498">
        <ele>262.3</ele>
        <time>2016-03-26T13:47:34Z</time>
      </trkpt>
      <trkpt lat="44.69651" lon="5.19468">
        <ele>262</ele>
        <time>2016-03-26T13:47:38Z</time>
      </trkpt>
      <trkpt lat="44.69642" lon="5.19445">
        <ele>262.1</ele>
        <time>2016-03-26T13:47:43Z</time>
      </trkpt>
      <trkpt lat="44.69631" lon="5.1942">
        <ele>264.4</ele>
        <time>2016-03-26T13:47:49Z</time>
      </trkpt>
      <trkpt lat="44.6962" lon="5.19397">
        <ele>264.3</ele>
        <time>2016-03-26T13:47:55Z</time>
      </trkpt>
    </trkseg>
  </trk>
</gpx>